[[{"header":{"parameterUnit":"m.s-1","parameterCategory":1,"la1":30.6,"la2":29.2853,"lo1":-89.7004,"lo2":-87.6739,"dy":0.0162,"dx":0.0183,"nx":112,"ny":82,"refTime":"2024-08-01T12:00:00:Z","depth":0,"parameterNumber":2,"parameterNumberName":"U-component_of_WINDS"},"data":[0.0,0.0,0.0,0.0,0.0,0.0,0.0,0.0,0.0,0.0,0.0,0.0,0.0,0.0,0.0,0.0,0.0,0.0,0.0,0.0,0.0,0.0,0.0,0.0,0.0,0.0,0.0,0.0,0.0,0.0,0.0,0.0,0.0,0.0,0.0,0.0,0.0,0.0,0.0,0.0,0.0,0.0,0.0,0.0,0.0,0.0,0.0,0.0,0.0,0.0,0.0,0.0,0.0,0.0,0.0,0.0,0.0,0.0,0.0,0.0,0.0,0.0,0.0,0.0,0.0,0.0,0.0,0.0,0.0,0.0,0.0,0.0,0.0,0.0,0.0,0.0,0.0,0.0,0.0,0.0,0.0,0.0,0.0,0.0,0.0,0.0,0.0,0.0,0.0,0.0,0.0,-0.7923,-0.9298,-1.0173,-1.027,-1.0634,-1.0736,-1.0539,0.0,0.0,0.0,0.0,0.0,0.0,0.0,0.0,0.0,0.0,0.0,0.0,0.0,0.0,0.0,0.0,0.0,0.0,0.0,0.0,0.0,0.0,0.0,0.0,0.0,0.0,0.0,0.0,0.0,0.0,0.0,0.0,0.0,0.0,0.0,0.0,0.0,0.0,0.0,0.0,0.0,0.0,0.0,0.0,0.0,0.0,0.0,0.0,0.0,0.0,0.0,0.0,0.0,0.0,0.0,0.0,0.0,0.0,0.0,0.0,0.0,0.0,0.0,0.0,0.0,0.0,0.0,0.0,0.0,0.0,0.0,0.0,0.0,0.0,0.0,0.0,0.0,0.0,0.0,0.0,0.0,0.0,0.0,0.0,0.0,0.0,0.0,0.0,0.0,0.0,0.0,0.0,0.0,0.0,0.0,0.0,0.0,0.0,0.0,0.0,0.0,0.0,0.0,0.0,-0.6598,-0.7792,-0.908,-1.0089,-1.0638,-0.9803,-0.9882,-1.1297,0.0,0.0,0.0,0.0,0.0,0.0,0.0,0.0,0.0,0.0,0.0,0.0,0.0,0.0,0.0,0.0,0.0,0.0,0.0,0.0,0.0,0.0,0.0,0.0,0.0,0.0,0.0,0.0,0.0,0.0,0.0,0.0,0.0,0.0,0.0,0.0,0.0,0.0,0.0,0.0,0.0,0.0,0.0,0.0,0.0,0.0,0.0,0.0,0.0,0.0,0.0,0.0,0.0,0.0,0.0,0.0,0.0,0.0,0.0,0.0,0.0,0.0,0.0,0.0,0.0,0.0,0.0,0.0,0.0,0.0,0.0,0.0,0.0,0.0,0.0,0.0,0.0,0.0,0.0,0.0,0.0,0.0,0.0,0.0,0.0,0.0,0.0,0.0,0.0,0.0,0.0,0.0,0.0,0.0,0.0,0.0,0.0,0.0,0.0,0.0,0.0,0.0,0.0,-0.6222,-0.6962,-0.7802,-0.8696,-0.9666,-1.0712,-0.9316,-0.8142,-0.766,-0.43,0.0,0.0,0.0,0.0,0.0,0.0,0.0,0.0,0.0,0.0,0.0,0.0,0.0,0.0,0.0,0.0,0.0,0.0,0.0,0.0,0.0,0.0,0.0,0.0,0.0,0.0,0.0,0.0,0.0,0.0,0.0,0.0,0.0,0.0,0.0,0.0,0.0,0.0,0.0,0.0,0.0,0.0,0.0,0.0,0.0,0.0,0.0,0.0,0.0,0.0,0.0,0.0,0.0,0.0,0.0,0.0,0.0,0.0,0.0,0.0,0.0,0.0,0.0,0.0,0.0,0.0,0.0,0.0,0.0,0.0,0.0,0.0,0.0,0.0,0.0,0.0,0.0,0.0,0.0,0.0,0.0,0.0,0.0,0.0,0.0,0.0,0.0,0.0,0.0,0.0,0.0,0.0,0.0,0.0,0.0,0.0,0.0,0.0,0.0,0.0,0.0,0.0,-0.6373,-0.7319,-0.7856,-0.8457,-0.9263,-1.0466,-0.875,-0.6637,-0.4439,-0.2466,0.0,0.0,0.0,0.0,0.0,0.0,0.0,0.0,0.0,0.0,0.0,0.0,0.0,0.0,0.0,0.0,0.0,0.0,0.0,0.0,0.0,0.0,0.0,0.0,0.0,0.0,0.0,0.0,0.0,0.0,0.0,0.0,0.0,0.0,0.0,0.0,0.0,0.0,0.0,0.0,0.0,0.0,0.0,0.0,0.0,0.0,0.0,0.0,0.0,0.0,0.0,0.0,0.0,0.0,0.0,0.0,0.0,0.0,0.0,0.0,0.0,0.0,0.0,0.0,0.0,0.0,0.0,0.0,0.0,0.0,0.0,0.0,0.0,0.0,0.0,0.0,0.0,0.0,0.0,0.0,0.0,0.0,0.0,0.0,0.0,0.0,0.0,0.0,0.0,0.0,0.0,0.0,0.0,0.0,0.0,0.0,0.0,0.0,0.0,0.0,0.0,0.0,-0.5879,-0.7594,-0.7848,-0.8457,-0.9106,-0.9814,-0.7907,-0.599,-0.4396,-0.1916,0.0,0.0,0.0,0.0,0.0,0.0,0.0,0.0,0.0,0.0,0.0,0.0,0.0,0.0,0.0,0.0,0.0,0.0,0.0,0.0,0.0,0.0,0.0,0.0,0.0,0.0,0.0,0.0,0.0,0.0,0.0,0.0,0.0,0.0,0.0,0.0,0.0,0.0,0.0,0.0,0.0,0.0,0.0,0.0,0.0,0.0,0.0,0.0,0.0,0.0,0.0,0.0,0.0,0.0,0.0,0.0,0.0,0.0,0.0,0.0,0.0,0.0,0.0,0.0,0.0,0.0,0.0,0.0,0.0,0.0,0.0,0.0,0.0,0.0,0.0,0.0,0.0,0.0,0.0,0.0,0.0,0.0,0.0,0.0,0.0,0.0,0.0,0.0,0.0,0.0,0.0,0.0,0.0,0.0,0.0,0.0,0.0,0.0,0.0,0.0,0.0,0.0,-0.7001,-0.7921,0.0,-0.8457,-0.8985,-0.953,-0.7576,-0.5631,-0.3972,0.0,0.0,0.0,0.0,0.0,0.0,0.0,0.0,0.0,0.0,0.0,0.0,0.0,0.0,0.0,0.0,0.0,0.0,0.0,0.0,0.0,0.0,0.0,0.0,0.0,0.0,0.0,0.0,0.0,0.0,0.0,0.0,0.0,0.0,0.0,0.0,0.0,0.0,0.0,0.0,0.0,0.0,0.0,0.0,0.0,0.0,0.0,0.0,0.0,0.0,0.0,0.0,0.0,0.0,0.0,0.0,0.0,0.0,0.0,0.0,0.0,0.0,0.0,0.0,0.0,0.0,0.0,0.0,0.0,0.0,0.0,0.0,0.0,0.0,0.0,0.0,0.0,0.0,0.0,0.0,0.0,0.0,0.0,0.0,0.0,0.0,0.0,0.0,0.0,0.0,0.0,0.0,0.0,0.0,0.0,0.0,0.0,0.0,0.0,0.0,0.0,0.0,-0.657,-0.7631,-0.8072,0.0,-0.8457,-0.8781,-0.8813,-0.7265,-0.5368,-0.3155,0.0,0.0,0.0,0.0,0.0,0.0,0.0,0.0,0.0,0.0,0.0,0.0,0.0,0.0,0.0,0.0,0.0,0.0,0.0,0.0,0.0,0.0,0.0,0.0,0.0,0.0,0.0,0.0,0.0,0.0,0.0,0.0,0.0,0.0,0.0,0.0,0.0,0.0,0.0,0.0,0.0,0.0,0.0,0.0,0.0,0.0,0.0,0.0,0.0,0.0,0.0,0.0,0.0,0.0,0.0,0.0,0.0,0.0,0.0,0.0,0.0,0.0,0.0,0.0,0.0,0.0,0.0,0.0,0.0,0.0,0.0,0.0,0.0,0.0,0.0,0.0,0.0,0.0,0.0,0.0,0.0,0.0,0.0,0.0,0.0,0.0,0.0,0.0,0.0,0.0,0.0,0.0,0.0,0.0,0.0,0.0,0.0,0.0,0.0,0.0,0.0,0.0,-0.6586,-0.7493,-0.7882,-0.7882,-0.8457,-0.8469,-0.755,-0.6939,-0.5211,0.0,0.0,0.0,0.0,0.0,0.0,0.0,0.0,0.0,0.0,0.0,0.0,0.0,0.0,0.0,0.0,0.0,0.0,0.0,0.0,0.0,0.0,0.0,0.0,0.0,0.0,0.0,0.0,0.0,0.0,0.0,0.0,0.0,0.0,0.0,0.0,0.0,0.0,0.0,0.0,0.0,0.0,0.0,0.0,0.0,0.0,0.0,0.0,0.0,0.0,0.0,0.0,0.0,0.0,0.0,0.0,0.0,0.0,0.0,0.0,0.0,0.0,0.0,0.0,0.0,0.0,0.0,0.0,0.0,0.0,0.0,0.0,0.0,0.0,0.0,0.0,0.0,0.0,0.0,0.0,0.0,0.0,0.0,0.0,0.0,0.0,0.0,0.0,0.0,0.0,0.0,0.0,0.0,0.0,0.0,0.0,0.0,0.0,0.0,0.0,0.0,0.0,0.0,-0.4734,-0.6689,-0.7882,-0.7882,-0.8457,-0.8391,-0.7297,-0.6653,-0.5033,-0.1982,0.0,0.0,0.0,0.0,0.0,0.0,0.0,0.0,0.0,0.0,0.0,0.0,0.0,0.0,0.0,0.0,0.0,0.0,0.0,0.0,0.0,0.0,0.0,0.0,0.0,0.0,0.0,0.0,0.0,0.0,0.0,0.0,0.0,0.0,0.0,0.0,0.0,0.0,0.0,0.0,0.0,0.0,0.0,0.0,0.0,0.0,0.0,0.0,0.0,0.0,0.0,0.0,0.0,0.0,0.0,0.0,0.0,0.0,0.0,0.0,0.0,0.0,0.0,0.0,0.0,0.0,0.0,0.0,0.0,0.0,0.0,0.0,0.0,0.0,0.0,0.0,0.0,0.0,0.0,0.0,0.0,0.0,0.0,0.0,0.0,0.0,0.0,0.0,0.0,0.0,0.0,0.0,0.0,0.0,0.0,0.0,0.0,0.0,0.0,0.0,0.0,0.0,-0.3501,-0.5937,-0.7589,-0.7589,-0.8037,-0.7933,-0.6844,-0.6164,-0.4661,-0.2056,0.0,0.0,0.0,0.0,0.0,0.0,0.0,0.0,0.0,0.0,0.0,0.0,0.0,0.0,0.0,0.0,0.0,0.0,0.0,0.0,0.0,0.0,0.0,0.0,0.0,0.0,0.0,0.0,0.0,0.0,0.0,0.0,0.0,0.0,0.0,0.0,0.0,0.0,0.0,0.0,0.0,0.0,0.0,0.0,0.0,0.0,0.0,0.0,0.0,0.0,0.0,0.0,0.0,0.0,0.0,0.0,0.0,0.0,0.0,0.0,0.0,0.0,0.0,0.0,0.0,0.0,0.0,0.0,0.0,0.0,0.0,0.0,0.0,0.0,0.0,0.0,0.0,0.0,0.0,0.0,0.0,0.0,0.0,0.0,0.0,0.0,0.0,0.0,0.0,0.0,0.0,0.0,0.0,0.0,0.0,0.0,0.0,0.0,0.0,0.0,0.0,0.0,-0.2732,-0.5266,-0.7008,-0.7031,-0.7372,-0.7194,-0.6201,-0.5483,-0.4229,-0.2132,0.0,0.0,0.0,0.0,0.0,0.0,0.0,0.0,0.0,0.0,0.0,0.0,0.0,0.0,0.0,0.0,0.0,0.0,0.0,0.0,0.0,0.0,0.0,0.0,0.0,0.0,0.0,0.0,0.0,0.0,0.0,0.0,0.0,0.0,0.0,0.0,0.0,0.0,0.0,0.0,0.0,0.0,0.0,0.0,0.0,0.0,0.0,0.0,0.0,0.0,0.0,0.0,0.0,0.0,0.0,0.0,0.0,0.0,0.0,0.0,-0.0093,0.0,0.0,0.0,0.0,0.0,0.0,0.0,0.0,0.0,0.0,0.0,0.0,0.0,0.0,0.0,0.0,0.0,0.0,0.0,0.0,0.0,0.0,0.0,0.0,0.0,0.0,0.0,0.0,0.0,0.0,0.0,0.0,0.0,0.0,0.0,0.0,0.0,0.0,0.0,0.0,0.0,-0.216,-0.4577,-0.6286,-0.6359,-0.6686,-0.6408,-0.5417,-0.5189,-0.4229,-0.2132,-0.1341,0.0,0.0,0.0,0.0,0.0,0.0,0.0,0.0,0.0,0.0,0.0,0.0,0.0,0.0,0.0,0.0,0.0,0.0,0.0,0.0,0.0,0.0,0.0,0.0,0.0,0.0,0.0,0.0,0.0,0.0,0.0,0.0,0.0,0.0,0.0,0.0,0.0,0.0,0.0,0.0,0.0,0.0,0.0,0.0,0.0,0.0,0.0,0.0,0.0,0.0,0.0,0.0,0.0,0.0,0.0,0.0,0.0,0.0,0.0,0.0,-0.1195,0.0,0.0,0.0,0.0,0.0,0.0,0.0,0.0,0.0,0.0,0.0,0.0,0.0,0.0,0.0,0.0,0.0,0.0,0.0,0.0,0.0,0.0,0.0,0.0,0.0,0.0,0.0,0.0,0.0,0.0,0.0,0.0,0.0,0.0,0.0,0.0,0.0,0.0,0.0,0.0,-0.1466,-0.3869,-0.5611,-0.5761,-0.597,-0.5822,-0.5175,-0.4751,-0.4029,-0.2715,-0.1958,0.0,0.0,0.0,0.0,0.0,0.0,0.0,0.0,0.0,0.0,0.0,0.0,0.0,0.0,0.0,0.0,0.0,0.0,0.0,0.0,0.0,0.0,0.0,0.0,0.0,0.0,0.0,0.0,0.0,0.0,0.0,0.0,0.0,0.0,0.0,0.0,0.0,0.0,0.0,0.0,0.0,0.0,0.0,0.0,0.0,0.0,0.0,0.0,0.0,0.0,0.0,0.0,0.0,-0.5882,-0.6334,-0.5455,-0.5593,-0.6611,-0.8136,-0.5451,-0.4389,-0.4431,-0.2167,0.0,0.0,0.0,0.0,0.0,0.0,0.0,0.0,0.0,0.0,0.0,0.0,0.0,0.0,0.0,0.0,0.0,0.0,0.0,0.0,0.0,0.0,0.0,0.0,-0.4196,-0.3899,-0.1717,0.0,0.0,0.0,0.0,0.0,0.0,0.0,0.0,0.0,0.0,0.0,-0.1176,-0.3397,-0.5018,-0.5149,-0.5242,-0.5198,-0.4973,-0.4378,-0.3792,-0.3373,-0.2659,-0.1906,0.0,0.0,0.0,0.0,0.0,0.0,0.0,0.0,0.0,0.0,0.0,0.0,0.0,0.0,0.0,0.0,0.0,0.0,0.0,0.0,0.0,0.0,0.0,0.0,0.0,0.0,0.0,0.0,0.0,0.0,0.0,0.0,0.3504,0.3188,0.0,0.0,0.0,0.0,0.0,0.0,0.0,0.0,0.0,0.0,0.0,0.0,0.0,-0.2277,-0.3285,-0.4077,-0.5293,-0.6879,-0.7357,-0.75,-0.7373,-0.8011,-0.8461,-0.8696,-0.8274,0.0,-0.5336,-0.5102,0.0,0.0,0.0,0.0,0.0,0.0,0.0,0.0,0.0,0.0,0.0,0.0,0.0,0.0,0.0,0.0,0.0,0.0,0.0,0.0,0.0,0.0,-0.6875,-0.6429,-0.5577,-0.4727,0.0,-0.2425,-0.0711,-0.0525,-0.057,0.0,0.0,0.0,0.0,0.0,0.0,0.0,-0.2335,-0.3526,-0.4376,-0.458,-0.4615,-0.4555,-0.4334,-0.4144,-0.3887,-0.3568,-0.3343,-0.2802,-0.19,-0.1188,0.0,0.0,0.0,0.0,0.0,0.0,0.0,0.0,0.0,0.0,0.0,0.0,0.0,0.0,0.0,0.0,0.0,0.0,0.0,0.0,0.0,0.0,0.0,0.0,0.0,0.0,0.0,0.0,0.0,0.3361,0.3207,0.2926,0.2482,0.2326,0.0,0.0,0.0,0.0,0.0,0.0,0.0,0.0,0.0,-0.2909,-0.4373,-0.531,-0.5722,-0.6209,-0.7084,-0.8425,-0.8496,-0.8639,-0.8828,-0.9141,-0.9299,-0.9299,-0.9299,-0.8629,-0.7595,-0.748,-0.6046,-0.3947,0.0,0.0,0.0,0.0,-0.332,-0.4738,-0.6197,-0.7865,-0.9199,-0.8325,0.0,0.0,0.0,0.0,0.0,0.0,0.0,0.0,0.0,0.0,-0.655,-0.6653,-0.593,-0.5253,-0.5253,-0.3926,-0.2549,0.0,-0.2335,-0.2119,-0.0033,0.0,0.0,0.0,0.0,-0.2019,-0.263,-0.3556,-0.4304,-0.4501,-0.4519,-0.4402,-0.4207,-0.4056,-0.3927,-0.3714,-0.348,-0.3164,-0.276,-0.1958,-0.1115,0.0,0.0,0.0,0.0,0.0,0.0,0.0,0.0,0.0,0.0,0.0,0.0,0.0,0.0,0.0,0.0,0.0,0.0,0.0,0.0,0.0,0.0,0.0,0.0,0.0,0.0,0.0,0.0,0.3081,0.2829,0.2499,0.1882,0.1642,0.0,0.0,0.0,0.0,0.0,0.0,-0.1521,-0.3093,-0.4013,-0.4063,-0.5961,-0.7246,-0.7715,-0.7812,-0.8378,-0.9355,-0.9354,-0.9434,-0.9693,-0.9686,-0.9686,-0.9686,-0.9686,-0.9559,-0.9305,-0.902,-0.7772,-0.6048,-0.6237,-0.5459,-0.4224,-0.5056,-0.6078,-0.7451,-0.9596,-1.0689,-1.0968,-1.0288,-0.9802,-0.9387,-0.8947,0.0,0.0,0.0,0.0,-0.6516,-0.6404,-0.6056,-0.5889,-0.6225,-0.5764,-0.5218,-0.5218,-0.4754,-0.4036,0.0,-0.3667,-0.3442,-0.126,0.0,0.0,0.0,0.0,-0.2685,-0.3061,-0.3783,-0.4345,-0.4508,-0.4519,-0.4419,-0.4311,-0.4113,-0.4012,-0.386,-0.3605,-0.3403,-0.3366,-0.2718,-0.196,-0.1206,0.0,0.0,0.0,0.0,0.0,0.0,0.0,0.0,0.0,0.0,0.0,0.0,0.0,0.0,0.0,0.0,0.0,0.0,0.0,0.0,0.0,0.0,0.0,0.0,0.0,0.0,0.0,0.0,0.0,0.1886,0.0602,0.0,0.0,0.0,0.0,-0.0989,-0.165,-0.2233,-0.2621,-0.3808,-0.482,-0.5644,-0.584,-0.6678,-0.8352,-0.8385,-0.8811,-0.9669,-0.9695,-0.9662,-0.97,-0.9722,-0.9686,-0.9686,-0.9686,-0.9679,-0.9633,-0.9312,-0.8459,-0.7546,-0.9254,-0.8747,-0.7345,-1.0068,-1.0343,-0.9489,-1.0448,-1.0407,-0.9902,-0.982,-0.8735,-0.7618,-0.8521,-0.7444,0.0,0.0,-0.7499,-0.6576,-0.7406,-0.6553,-0.5529,-0.5538,-0.5058,-0.457,-0.457,-0.4519,-0.4416,0.0,-0.4053,-0.3651,-0.2576,0.0,-0.2421,-0.2375,-0.2558,-0.3021,-0.4,-0.4362,-0.4512,-0.4519,-0.4519,-0.4515,-0.4508,-0.4321,-0.412,-0.4019,-0.386,-0.3707,-0.3575,-0.337,-0.2826,-0.1947,-0.1922,0.0,0.0,0.0,0.0,0.0,0.0,0.0,0.0,0.0,0.0,0.0,0.0,0.0,0.0,0.0,0.0,0.0,0.0,0.0,0.0,0.0,0.0,0.0,0.0,0.0,0.0,0.0,0.0,0.0495,-0.0144,0.0,-0.0188,-0.1171,-0.1915,-0.2111,-0.3059,-0.3785,-0.4119,-0.4984,-0.5591,-0.5889,-0.6361,-0.7214,-0.8416,-0.8409,-0.8922,-0.9953,-0.9971,-1.0059,-1.0262,-1.0272,-1.0309,-1.0309,-1.0309,-1.014,-1.0013,-1.0413,-1.0215,-0.9774,-1.0384,-1.0555,-1.0401,-1.0931,-1.1054,-1.0945,-1.0287,-1.0228,-1.0247,-0.9615,-0.891,-0.8338,-0.8697,-0.8349,-0.7854,-0.8037,-0.7697,-0.7072,-0.6445,-0.5869,-0.5378,-0.4948,-0.468,-0.4519,-0.4519,-0.4522,-0.4505,-0.4395,-0.4348,-0.4184,-0.384,-0.3667,-0.3642,-0.3762,-0.3711,-0.3844,-0.4311,-0.4429,-0.4519,-0.4519,-0.4519,-0.4519,-0.4519,-0.4239,-0.4026,-0.4022,-0.3792,-0.3632,-0.3581,-0.3679,-0.3566,-0.3155,-0.3243,-0.2786,0.0,0.0,0.0,0.0,0.0,0.0,0.0,0.0,0.0,0.0,0.0,0.0,0.0,0.0,0.0,0.0,0.0,0.0,0.0,0.0,0.0,0.0,0.0,0.0,0.0,0.0,0.1874,0.0384,-0.0991,-0.1568,-0.1038,-0.2225,-0.3182,-0.3437,-0.4203,-0.4704,-0.4908,-0.5336,-0.5779,-0.614,-0.6628,-0.7446,-0.8679,-0.8694,-0.9254,-1.0253,-1.0299,-1.0408,-1.0624,-1.0624,-1.0624,-1.0624,-1.0863,-1.0871,-1.0737,-1.1564,-1.1901,-1.1962,-1.1728,-1.1975,-1.2419,-1.2078,-1.2236,-1.2448,-1.0956,-1.0736,-1.0918,-0.9728,-0.9259,-0.9105,-0.9105,-0.9105,-0.8989,-0.8483,-0.8142,-0.7575,-0.6358,-0.5753,-0.5324,-0.468,-0.4519,-0.4519,-0.4519,-0.4519,-0.4519,-0.4519,-0.4525,-0.4522,-0.4483,-0.4369,-0.4343,-0.4469,-0.4372,-0.4358,-0.4512,-0.4519,-0.4519,-0.4519,-0.4519,-0.4519,-0.4519,-0.4236,-0.4023,-0.4022,-0.3788,-0.3715,-0.388,-0.3802,-0.3798,-0.3859,-0.4034,-0.3939,-0.3542,0.0,0.0,0.0,0.0,0.0,0.0,0.0,0.0,0.0,0.0,0.0,0.0,0.0,0.0,0.0,0.0,0.0,0.0,0.0,0.0,0.0,0.0,0.0,0.1893,0.0931,0.07,0.1514,-0.1991,-0.3834,-0.2293,-0.3736,-0.4809,-0.4925,-0.4925,-0.4928,-0.4935,-0.4935,-0.5363,-0.6387,-0.6396,-0.737,-0.9274,-0.9291,-0.974,-1.0624,-1.0624,-1.0624,-1.0624,-1.0624,-1.0624,-1.0681,-1.1469,-1.1826,-1.1896,-1.2696,-1.3485,-1.4132,-1.3421,-1.3177,-1.3241,-1.3892,-1.4063,-1.3838,-1.2436,-1.1919,-1.1696,-1.0257,-0.9744,-0.9737,-0.9737,-0.9744,-0.9686,-0.9686,-0.901,-0.8066,-0.7316,-0.6304,-0.5386,-0.468,-0.4519,-0.4519,-0.4519,-0.4519,-0.4519,-0.4519,-0.4519,-0.4519,-0.4519,-0.4519,-0.4522,-0.4477,-0.4525,0.0,-0.4477,-0.4525,-0.4519,-0.4519,-0.4519,-0.4519,-0.4519,-0.4328,-0.4127,-0.4029,-0.3873,-0.3989,-0.4395,-0.3718,-0.3596,-0.408,-0.4327,-0.4754,-0.5325,0.0,0.0,0.0,0.0,0.0,0.0,0.0,0.0,0.0,0.0,0.0,0.0,0.0,0.0,0.0,0.0,0.0,0.0,0.0,0.0,0.0,0.0,0.3659,0.0287,-0.0,-0.0586,-0.2523,-0.3005,-0.3128,-0.2985,-0.4134,-0.4904,-0.5064,-0.5074,-0.5121,-0.5233,-0.524,-0.5704,-0.6578,-0.6642,-0.751,-0.9274,-0.928,-0.9728,-1.0624,-1.0624,-1.0624,-1.0624,-1.0624,-1.0912,-1.148,-1.1695,-1.2143,-1.2757,-1.3545,-1.4025,-1.4186,-1.397,-1.4237,-1.4706,-1.4294,-1.3821,-1.3236,-1.2822,-1.2589,-1.2315,-1.1919,-1.1226,-1.0572,-1.0572,-1.0186,-0.9686,-0.9686,-0.9504,-0.8927,-0.7472,-0.6869,-0.6276,-0.4816,-0.4519,-0.4519,-0.4519,-0.4519,-0.4519,-0.4519,-0.4519,-0.4519,-0.4519,-0.4519,-0.4519,-0.4522,-0.4519,0.0,-0.4522,-0.4519,-0.4522,-0.4473,-0.4522,-0.4522,-0.4473,-0.4233,-0.4016,-0.4022,-0.3778,-0.388,-0.4391,-0.4424,-0.5016,-0.6156,-0.58,-0.6554,0.0,0.0,0.0,0.0,0.0,0.0,0.0,0.0,0.0,0.0,0.0,0.0,0.0,0.0,0.0,0.0,0.0,0.0,0.0,0.0,0.0,0.0,0.3906,0.3962,-0.0,-0.1328,-0.261,-0.4618,-0.4137,-0.3755,-0.4128,-0.4753,-0.5145,-0.522,-0.5226,-0.5267,-0.5422,-0.5752,-0.6334,-0.7242,-0.7567,-0.8479,-0.9849,-0.9849,-1.011,-1.0624,-1.0624,-1.0624,-1.0624,-1.0624,-1.085,-1.1315,-1.164,-1.2266,-1.307,-1.3855,-1.4392,0.0,0.0,0.0,0.0,0.0,-1.4392,-1.3965,-1.3606,-1.3408,-1.3227,-1.2881,-1.2075,-1.1263,-1.1263,-1.0744,-1.0053,-1.0053,-0.996,-0.9459,-0.7811,-0.7295,-0.6784,-0.5074,-0.4653,-0.4636,-0.4572,-0.4558,-0.4538,-0.4529,-0.4519,0.0,-0.4519,-0.4519,-0.4519,-0.4525,-0.4522,-0.4519,-0.4525,-0.4522,-0.4519,-0.4525,-0.4522,-0.4522,-0.4525,-0.4253,0.0,0.0,0.0,-0.4357,-0.4988,-0.5473,0.0,0.0,0.0,0.0,0.0,0.0,0.0,0.0,-1.0038,-0.9655,0.0,0.0,0.0,0.0,0.0,0.0,0.0,0.0,0.0,0.0,0.0,0.0,0.0,0.0,0.0,0.0,0.3996,0.3614,0.0429,-0.2301,-0.4354,-0.5236,-0.5108,-0.5051,-0.5375,-0.5432,-0.5379,-0.5452,-0.5456,-0.5463,-0.541,0.0,0.0,0.0,0.0,-0.9814,-1.0655,-1.0719,-1.0719,-1.0719,-1.0658,-1.0631,-1.0631,-1.0624,-1.0631,-1.0764,-1.16,-1.2389,-1.3191,-1.4025,-1.4746,-1.541,-1.541,-1.541,-1.541,-1.541,-1.541,-1.5294,-1.4569,0.0,0.0,-1.3485,-1.2634,-1.1958,-1.1958,-1.1351,-1.0744,-1.0624,-1.0374,-0.9781,-0.8247,-0.7593,-0.6962,-0.54,-0.4979,-0.4877,-0.4724,-0.4691,-0.4646,-0.4546,-0.4519,-0.4519,-0.4519,-0.4519,-0.4522,-0.4477,-0.4525,-0.4522,-0.4477,-0.4525,-0.4519,-0.4519,0.0,0.0,-0.4519,-0.4331,-0.4246,-0.4299,-0.48,-0.5395,-0.6106,-0.6814,-0.727,-0.7512,-0.8737,-0.9904,-1.0887,-1.2163,-1.3008,-1.3404,-1.0676,-1.0154,0.0,0.0,0.0,0.0,0.0,0.0,0.0,0.0,0.0,0.0,0.0,0.0,0.0,0.0,0.0,0.6041,0.327,0.0799,0.0127,-0.0509,-0.1907,-0.4683,-0.5159,-0.5345,-0.5391,-0.5418,-0.5416,-0.5538,-0.5545,-0.5596,-0.5708,-0.6616,-0.759,-0.8428,-0.9468,-1.0368,-1.1256,-1.1263,-1.1263,-1.1249,0.0,0.0,-1.0918,-1.0701,-1.0918,-1.1621,-1.2444,-1.3243,-1.4025,-1.4815,-1.5235,-1.541,-1.541,-1.541,-1.541,-1.541,-1.541,-1.5352,-1.5235,-1.4746,-1.4273,-1.4805,-1.3965,-1.2765,-1.2765,-1.2205,0.0,-1.0807,-1.0521,-1.0227,-0.9045,-0.8209,-0.7328,-0.6198,-0.5393,-0.4877,-0.4724,-0.4691,-0.4646,-0.4546,-0.4519,-0.4519,-0.4519,-0.4519,-0.4519,-0.4522,-0.4519,-0.4519,-0.4522,-0.4519,-0.4522,-0.4473,-0.4522,-0.4522,-0.4477,-0.4334,-0.4453,-0.5072,-0.6569,-0.753,-0.7654,-0.8737,-0.956,-1.0054,-1.0832,-1.1706,-1.2685,-1.346,-1.4084,-1.4586,-1.355,-1.3238,0.0,0.0,0.0,0.0,0.0,0.0,0.0,0.0,0.0,0.0,0.0,0.5075,0.5244,0.0,0.591,0.5787,0.2537,-0.0,-0.0,-0.1582,-0.2965,-0.3685,-0.4748,-0.5373,-0.5432,-0.5433,-0.5508,-0.5586,-0.5654,-0.5728,-0.5796,-0.7141,-0.8131,-0.8554,-1.0025,-1.0942,-1.1423,-1.1423,-1.1423,-1.1423,-1.1283,-1.1207,-1.1213,-1.1077,-1.15,-1.2379,-1.253,-1.3327,-1.4614,-1.5145,-1.541,-1.541,-1.541,-1.541,-1.541,-1.541,-1.541,-1.541,-1.541,-1.5108,-1.4874,-1.5294,-1.4569,-1.3554,-1.313,-1.2451,-1.1648,-1.0807,-1.0624,-1.0395,-0.9424,-0.8817,-0.8143,-0.6773,-0.6132,-0.5653,-0.5003,-0.4911,-0.4843,-0.4619,-0.4575,-0.4551,-0.4532,-0.4519,-0.4519,-0.4519,-0.4519,-0.4519,-0.4519,-0.4519,-0.4519,-0.4525,-0.4522,-0.4519,-0.4525,-0.4721,-0.5267,-0.6262,-0.7195,-0.8078,-0.8851,-0.9495,-1.0365,-1.162,-1.216,-1.2986,-1.4092,-1.4639,-1.5312,-1.6111,-1.5833,-1.554,0.0,0.0,0.0,0.0,0.0,0.0,0.0,0.0,0.5331,0.511,0.5275,0.543,0.5377,0.5999,0.5896,0.3918,0.1557,-0.0,-0.0,-0.31,-0.4858,-0.342,-0.4503,-0.5382,-0.5428,-0.5501,-0.5599,-0.563,-0.5766,-0.5861,-0.5891,-0.7542,-0.8541,-0.8755,-1.0178,-1.1172,-1.1597,-1.1381,-1.1381,-1.1597,-1.152,-1.1506,-1.1507,-1.1458,-1.197,-1.2884,-1.2837,-1.3763,-1.5281,-1.5571,-1.5615,-1.5537,-1.5703,-1.5605,-1.541,-1.541,-1.541,-1.541,-1.541,-1.5294,-1.5177,-1.5177,-1.4628,-1.3846,-1.3,-1.2328,-1.1648,-1.0807,-1.0624,-1.0428,-0.9722,-0.9402,-0.8941,-0.7567,-0.6915,-0.6473,-0.5541,-0.5191,-0.5043,-0.4748,-0.4691,-0.4643,-0.4543,-0.4519,-0.4519,-0.4519,-0.4519,-0.4519,-0.4519,-0.4519,-0.4519,-0.4519,-0.4625,-0.4732,-0.4901,-0.5546,-0.6338,-0.7327,-0.7764,-0.8545,-0.9861,-1.0309,-1.1211,-1.271,-1.3341,-1.4124,-1.5109,-1.5624,-1.6319,-1.7146,-1.7146,-1.698,0.8713,0.7757,0.0,0.715,0.668,0.6096,0.0,0.0,0.5082,0.4855,0.4879,0.485,0.4674,0.4731,0.3855,0.0967,0.0198,-0.0,-0.0,-0.31,-0.5339,-0.5122,-0.5249,-0.5376,-0.5428,-0.5501,-0.5644,-0.5769,-0.5918,-0.6064,-0.6203,-0.7267,-0.8321,-0.9225,-0.9445,-1.0416,-1.2204,-1.1298,-1.1304,-1.2204,-1.1959,-1.184,-1.186,-1.1522,-1.1952,-1.298,-1.4454,-1.5652,-1.6524,-1.6539,-1.6348,-1.6107,-1.6755,-1.6333,-1.541,-1.541,-1.541,-1.541,-1.541,-1.4932,-1.4323,-1.4323,-1.3795,-1.3009,-1.2205,-1.1896,-1.1648,-1.0807,-1.0624,-1.0561,-1.0498,-0.9849,-0.9274,-0.9075,-0.7832,-0.6603,-0.6299,-0.5631,-0.5043,-0.4748,-0.4691,-0.4643,-0.4543,-0.4519,-0.4519,-0.4519,-0.4519,-0.4519,-0.4519,-0.4519,-0.4519,-0.4519,-0.5058,-0.5655,-0.6317,-0.7015,-0.7492,-0.7629,-0.9372,-1.0479,-1.0647,-1.2397,-1.3424,-1.3668,-1.4744,-1.5389,-1.5548,-1.6096,-1.6459,-1.6595,-1.6595,-1.6799,0.8492,0.0,0.0,0.0,0.687,0.6528,0.6022,0.5764,0.549,0.5064,0.4102,0.3301,0.3427,0.2623,0.1456,0.0,-0.0,-0.0,-0.0,-0.2217,-0.4236,-0.5259,-0.5379,-0.5432,-0.5428,-0.5501,-0.5647,-0.5789,-0.5942,-0.6098,-0.6251,-0.7253,-0.8012,-0.8389,-0.8993,-0.997,-1.1391,-1.1013,-1.1316,-1.2305,-1.2218,-1.2137,-1.2137,-1.2553,-1.3433,-1.4746,-1.6069,-1.6622,-1.6665,-1.6665,-1.6621,-1.6507,-1.7348,-1.6879,-1.5821,-1.5964,-1.5758,-1.541,-1.541,-1.5167,-1.4874,-1.4874,-1.4323,-1.3545,-1.2757,-1.2143,-1.1648,-1.0807,-1.0624,-1.0624,-1.0624,-1.0301,-0.9919,-0.9402,-0.8748,-0.7936,-0.6814,-0.6282,-0.5803,-0.4998,-0.4823,-0.4748,-0.456,-0.4519,-0.4519,-0.4519,-0.4519,-0.4519,-0.4519,-0.4519,-0.4625,-0.5058,-0.571,-0.6416,-0.7182,-0.7509,-0.8037,-0.8869,-0.9747,-1.0568,-1.1366,-1.258,-1.3558,-1.4329,-1.5174,-1.5764,-1.6139,-1.638,-1.668,-1.6951,-1.7312,-1.7544,0.8373,0.0,0.0,0.7028,0.6822,0.6666,0.5945,0.5801,0.5685,0.5304,0.4032,0.2879,0.2067,0.0873,-0.0,-0.0,-0.0,-0.034,-0.1349,-0.2162,-0.3379,-0.5189,-0.5372,-0.5428,-0.5428,-0.5501,-0.5647,-0.5789,-0.5942,-0.6098,-0.6251,-0.7022,-0.748,-0.7783,-0.8237,-0.9216,-1.0783,-1.0484,-1.1019,-1.2305,-1.2305,-1.2305,-1.2372,-1.3542,-1.4863,-1.6122,-1.7168,-1.7373,-1.709,-1.709,-1.7021,-1.6968,-1.8061,-1.7595,-1.6314,-1.6848,-1.6368,-1.541,-1.541,-1.541,-1.5352,-1.5108,-1.4688,-1.4025,-1.3,-1.2266,-1.1648,-1.0807,-1.0624,-1.0624,-1.0624,-1.0624,-1.0428,-0.9786,-0.9466,-0.8941,-0.7697,-0.7242,-0.6754,-0.5883,-0.5422,-0.5184,-0.496,-0.4816,-0.4787,-0.4787,-0.4952,-0.5007,-0.4787,-0.4952,-0.5332,-0.6032,-0.6583,-0.7182,-0.7937,-0.8196,-0.8718,-0.9762,-1.0167,-1.0864,-1.2052,-1.287,-1.382,-1.4926,-1.5543,-1.6139,-1.671,-1.671,-1.6993,-1.7544,-1.7907,-1.8185,0.0,0.0,0.7689,0.6653,0.6322,0.6057,0.5311,0.5305,0.5418,0.5369,0.5312,0.4231,0.0736,0.0067,-0.0,-0.0,-0.0,-0.125,-0.4748,-0.3783,-0.3382,-0.5192,-0.5369,-0.5428,0.0,-0.5501,-0.5647,-0.5789,-0.5942,-0.6098,-0.6251,-0.6338,-0.6795,-0.7783,-0.6868,-0.7778,-1.0783,-0.982,-1.0351,-1.2305,-1.2305,-1.2305,-1.2365,-1.4268,-1.5676,-1.6615,-1.7552,-1.7978,-1.7969,-1.7969,-1.7734,-1.755,-1.9154,-1.85,-1.6839,-1.7969,-1.7148,-1.541,-1.541,-1.541,-1.5284,-1.451,-1.4213,-1.3906,-1.232,-1.1834,-1.1648,-1.0807,-1.0624,-1.0624,-1.0624,-1.0624,-1.0561,-1.0561,-0.9913,-0.9274,-0.921,-0.8549,-0.7891,-0.7653,-0.6829,-0.61,-0.5957,-0.566,-0.5487,-0.5487,-0.6091,-0.6258,-0.5542,-0.6095,-0.6804,-0.7563,-0.767,-0.7943,-0.8699,-0.9361,-0.9762,-0.9814,-1.1015,-1.2052,-1.2725,-1.3982,-1.4926,-1.5543,-1.6194,-1.6752,-1.7271,-1.7271,-1.7544,-1.8066,-1.8106,-1.838,0.0,0.0,0.6581,0.5907,0.5713,0.5632,0.548,0.5396,0.5401,0.538,0.5298,0.481,0.3505,0.1459,-0.0,-0.0,-0.0,-0.1293,-0.4873,-0.505,-0.4886,-0.5343,-0.5457,0.0,0.0,0.0,0.0,-0.5783,-0.5847,-0.5989,-0.6247,-0.6338,-0.649,-0.6795,-0.649,-0.7096,-0.8761,-0.9145,-0.997,-1.1316,-1.1996,-1.2977,-1.4235,-1.4915,-1.6061,-1.7561,-1.7842,-1.8008,-1.8008,-1.8008,-1.8247,-1.875,-1.9898,-1.9349,-1.8049,-1.905,-1.8094,-1.6201,-1.5615,-1.541,-1.5352,-1.505,-1.4628,-1.4025,-1.294,-1.2205,-1.1648,-1.0807,-1.0624,-1.0624,-1.0624,-1.0624,-1.0624,-1.0624,-1.0364,-0.9977,-0.9402,-0.9075,-0.8606,-0.785,-0.7434,-0.7089,-0.6802,-0.6624,-0.6471,-0.6277,-0.6421,-0.6534,-0.6258,-0.6853,-0.7402,-0.767,-0.856,-0.919,-0.9458,-1.0064,-1.0661,-1.1116,-1.1566,-1.2297,-1.3416,-1.4272,-1.4971,-1.5588,-1.6557,-1.7105,-1.7312,-1.7666,-1.7907,-1.8106,-1.8458,-1.8727,0.0,0.6532,0.6237,0.5681,0.5481,0.5467,0.5566,0.5426,0.5322,0.5364,0.4911,0.46,0.4975,0.3147,0.1244,0.0192,-0.0,-0.1093,-0.417,-0.5306,-0.5758,-0.5562,-0.561,-0.5627,0.0,0.0,0.0,-0.5786,-0.585,-0.5993,-0.6247,-0.6338,-0.6338,-0.6338,-0.6644,-0.7326,-0.8313,-0.9367,-1.0346,-1.1316,-1.1996,-1.333,-1.5178,-1.5194,-1.6233,-1.8008,-1.8008,-1.8008,-1.8008,-1.8337,-1.8787,-1.9431,-2.059,-2.0145,-1.8955,-1.9658,-1.8669,-1.6836,-1.5947,-1.5644,-1.5615,-1.5459,-1.505,-1.451,-1.3666,-1.2879,-1.2081,-1.1233,-1.0807,-1.0624,-1.0624,-1.0624,-1.0624,-1.0624,-1.0624,-1.0434,-0.9913,-0.9786,-0.9539,-0.8845,-0.8426,-0.8082,-0.7848,-0.7594,-0.746,-0.7382,-0.7402,-0.7289,-0.702,-0.7616,-0.8103,-0.8103,-0.9145,-0.9814,-0.9814,-1.061,-1.1366,-1.1765,-1.203,-1.2754,-1.405,-1.4468,-1.5107,-1.5908,-1.6642,-1.7188,-1.7585,-1.7947,-1.8302,-1.8688,-1.9043,-1.9207,0.669,0.6538,0.6525,0.5919,0.5701,0.5589,0.5589,0.5352,0.5128,0.5315,0.4309,0.3793,0.0,0.0,0.3349,0.0446,-0.0067,-0.0838,-0.2933,-0.4694,-0.5783,0.0,0.0,0.0,0.0,0.0,0.0,-0.5813,0.0,-0.6098,-0.6251,-0.6338,-0.6338,-0.6338,-0.7249,-0.8237,-0.9221,-1.0265,-1.1316,-1.2305,-1.2305,-1.331,-1.5092,-1.5171,-1.6174,-1.794,-1.8008,-1.8008,-1.8076,-1.8911,-1.9299,-1.9562,-2.1175,-2.0846,-1.9444,-1.9813,-1.8903,-1.7295,-1.6426,-1.6164,-1.6056,-1.5576,-1.543,-1.5235,-1.4451,-1.3666,-1.2826,-1.202,-1.1226,-1.0624,-1.0624,-1.0624,-1.0624,-1.0624,-1.0624,-1.0624,-1.0624,-1.0624,-1.0624,-1.0624,-0.9743,-0.9058,-0.9058,-0.8633,-0.838,-0.8765,-0.8831,-0.8553,-0.7836,-0.8374,-0.8804,-0.8804,-0.9413,-0.9865,-0.9865,-1.1065,-1.1864,-1.1864,-1.255,-1.3478,-1.4663,-1.4744,-1.5299,-1.6479,-1.6522,-1.7076,-1.8106,-1.8145,-1.8688,-1.969,-1.969,-1.969,0.6502,0.6222,0.5994,0.5932,0.5779,0.5589,0.5589,0.5352,0.504,0.4776,0.4562,0.4383,0.4389,0.0,0.0,-0.0115,-0.1246,0.0,-0.4732,-0.557,0.0,0.0,0.0,-0.5925,-0.5813,-0.5905,0.0,0.0,-0.6006,-0.6098,-0.6251,-0.6338,-0.6338,-0.6338,-0.7249,-0.7936,-0.8161,-0.9911,-1.1267,-1.2305,-1.2305,-1.2928,-1.4099,-1.4866,-1.585,-1.7014,-1.7686,-1.8008,-1.8008,-1.8269,-1.911,-2.0333,-2.0782,-2.0655,-2.0257,-2.0381,-1.9316,-1.7773,-1.7236,-1.6611,-1.6105,-1.5928,-1.5674,-1.5235,-1.4451,-1.3666,-1.2826,-1.202,-1.1226,-1.0624,-1.0624,-1.0624,-1.0624,-1.0624,-1.0624,-1.0624,-1.0624,-1.0624,-1.0624,-1.0624,-1.019,-0.9803,-0.9803,-0.9512,-0.9295,-0.9117,-0.907,-0.8943,-0.8566,-0.8699,-0.8804,-0.8804,-0.9865,-1.0568,-1.0568,-1.1841,-1.2608,-1.2608,-1.3228,-1.392,-1.4652,-1.5141,-1.5732,-1.6479,-1.6879,-1.7422,-1.8106,-1.8496,-1.9043,-1.969,-1.969,-1.969,0.6302,0.6108,0.6006,0.6023,0.5854,0.563,0.5433,0.5155,0.4813,0.4429,0.4389,0.0,0.2503,0.0,0.0,0.0,0.0,0.0,-0.5497,-0.5861,-0.6037,0.0,-0.6078,0.0,-0.601,-0.6081,-0.6132,0.0,-0.6132,-0.6169,-0.6254,-0.6338,-0.6338,-0.6338,-0.7249,-0.8241,-0.9079,-1.0669,-1.1719,-1.2305,-1.2305,-1.2802,-1.3726,-1.4308,-1.5261,-1.663,0.0,-1.7647,-1.8076,-1.8854,-1.9694,-2.0655,-2.1416,-2.1227,-2.059,-2.059,-1.9497,-1.7978,-1.7744,-1.7207,-1.6611,-1.6416,-1.6064,-1.5634,-1.5147,-1.4348,-1.3364,-1.2573,-1.1779,-1.1045,-1.0681,-1.0624,-1.0624,-1.0624,-1.0624,-1.0624,-1.0624,-1.0624,-1.0624,-1.0624,-1.0428,-1.0267,-1.014,-0.998,-0.9726,-0.925,-0.9183,-0.9084,-0.8844,-0.8804,-0.891,-0.9211,-1.0167,-1.0914,-1.1216,-1.2255,-1.3017,-1.3286,-1.36,-1.419,-1.505,-1.541,-1.5864,-1.6479,-1.7034,-1.7544,-1.8106,-1.865,-1.9169,-1.969,-1.969,-1.969,0.6099,0.6142,0.6224,0.6067,0.5898,0.5654,0.5206,0.4857,0.4563,0.4174,0.0,0.0,0.0892,0.0,-0.109,-0.4026,0.0,-0.5338,-0.56,-0.5813,-0.6047,-0.621,-0.6247,-0.6338,-0.6338,-0.6338,-0.6338,-0.6338,-0.6338,-0.6338,-0.6338,-0.6338,-0.6338,-0.649,-0.748,-0.8927,-1.0743,-1.1781,-1.2305,-1.2305,-1.2305,-1.2721,-1.3557,-1.3608,-1.4688,-1.6419,-1.6567,-1.7139,-1.8144,-1.9628,-2.0333,-2.059,-2.2051,-2.1729,-2.0398,-2.0398,-1.9388,-1.7939,-1.7988,-1.7734,-1.7314,-1.6943,-1.6475,-1.6125,-1.6125,-1.5204,-1.4025,-1.3252,-1.2451,-1.1586,-1.0807,-1.0624,-1.0624,-1.0624,-1.0624,-1.0624,-1.0624,-1.0624,-1.0624,-1.0624,-1.0624,-1.0481,-1.0221,-1.0174,-0.9973,-0.9329,-0.9243,-0.9178,-0.895,-0.8956,-0.9159,-0.971,-1.0466,-1.1166,-1.1765,-1.255,-1.3238,-1.3779,-1.3956,-1.4503,-1.5543,-1.5676,-1.5996,-1.6595,-1.7076,-1.7585,-1.8224,-1.865,-1.9169,-1.969,-1.969,-1.969,0.5983,0.6142,0.6224,0.6067,0.5827,0.5508,0.5057,0.4569,0.0,0.0,0.0,0.3344,0.3017,0.0952,0.0,-0.4093,0.0,0.0,0.0,0.0,-0.5769,0.0,0.0,0.0,0.0,0.0,0.0,0.0,0.0,-0.6338,-0.6338,-0.6338,-0.6718,-0.748,-0.8489,-0.9599,-1.0775,-1.181,-1.2305,-1.2305,-1.2305,-1.2385,-1.2546,-1.3346,-1.4331,-1.5517,-1.628,0.0,-1.8008,-1.8337,-1.8844,-1.9562,-1.9879,-1.9748,-1.9562,-1.9562,-1.8685,-1.7539,-1.7891,-1.7734,-1.7373,-1.7295,-1.6719,-1.6125,-1.6125,-1.5204,-1.4025,-1.3252,-1.2451,-1.1586,-1.0807,-1.0624,-1.0624,-1.0624,-1.0624,-1.0624,-1.0624,-1.0624,-1.0624,-1.0624,-1.0624,-1.0611,-1.0494,-1.0481,-1.0287,-0.9693,-0.9606,-0.9631,-0.9635,-0.9614,-0.9658,-0.9762,-1.0914,-1.1665,-1.1814,-1.2948,-1.3684,-1.3779,-1.4721,-1.5365,-1.5588,-1.6095,-1.6625,-1.7146,-1.7229,-1.7787,-1.8765,-1.8855,-1.9169,-1.969,-1.969,-1.969,0.6599,0.6453,0.6252,0.6602,0.6168,0.543,0.4819,0.0,0.0,0.0,0.0,0.3174,0.3147,0.0,0.0,0.0,0.0,0.0,0.0,0.0,0.0,0.0,0.0,0.0,0.0,0.0,0.0,0.0,0.0,-0.6338,-0.6338,-0.6338,-0.649,-0.7022,-0.8008,-0.9008,-1.003,-1.1001,-1.1803,-1.2305,-1.2305,-1.2305,-1.2298,-1.3288,-1.4219,-1.5234,-1.621,-1.7139,-1.8008,-1.8462,-1.8911,-1.9365,-1.9814,-1.9683,-1.9299,-1.9299,-1.8512,-1.7412,-1.7607,-1.7402,-1.7051,-1.7051,-1.6758,-1.6367,-1.6133,-1.5513,-1.4688,-1.3846,-1.3061,-1.2266,-1.1406,-1.0926,-1.0624,-1.0624,-1.0624,-1.0624,-1.0624,-1.0624,-1.0624,-1.0624,-1.0624,-1.0624,-1.0624,-1.0624,-1.0414,-0.9973,-0.9907,-0.9918,-1.005,-1.0377,-1.0673,-1.0838,-1.1416,-1.2101,-1.2793,-1.3426,-1.405,-1.4675,-1.5264,-1.5732,-1.6051,-1.6337,-1.6752,-1.7312,-1.7585,-1.8106,-1.8893,-1.9169,-1.9442,-1.969,-1.969,-1.969,0.7081,0.6857,0.6379,0.7057,0.6513,0.557,0.4676,0.4185,0.0,0.0,0.0,0.2931,0.2743,0.0,0.0,0.0,0.0,0.0,0.0,0.0,0.0,0.0,0.0,0.0,0.0,0.0,0.0,0.0,0.0,-0.6338,-0.6338,-0.6338,-0.6338,-0.6338,-0.7242,-0.82,-0.8937,-1.0179,-1.1236,-1.2009,-1.2231,-1.2305,-1.2305,-1.3098,-1.4027,-1.5234,-1.6,-1.6932,-1.8076,-1.8721,-1.9044,-1.911,-1.9759,-1.9628,-1.9044,-1.9044,-1.8253,-1.7256,-1.7353,-1.7031,-1.6592,-1.6592,-1.6592,-1.6523,-1.6172,-1.5752,-1.5167,-1.4213,-1.3494,-1.2765,-1.1779,-1.1045,-1.0624,-1.0624,-1.0624,-1.0624,-1.0624,-1.0624,-1.0624,-1.0624,-1.0624,-1.0624,-1.0624,-1.0624,-1.0461,-1.016,-1.0235,-1.0439,-1.0597,-1.1274,-1.1817,-1.2145,-1.2076,-1.2463,-1.3494,-1.3826,-1.4411,-1.5365,-1.5632,-1.6008,-1.6466,-1.6522,-1.6795,-1.7463,-1.7907,-1.8419,-1.908,-1.9479,-1.969,-1.969,-1.969,-1.969,0.6792,0.7103,0.6991,0.694,0.6634,0.5976,0.4794,0.0,0.0,0.0,0.2907,0.272,0.2721,0.2606,0.0,0.0,0.0,0.0,0.0,0.0,0.0,0.0,0.0,0.0,0.0,0.0,0.0,0.0,0.0,-0.6338,-0.6338,-0.6338,-0.6338,-0.6338,-0.7293,-0.7859,-0.7949,-0.9852,-1.0873,-1.0911,-1.1861,-1.2305,-1.2305,-1.2372,-1.3448,-1.5234,-1.5305,-1.6367,0.0,-1.8076,-1.8144,-1.8144,-1.8202,-1.8202,-1.8144,-1.8144,-1.7556,-1.6855,-1.7246,-1.6826,-1.6184,-1.6184,-1.6184,-1.6184,-1.6135,-1.5752,-1.505,-1.3545,-1.307,-1.2642,-1.1115,-1.0681,-1.0624,-1.0624,-1.0624,-1.0624,-1.0624,-1.0624,-1.0624,-1.0624,-1.0624,-1.0624,-1.0624,-1.0624,-1.0461,-1.016,-1.0696,-1.132,-1.1671,-1.2468,-1.3039,-1.3333,-1.3006,-1.2871,-1.2968,-1.3978,-1.4652,-1.4789,-1.5832,-1.6423,-1.6522,-1.6522,-1.6993,-1.8027,-1.8066,-1.8612,-1.9639,-1.969,-1.969,-1.969,-1.969,-1.969,0.7309,0.7368,0.7099,0.7632,0.7111,0.6055,0.4791,0.0,0.0,0.3185,0.2886,0.27,0.2689,0.2705,0.2318,0.0,0.0684,-0.0139,0.0,0.0,0.0,0.0,0.0,0.0,0.0,0.0,0.0,0.0,-0.6264,-0.6338,-0.6338,-0.6338,-0.6338,-0.6338,-0.6662,-0.7219,-0.779,-0.9195,-1.022,-1.0842,-1.1793,-1.2305,-1.2298,-1.2879,-1.3528,-1.4378,-1.5508,-1.6498,0.0,-1.7794,-1.8008,-1.8008,-1.8008,-1.8008,-1.7978,-1.7725,-1.7256,-1.6719,-1.6621,-1.6182,-1.5674,-1.5674,-1.5674,-1.5674,-1.5674,-1.5547,-1.5177,-1.4025,-1.3364,-1.2826,-1.2212,-1.1663,-1.1226,-1.0744,-1.0624,-1.0624,-1.0624,-1.0624,-1.0624,-1.0624,-1.0624,-1.0624,-1.0624,-1.0624,-1.0521,-1.0401,-1.1102,-1.1759,-1.2175,-1.2876,-1.3525,-1.382,-1.3506,-1.3293,-1.344,-1.4201,-1.4835,-1.5231,-1.602,-1.6522,-1.6522,-1.6522,-1.6993,-1.8066,-1.8106,-1.8612,-1.969,-1.969,-1.969,-1.969,-1.969,-1.969,0.7389,0.7486,0.7209,0.7927,0.7337,0.6194,0.0,0.0,0.348,0.313,0.2856,0.2712,0.2712,0.2702,0.2615,0.0,0.199,0.1231,-0.015,0.0,0.0,0.0,0.0,0.0,0.0,0.0,0.0,0.0,-0.6271,-0.6264,-0.6338,-0.6338,-0.6338,-0.6338,-0.6338,-0.6659,-0.7382,-0.8371,-0.9336,-1.0374,-1.1409,-1.1996,-1.2298,-1.2952,-1.3455,-1.3818,-1.5155,-1.607,0.0,-1.7295,-1.7735,-1.7998,-1.7871,-1.7822,-1.7773,-1.7353,-1.6914,-1.6484,-1.6172,-1.5781,-1.541,-1.541,-1.541,-1.541,-1.541,-1.541,-1.5167,-1.4145,-1.3061,-1.2336,-1.2573,-1.202,-1.1288,-1.0744,-1.0624,-1.0624,-1.0624,-1.0624,-1.0624,-1.0624,-1.0624,-1.0624,-1.0624,-1.0807,-1.0926,-1.0926,-1.1834,-1.2599,-1.2898,-1.3625,-1.4176,-1.4311,-1.4062,-1.3899,-1.3972,-1.4417,-1.4971,-1.5543,-1.6194,-1.6522,-1.6522,-1.6522,-1.6993,-1.8066,-1.8106,-1.8612,-1.969,-1.969,-1.969,-1.969,-1.969,-1.9903,0.6827,0.7294,0.7299,0.7299,0.7196,0.6532,0.0,0.3795,0.3453,0.3005,0.2788,0.2712,0.2712,0.269,0.276,0.2972,0.332,0.2948,0.1135,0.0,0.0,0.0,0.0,0.0,0.0,0.0,0.0,0.0,-0.6278,0.0,-0.6338,-0.6338,-0.6338,-0.6338,-0.6338,-0.6338,-0.6338,-0.7302,-0.8282,-0.9296,-1.034,-1.1316,-1.2305,-1.2305,-1.2806,-1.3673,-1.3745,-1.4799,0.0,-1.6594,-1.7166,-1.7969,-1.7549,-1.7393,-1.7334,-1.6894,-1.6455,-1.6135,-1.6125,-1.5781,-1.541,-1.541,-1.541,-1.541,-1.541,-1.541,-1.505,-1.3485,-1.1849,-1.0807,-1.1593,-1.1226,-1.0624,-1.0624,-1.0624,-1.0624,-1.0624,-1.0624,-1.0624,-1.0624,-1.0624,-1.0624,-1.0624,-1.1288,-1.1772,-1.1772,-1.3174,-1.4213,-1.4204,-1.4864,-1.5244,-1.4824,-1.4775,-1.4676,-1.4414,-1.4591,-1.4971,-1.5543,-1.6194,-1.6522,-1.6522,-1.6522,-1.6993,-1.8066,-1.8106,-1.8612,-1.969,-1.969,-1.969,-1.969,-1.969,-2.036,0.5632,0.6023,0.604,0.5962,0.5878,0.5507,0.4077,0.3565,0.3283,0.2981,0.2788,0.2712,0.2712,0.2683,0.2818,0.3219,0.3327,0.0,0.0,0.0,0.0,0.0,0.0,0.0,0.0,0.0,0.0,-0.1958,-0.3281,-0.4135,-0.4139,-0.5473,-0.6338,-0.6338,-0.6338,-0.6338,-0.6338,-0.7318,-0.7927,-0.8313,-0.9965,-1.0938,-1.1316,-1.1996,-1.2445,-1.2806,-1.3455,-1.445,-1.5658,-1.6367,-1.6989,-1.7568,-1.7432,-1.7197,-1.6885,-1.6436,-1.6182,-1.6016,-1.5723,-1.5527,-1.541,-1.541,-1.541,-1.541,-1.541,-1.4991,-1.4264,-1.2626,-1.2634,-1.2757,-1.1351,-1.16,-1.1973,-1.087,-1.0624,-1.0624,-1.0624,-1.0624,-1.0624,-1.0624,-1.1045,-1.1406,-1.1406,-1.2081,-1.2634,-1.2634,-1.3545,-1.4213,-1.4213,-1.4874,-1.5361,-1.5225,-1.5437,-1.5245,-1.4474,-1.4849,-1.5232,-1.5567,-1.6194,-1.6522,-1.6522,-1.6522,-1.6993,-1.8066,-1.8106,-1.8612,-1.969,-1.969,-1.9929,-2.0393,-2.0393,-2.1191,0.0,0.5114,0.5171,0.5103,0.5076,0.4789,0.3645,0.3331,0.3139,0.2886,0.2747,0.2712,0.2712,0.2712,0.2843,0.3241,0.3314,0.0,0.0,0.0,0.0,0.0,0.0,0.0,0.0,0.0,0.0,-0.0157,-0.1174,-0.2266,-0.3054,-0.5101,-0.6285,-0.6338,-0.6338,-0.6338,-0.6338,-0.6945,-0.7403,-0.7859,-0.9437,-1.0415,-1.0858,-1.1842,-1.2305,-1.2305,-1.2952,-1.3947,0.0,-1.586,-1.6633,-1.7363,-1.7197,-1.6865,-1.6426,-1.5977,-1.582,-1.5781,-1.5508,-1.541,-1.541,-1.541,-1.541,-1.5352,-1.505,-1.4628,-1.3965,-1.2992,-1.2984,-1.2931,-1.1413,-1.1538,-1.1849,-1.087,-1.0624,-1.0624,-1.0624,-1.0624,-1.0688,-1.0982,-1.1469,-1.1896,-1.2205,-1.294,-1.3425,-1.3425,-1.4145,-1.4628,-1.4628,-1.5108,-1.541,-1.541,-1.5828,-1.5891,-1.5335,-1.5758,-1.6208,-1.6551,-1.6913,-1.7149,-1.7149,-1.7149,-1.7565,-1.8424,-1.8659,-1.9188,-2.0091,-2.031,-2.0662,-2.1081,-2.1081,-2.1956,0.0,0.4573,0.4539,0.4539,0.4552,0.4291,0.331,0.3096,0.0,0.274,0.2712,0.2719,0.271,0.2737,0.2805,0.313,0.0,0.0,0.0,0.0,0.0,0.0,0.0,0.0,0.0,0.0,-0.4245,-0.0314,-0.0,-0.0864,-0.2755,-0.4739,-0.5999,-0.6268,-0.6264,-0.6338,-0.6338,-0.6338,-0.6795,-0.7706,-0.877,-0.982,-1.0714,-1.1842,-1.2305,0.0,-1.2305,-1.3375,-1.5092,-1.5163,-1.6007,-1.7268,-1.687,-1.6484,-1.6076,-1.5605,-1.5439,-1.541,-1.541,-1.541,-1.541,-1.541,-1.541,-1.5235,-1.451,-1.4273,-1.4273,-1.4154,-1.3105,-1.2012,-1.1896,-1.1351,-1.087,-1.0807,-1.0744,-1.0744,-1.0744,-1.0744,-1.0989,-1.171,-1.195,-1.2197,-1.2948,-1.3726,-1.4273,-1.4273,-1.4932,-1.541,-1.541,-1.541,-1.541,-1.541,-1.6093,-1.6639,-1.6835,-1.7175,-1.7569,-1.8157,-1.8204,-1.8204,-1.8204,-1.8204,-1.8474,-1.8989,-1.9609,-2.0203,-2.0765,-2.141,-2.1724,-2.1769,-2.1769,-2.2686,0.2867,0.0,0.3175,0.3175,0.3235,0.3235,0.0,0.2873,0.2907,0.0,0.0,0.2751,0.2978,0.2927,0.3066,0.0,0.0,0.0,0.0,0.0,0.0,0.0,0.0,0.0,0.0,0.0,-0.1099,-0.0079,-0.0,-0.0236,-0.0707,-0.1178,-0.2987,-0.6165,-0.6291,-0.6271,-0.6338,-0.6338,-0.6416,-0.6641,-0.8466,-0.9448,-0.9744,-1.1471,-1.2305,-1.2305,-1.2305,-1.2952,-1.4099,-1.4879,-1.5644,-1.6315,-1.6985,-1.6758,-1.6115,-1.5947,-1.5693,-1.541,-1.541,-1.541,-1.541,-1.541,-1.541,-1.5352,-1.5167,-1.5108,-1.4874,-1.3614,-1.3906,-1.4255,-1.3061,-1.3061,-1.3183,-1.2581,-1.2458,-1.2458,-1.2458,-1.2458,-1.252,-1.2704,-1.3235,-1.3717,-1.3906,-1.4569,-1.5108,-1.5108,-1.5294,-1.541,-1.541,-1.541,-1.541,-1.541,-1.6574,-1.7368,-1.741,-1.7636,-1.7908,-1.8182,-1.8204,-1.8204,-1.8204,-1.8204,-1.8474,-1.8989,-2.0002,-2.0835,-2.1465,-2.16,-2.1949,-2.2443,-2.2443,-2.3354,0.2239,0.251,0.2801,0.2866,0.2944,0.2985,0.29,0.0,0.0,0.0,0.0,0.0,0.2981,0.0,0.0,0.0,0.0,0.0,0.0,0.0,0.0,0.0,0.0,0.0,0.0,0.0,-0.0,-0.0,-0.0,-0.0,-0.0,-0.0,-0.102,-0.3301,-0.4309,-0.5321,-0.6268,-0.6264,-0.6338,-0.6338,-0.8313,-0.9296,-0.9372,-1.1403,-1.2305,-1.2305,-1.2305,-1.2806,-1.3818,-1.4807,-1.5497,-1.5972,-1.7025,-1.6963,-1.6348,-1.6143,-1.5918,-1.5684,-1.5478,-1.541,-1.541,-1.541,-1.541,-1.541,-1.541,-1.541,-1.5108,-1.3906,-1.4213,-1.4569,-1.3312,-1.3312,-1.3545,-1.313,-1.3009,-1.3009,-1.3009,-1.3009,-1.313,-1.3485,-1.3906,-1.4332,-1.4688,-1.5108,-1.541,-1.541,-1.541,-1.541,-1.541,-1.541,-1.541,-1.541,-1.6415,-1.7246,-1.7578,-1.8031,-1.8449,-1.8908,-1.8932,-1.8932,-1.8932,-1.8932,-1.9226,-1.9824,-2.0698,-2.1469,-2.2186,-2.2438,-2.2757,-2.3101,-2.3101,-2.3861,0.2052,0.2517,0.2961,0.3035,0.3065,0.3108,0.3088,0.0,0.0,0.0,0.0,0.0,0.0,0.0,0.0,0.0,0.0,0.0,0.0,0.0,0.0,0.0,0.0,0.0,0.0,-0.0,-0.0,-0.0,-0.0,-0.0,-0.0,-0.0,-0.0,-0.0,-0.2031,-0.4146,-0.6281,-0.6268,-0.6338,-0.6338,-0.8161,-0.9145,-0.9372,-1.1248,-1.215,-1.2305,-1.2305,0.0,-1.3528,-1.4522,-1.5183,-1.5648,-1.6845,-1.6871,-1.6376,-1.6205,-1.6052,-1.5814,-1.5498,-1.541,-1.541,-1.541,-1.541,-1.541,-1.541,-1.541,-1.5235,-1.4569,-1.4392,-1.4213,-1.3545,-1.3373,-1.3373,-1.3373,-1.3373,-1.3373,-1.3373,-1.3373,-1.3554,-1.4264,-1.4392,-1.4628,-1.5294,-1.541,-1.541,-1.541,-1.541,-1.541,-1.541,-1.541,-1.541,-1.541,-1.6036,-1.681,-1.7523,-1.8286,-1.898,-1.9747,-1.9798,-1.9798,-1.9798,-1.9798,-2.0105,-2.0795,-2.1293,-2.196,-2.2694,-2.3187,-2.3508,-2.3595,-2.3666,-2.4266,0.2462,0.2829,0.3032,0.2805,0.3035,0.3239,0.0,0.0,0.0,0.0,0.0,0.0,0.0,0.0,0.0,0.0,0.0,0.0,0.0,0.0,0.0,0.0,0.0,0.0,-0.0,-0.0,-0.0,-0.0,-0.0,-0.0,-0.0,-0.0,-0.0,-0.0,-0.2038,-0.416,-0.6291,-0.6271,-0.6338,-0.6338,-0.748,-0.8466,-0.9372,-1.049,-1.1465,-1.2305,0.0,-1.2372,-1.2592,-1.3528,-1.3996,-1.4229,-1.5983,-1.5961,-1.4967,-1.6185,-1.5879,-1.4939,-1.5321,-1.541,-1.541,-1.541,-1.541,-1.541,-1.541,-1.541,-1.5352,-1.5225,-1.5235,-1.5177,-1.505,-1.505,-1.505,-1.505,-1.505,-1.505,-1.505,-1.505,-1.505,-1.5167,-1.5235,-1.5235,-1.5352,-1.541,-1.541,-1.541,-1.541,-1.541,-1.541,-1.541,-1.541,-1.541,-1.6036,-1.681,-1.7523,-1.8286,-1.898,-1.9747,-1.9798,-1.9798,-1.9798,-1.9798,-2.0105,-2.0795,-2.0894,-2.1513,-2.2694,-2.2785,-2.3098,-2.3595,-2.4074,-2.4632,0.2146,0.2533,0.2869,0.2818,0.3263,0.3648,0.0,0.0,0.0,0.0,0.0,0.0,0.0,0.0,0.0,0.0,0.0,0.0,0.0,0.0,0.0,0.0,0.0,0.251,0.0236,-0.0,-0.0,-0.0,-0.0,-0.0,-0.0,-0.0,-0.0,-0.0,-0.0922,-0.2473,-0.4543,-0.5718,-0.6268,-0.6338,-0.7326,-0.8313,-0.9296,-1.034,-1.1316,-1.2305,0.0,-1.2305,-1.2372,-1.331,-1.3673,-1.381,-1.5296,-1.5756,-1.5738,-1.6438,-1.598,-1.5128,-1.5303,-1.541,-1.541,-1.541,-1.541,-1.541,-1.541,-1.541,-1.541,-1.541,-1.541,-1.541,-1.541,-1.541,-1.541,-1.541,-1.541,-1.541,-1.541,-1.541,-1.541,-1.541,-1.541,-1.541,-1.541,-1.541,-1.541,-1.541,-1.541,-1.541,-1.541,-1.541,-1.541,-1.541,-1.569,-1.6197,-1.6922,-1.7688,-1.8608,-1.9747,-1.9798,-1.9798,-1.9798,-1.9798,-1.9952,-2.0245,-2.061,-2.1272,-2.2146,-2.2498,-2.3009,-2.3595,-2.4158,-2.4712,0.1933,0.2331,0.2734,0.2957,0.0,0.0,0.0,0.0,0.0,0.0,0.0,0.0,0.0,0.0,0.0,0.0,0.0,0.0,0.0,0.0,0.0,0.0,0.0,0.3532,0.0304,-0.0,-0.0,-0.0,-0.0,-0.0,-0.0,-0.0,-0.0,-0.0,-0.0,-0.0981,-0.2994,-0.5084,-0.6186,-0.6207,-0.7038,-0.7992,-0.914,-1.0005,-1.107,-1.2204,-1.2271,-1.2305,-1.2378,-1.3098,-1.3382,-1.3448,-1.4577,-1.5627,-1.6492,-1.6287,-1.5892,-1.541,-1.541,-1.541,-1.541,-1.541,-1.541,-1.541,-1.541,-1.541,-1.541,-1.541,-1.541,-1.541,-1.541,-1.541,-1.541,-1.541,-1.541,-1.541,-1.541,-1.541,-1.541,-1.541,-1.541,-1.541,-1.541,-1.541,-1.541,-1.541,-1.541,-1.541,-1.541,-1.541,-1.541,-1.541,-1.541,-1.5748,-1.6708,-1.7578,-1.8608,-1.9747,-1.9798,-1.9798,-1.9798,-1.9798,-1.9798,-1.9798,-2.0295,-2.0917,-2.1697,-2.2207,-2.286,-2.3595,-2.4266,-2.4831,0.2318,0.2572,0.2781,0.3169,0.0,0.0,0.0,0.0,0.0,0.0,0.0,0.0,0.0,0.0,0.0,0.0,0.0,0.0,0.0,0.0,0.0,0.0,0.0426,0.036,-0.0,-0.0,-0.0,-0.0,-0.0,-0.0,-0.0,-0.0,-0.0,-0.0,-0.0,-0.0876,-0.2701,-0.4767,-0.5865,-0.6047,-0.6119,-0.6988,-0.868,-0.9031,-1.022,-1.1917,-1.2184,-1.2305,-1.2305,-1.2372,-1.2372,-1.2565,-1.3956,-1.5173,-1.5998,-1.5191,-1.507,-1.541,-1.541,-1.541,-1.541,-1.541,-1.541,-1.541,-1.541,-1.541,-1.541,-1.541,-1.541,-1.541,-1.541,-1.541,-1.541,-1.541,-1.541,-1.541,-1.541,-1.541,-1.541,-1.541,-1.541,-1.541,-1.541,-1.541,-1.541,-1.541,-1.541,-1.541,-1.541,-1.541,-1.541,-1.541,-1.541,-1.5968,-1.7413,-1.8821,-1.9695,-1.9798,-1.9798,-1.9798,-1.9798,-1.9798,-1.9798,-1.9798,-1.985,-2.0471,-2.1697,-2.1758,-2.2409,-2.3638,-2.4657,-2.5182,0.2015,0.2379,0.2901,0.3647,0.0,0.0,0.0,0.0,0.0,0.0,0.0,0.0,0.0,0.0,0.0,0.0,0.0,0.0,0.0,0.0,0.0,-0.0,-0.0,-0.0,-0.0,-0.0,-0.0,-0.0,-0.0,-0.0,-0.0,-0.0,-0.0,-0.0,-0.0,-0.0859,-0.2685,-0.4592,-0.5597,-0.5755,-0.5844,-0.6857,-0.8629,-0.8715,-0.9814,-1.1597,-1.171,-1.1757,-1.177,-1.1957,-1.1924,-1.1884,-1.3596,-1.4634,-1.525,-1.5496,-1.5482,-1.541,-1.541,-1.541,-1.541,-1.541,-1.541,-1.541,-1.541,-1.541,-1.541,-1.541,-1.541,-1.541,-1.541,-1.541,-1.541,-1.541,-1.541,-1.541,-1.541,-1.541,-1.541,-1.541,-1.541,-1.541,-1.541,-1.541,-1.541,-1.541,-1.541,-1.541,-1.541,-1.541,-1.541,-1.541,-1.5806,-1.6482,-1.7523,-1.8555,-1.9319,-1.9747,-1.9798,-1.9798,-1.9798,-1.9798,-1.9798,-1.9798,-2.0194,-2.0818,-2.1697,-2.21,-2.2756,-2.3595,-2.4348,-2.4855,0.1926,0.247,0.3186,0.0,0.0,0.0,0.0,0.0,0.0,0.0,0.0,0.0,0.0,0.0,0.0,0.0,0.0,0.0,0.0,0.0,-0.0,-0.0,-0.0,-0.0,-0.0,-0.0,-0.0,-0.0,-0.0,-0.0,-0.0,-0.0,-0.0,-0.0,-0.0,-0.0837,-0.2691,-0.448,-0.5427,-0.5518,-0.5616,-0.6491,-0.8005,-0.8349,-0.9416,-1.0882,-1.1246,-1.1423,-1.1443,-1.1643,-1.1895,-1.221,-1.3713,-1.4521,-1.4985,-1.567,-1.5664,-1.541,-1.541,-1.541,-1.541,-1.541,-1.541,-1.541,-1.541,-1.541,-1.541,-1.541,-1.541,-1.541,-1.541,-1.541,-1.541,-1.541,-1.541,-1.541,-1.541,-1.541,-1.541,-1.541,-1.541,-1.541,-1.541,-1.541,-1.541,-1.541,-1.541,-1.541,-1.541,-1.541,-1.541,-1.541,-1.6255,-1.7034,-1.7578,-1.8501,-1.9254,-1.9747,-1.9798,-1.9798,-1.9798,-1.9798,-1.9798,-1.9798,-2.0245,-2.0868,-2.1697,-2.2146,-2.2815,-2.3595,-2.4158,-2.4592,0.2207,0.2999,0.0,0.0,0.0,0.0,0.0,0.0,0.0,0.0,0.0,0.0,0.0,0.0,0.0,0.0,0.0,0.0,0.0,-0.0,-0.0,-0.0,-0.0,-0.0,-0.0,-0.0,-0.0,-0.0,-0.0,-0.0,-0.0,-0.0,-0.0,-0.0,-0.0,-0.0874,-0.2678,-0.4506,-0.5382,-0.5428,-0.5428,-0.5881,-0.6724,-0.785,-0.8896,-0.9795,-1.0882,-1.1416,-1.1416,-1.1416,-1.2225,-1.3474,-1.4363,-1.499,-1.541,-1.541,-1.541,-1.541,-1.541,-1.541,-1.541,-1.541,-1.541,-1.541,-1.541,-1.541,-1.541,-1.541,-1.541,-1.541,-1.541,-1.541,-1.541,-1.541,-1.541,-1.541,-1.541,-1.541,-1.541,-1.541,-1.541,-1.541,-1.541,-1.541,-1.541,-1.541,-1.541,-1.541,-1.541,-1.541,-1.541,-1.541,-1.6743,-1.7578,-1.7633,-1.898,-1.9798,-1.9798,-1.9798,-1.9798,-1.9798,-1.9798,-1.9798,-1.9798,-1.9798,-2.0421,-2.1697,-2.1697,-2.2363,-2.3595,-2.4142,-2.4389,0.2602,0.0,0.0,0.0,0.0,0.0,0.0,0.0,0.0,0.0,0.0,0.0,0.0,0.0,0.0,0.0,0.0,0.0,0.0,-0.0,-0.0,-0.0,-0.0,-0.0,-0.0,-0.0,-0.0,-0.0,-0.0,-0.0,-0.0,-0.0,-0.0,-0.0,-0.0,-0.0874,-0.2678,-0.4506,-0.5382,-0.5428,-0.5428,-0.621,-0.7637,-0.7962,-0.8913,-1.0367,-1.071,-1.0815,-1.088,-1.1439,-1.2711,-1.4337,-1.431,-1.4799,-1.541,-1.541,-1.541,-1.541,-1.541,-1.541,-1.541,-1.541,-1.541,-1.541,-1.541,-1.541,-1.541,-1.541,-1.541,-1.541,-1.541,-1.541,-1.541,-1.541,-1.541,-1.541,-1.541,-1.541,-1.541,-1.541,-1.541,-1.541,-1.541,-1.541,-1.541,-1.541,-1.541,-1.541,-1.541,-1.541,-1.5584,-1.6151,-1.7024,-1.7797,-1.834,-1.9254,-1.9798,-1.9798,-1.9798,-1.9798,-1.9798,-1.9798,-1.9798,-1.9798,-2.0245,-2.0917,-2.1697,-2.2146,-2.2815,-2.3595,-2.3752,-2.4225,0.3006,0.0,0.0,0.0,0.0,0.0,0.0,0.0,0.0,0.0,0.0,0.0,0.0,0.0,0.0,0.0,0.0,0.0,-0.0,-0.0,-0.0,-0.0,-0.0,-0.0,-0.0,-0.0,-0.0,-0.0,-0.0,-0.0,-0.0,-0.0,-0.0,-0.0,-0.0,-0.0538,-0.1606,-0.4164,-0.5386,-0.5369,-0.5428,-0.6145,-0.7502,-0.7832,-0.8544,-0.9582,-1.0301,-1.0807,-1.117,-1.1958,-1.3186,-1.4486,-1.4602,-1.4991,-1.541,-1.541,-1.541,-1.541,-1.541,-1.541,-1.541,-1.541,-1.541,-1.541,-1.541,-1.541,-1.541,-1.541,-1.541,-1.541,-1.541,-1.541,-1.541,-1.541,-1.541,-1.541,-1.541,-1.541,-1.541,-1.541,-1.541,-1.541,-1.541,-1.541,-1.541,-1.541,-1.541,-1.541,-1.541,-1.541,-1.569,-1.6436,-1.7146,-1.7895,-1.8661,-1.9371,-1.9798,-1.9798,-1.9798,-1.9798,-1.9798,-1.9798,-1.9798,-1.9798,-2.0207,-2.0818,-2.1697,-2.21,-2.2756,-2.3595,-2.3595,-2.3948,0.0,0.0,0.0,0.0,0.0,0.0,0.0,0.0,0.0,0.0,0.0,0.0,0.0,0.0,0.0,0.0,0.0,-0.0,-0.0,-0.0,-0.0,-0.0,-0.0,-0.0,-0.0,-0.0,-0.0,-0.0,-0.0,-0.0,-0.0,-0.0,-0.0,-0.0,-0.0,-0.0,-0.0,-0.3422,-0.5252,-0.5379,-0.5432,-0.5815,-0.6588,-0.7502,-0.7962,-0.8221,-0.9907,-1.1108,-1.1958,-1.2704,-1.3545,-1.4392,-1.5108,-1.541,-1.541,-1.541,-1.541,-1.541,-1.541,-1.541,-1.541,-1.541,-1.541,-1.541,-1.541,-1.541,-1.541,-1.541,-1.541,-1.541,-1.541,-1.541,-1.541,-1.541,-1.541,-1.541,-1.541,-1.541,-1.541,-1.541,-1.541,-1.541,-1.541,-1.541,-1.541,-1.541,-1.541,-1.541,-1.541,-1.5468,-1.5806,-1.6539,-1.7246,-1.8015,-1.8715,-1.9423,-1.9798,-1.9798,-1.9798,-1.9798,-1.9798,-1.9798,-1.9798,-1.9798,-1.9798,-2.0421,-2.1615,-2.1649,-2.2317,-2.3508,-2.3551,-2.3638,0.0,0.0,0.0,0.0,0.0,0.0,0.0,0.0,0.0,0.0,0.0,0.0,0.0,0.0,0.0,0.0,0.0,-0.0,-0.0,-0.0,-0.0,-0.0,-0.0,-0.0,-0.0,-0.0,-0.0,-0.0,-0.0,-0.0,-0.0,-0.0,-0.0,-0.0,-0.0,-0.0,-0.0,-0.2209,-0.4023,-0.5379,-0.5432,-0.5491,-0.5686,-0.6593,-0.7697,-0.9075,-1.011,-1.1421,-1.2757,-1.2948,-1.3855,-1.5167,-1.5352,-1.541,-1.541,-1.541,-1.541,-1.541,-1.541,-1.541,-1.541,-1.541,-1.541,-1.541,-1.541,-1.541,-1.541,-1.541,-1.541,-1.541,-1.541,-1.541,-1.541,-1.541,-1.541,-1.541,-1.541,-1.541,-1.541,-1.541,-1.541,-1.541,-1.541,-1.541,-1.541,-1.541,-1.541,-1.541,-1.541,-1.5921,-1.6539,-1.7302,-1.8004,-1.8768,-1.9475,-1.9695,-1.9798,-1.9798,-1.9798,-1.9798,-1.9798,-1.9798,-1.9798,-1.9798,-1.9798,-2.0194,-2.0979,-2.1472,-2.21,-2.292,-2.3377,-2.3837,0.0,0.0,0.0,0.0,0.0,0.0,0.0,0.0,0.0,0.0,0.0,0.0,0.0,0.0,0.0,0.0,-0.0,-0.0,-0.0,-0.0,-0.0,-0.0,-0.0,-0.0,-0.0,-0.0,-0.0,-0.0,-0.0,-0.0,-0.0,-0.0,-0.0,-0.0,-0.0,-0.0404,-0.1277,-0.2211,-0.362,-0.5386,-0.5369,-0.5428,-0.5428,-0.6724,-0.8027,-0.9338,-1.0238,-1.1483,-1.3009,-1.3009,-1.3974,-1.541,-1.541,-1.541,-1.541,-1.541,-1.541,-1.541,-1.541,-1.541,-1.541,-1.541,-1.541,-1.541,-1.541,-1.541,-1.541,-1.541,-1.541,-1.541,-1.541,-1.541,-1.541,-1.541,-1.541,-1.541,-1.541,-1.541,-1.541,-1.541,-1.541,-1.541,-1.541,-1.541,-1.541,-1.541,-1.541,-1.541,-1.541,-1.6036,-1.6754,-1.7523,-1.8286,-1.898,-1.9747,-1.9798,-1.9798,-1.9798,-1.9798,-1.9798,-1.9798,-1.9798,-1.9798,-1.9798,-1.9798,-2.0283,-2.1245,-2.1245,-2.1913,-2.3143,-2.3143,-2.3478,0.0,0.0,0.0,0.0,0.0,0.0,0.0,0.0,0.0,0.0,0.0,0.0,0.0,0.0,0.0,0.0,-0.0,-0.0,-0.0,-0.0,-0.0,-0.0,-0.0,-0.0,-0.0,-0.0,-0.0,-0.0,-0.0,-0.0,-0.0,-0.0,-0.0,-0.0,-0.0,-0.0877,-0.2703,-0.2686,-0.3623,-0.5396,-0.5372,-0.5428,-0.5425,-0.7181,-0.842,-0.9139,-1.0174,-1.1483,-1.3009,-1.3009,-1.3974,-1.541,-1.541,-1.541,-1.541,-1.541,-1.541,-1.541,-1.541,-1.541,-1.541,-1.541,-1.541,-1.541,-1.541,-1.541,-1.541,-1.541,-1.541,-1.541,-1.541,-1.541,-1.541,-1.541,-1.5469,-1.5508,-1.543,-1.541,-1.541,-1.541,-1.541,-1.541,-1.541,-1.541,-1.541,-1.541,-1.541,-1.541,-1.541,-1.6036,-1.6754,-1.7523,-1.8286,-1.898,-1.9747,-1.9798,-1.9798,-1.9798,-1.9798,-1.9798,-1.9798,-1.9798,-1.9798,-1.9798,-1.9798,-2.032,-2.1363,-2.0979,-2.1629,-2.326,-2.2875,-2.3009,0.0,0.0,0.0,0.0,0.0,0.0,0.0,0.0,0.0,0.0,0.0,0.0,0.0,0.0,0.0,0.0,-0.0,-0.0,-0.0,-0.0,-0.0,-0.0,-0.0,-0.0,-0.0,-0.0,-0.0,-0.0,-0.0,-0.0,-0.0,-0.0,-0.0,-0.0,-0.0,-0.0877,-0.2703,-0.2686,-0.3623,-0.5396,-0.5372,-0.5428,-0.5425,-0.7181,-0.8091,-0.8285,-0.9907,-1.1483,-1.3009,-1.3009,-1.3974,-1.541,-1.541,-1.541,-1.541,-1.541,-1.541,-1.541,-1.541,-1.541,-1.541,-1.541,-1.541,-1.541,-1.541,-1.541,-1.541,-1.541,-1.541,-1.541,-1.541,-1.541,-1.541,-1.541,-1.5703,-1.5879,-1.5498,-1.541,-1.541,-1.541,-1.541,-1.541,-1.541,-1.541,-1.541,-1.541,-1.541,-1.541,-1.541,-1.6036,-1.6754,-1.7523,-1.8286,-1.898,-1.9747,-1.9798,-1.9798,-1.9798,-1.9798,-1.9798,-1.9798,-1.9798,-1.9798,-1.9798,-1.9798,-1.9901,-2.0042,-2.0547,-2.121,-2.1993,-2.2452,-2.3009,0.0,0.0,0.0,0.0,0.0,0.0,0.0,0.0,0.0,0.0,0.0,0.0,0.0,0.0,0.0,0.0,-0.0,-0.0,-0.0,-0.0,-0.0,-0.0,-0.0,-0.0,-0.0,-0.0,-0.0,-0.0,-0.0,-0.0,-0.0,-0.0,-0.0,-0.0,-0.0,-0.0842,-0.2706,-0.2689,-0.3626,-0.5376,-0.5432,-0.5428,-0.5425,-0.7181,-0.8027,-0.8091,-0.9843,-1.1483,-1.3009,-1.3009,-1.3974,-1.541,-1.541,-1.541,-1.541,-1.541,-1.541,-1.541,-1.541,-1.541,-1.541,-1.541,-1.541,-1.541,-1.541,-1.541,-1.541,-1.541,-1.541,-1.541,-1.541,-1.5596,-1.5713,-1.5469,-1.5937,-1.6426,-1.6387,-1.626,-1.6074,-1.582,-1.5781,-1.5703,-1.5459,-1.541,-1.541,-1.541,-1.5615,-1.5781,-1.5781,-1.7089,-1.8057,-1.8404,-1.9539,-2.0402,-2.074,-2.0464,-2.0288,-2.0288,-1.9987,-1.9798,-1.9798,-1.9798,-1.9798,-1.9798,-1.9798,-2.0003,-2.0359,-2.0308,-2.0917,-2.2253,-2.2193,-2.2651,0.0,0.0,0.0,0.0,0.0,0.0,0.0,0.0,0.0,0.0,0.0,0.0,0.0,0.0,0.0,0.0,-0.0,-0.0,-0.0,-0.0,-0.0,-0.0,-0.0,-0.0,-0.0,-0.0,-0.0,-0.0,-0.0,-0.0,-0.0,-0.0,-0.0,-0.0,-0.0,-0.0874,-0.2688,-0.3143,-0.4038,-0.5428,-0.5428,-0.5428,-0.5428,-0.6985,-0.7767,-0.8091,-0.9843,-1.1483,-1.3009,-1.3009,-1.3974,-1.541,-1.541,-1.541,-1.541,-1.541,-1.541,-1.541,-1.541,-1.541,-1.541,-1.541,-1.541,-1.543,-1.5537,-1.5576,-1.5576,-1.5576,-1.5576,-1.5557,-1.5439,-1.5732,-1.6037,-1.5654,-1.625,-1.6924,-1.6947,-1.6811,-1.6631,-1.6299,-1.623,-1.6103,-1.5703,-1.5693,-1.5723,-1.5644,-1.5977,-1.6353,-1.6526,-1.7885,-1.8992,-1.9408,-2.0481,-2.1313,-2.1481,-2.1104,-2.0869,-2.0731,-2.0263,-1.9962,-1.9811,-1.9798,-1.9798,-1.9798,-1.9798,-2.0055,-2.0547,-2.0055,-2.072,-2.2452,-2.1771,-2.2324,0.0,0.0,0.0,0.0,0.0,0.0,0.0,0.0,0.0,0.0,0.0,0.0,0.0,0.0,0.0,0.0,-0.0,-0.0,-0.0,-0.0,-0.0,-0.0,-0.0,-0.0,-0.0,-0.0,-0.0,-0.0,-0.0,-0.0,-0.0,-0.0,-0.0,-0.0,-0.0,-0.0865,-0.2669,-0.4396,-0.5298,-0.5428,-0.5428,-0.5428,-0.5428,-0.6334,-0.7242,-0.8091,-0.9843,-1.1483,-1.3009,-1.3009,-1.3974,-1.541,-1.541,-1.541,-1.541,-1.541,-1.541,-1.541,-1.541,-1.541,-1.541,-1.541,-1.541,-1.5488,-1.5908,-1.6086,-1.6086,-1.6086,-1.6086,-1.5928,-1.5518,-1.5732,-1.6115,-1.6096,-1.6709,-1.7246,-1.6836,-1.6685,-1.6665,-1.6636,-1.6699,-1.6602,-1.6299,-1.6475,-1.6572,-1.6279,-1.6504,-1.6994,-1.777,-1.7975,-1.8643,-2.0192,-2.0423,-2.0722,-2.1425,-2.1455,-2.123,-2.0756,-2.0693,-2.0376,-1.9823,-1.9798,-1.9798,-1.9798,-1.9798,-1.9798,-1.985,-1.9798,-2.0471,-2.1758,-2.1113,-2.2199,0.0,0.0,0.0,0.0,0.0,0.0,0.0,0.0,0.0,0.0,0.0,0.0,0.0,0.0,0.0,0.0,0.0,-0.0,-0.0,-0.0,-0.0,-0.0,-0.0,-0.0,-0.0,-0.0,-0.0,-0.0,-0.0,-0.0,-0.0,-0.0,-0.0,-0.0,-0.0,-0.0762,-0.2392,-0.4406,-0.5314,-0.5213,-0.5315,-0.5428,-0.5428,-0.6334,-0.7177,-0.8091,-0.9268,-1.0717,-1.2266,-1.2765,-1.3666,-1.4688,-1.5167,-1.541,-1.541,-1.541,-1.541,-1.541,-1.541,-1.541,-1.541,-1.541,-1.541,-1.5439,-1.5596,-1.5644,-1.5644,-1.5644,-1.5644,-1.5605,-1.5449,-1.5947,-1.6631,-1.7187,-1.7549,-1.7744,-1.7588,-1.7549,-1.7471,-1.7207,-1.7148,-1.6973,-1.6387,-1.6533,-1.6758,-1.6826,-1.7012,-1.7451,-1.8302,-1.8627,-1.9497,-2.1185,-2.1379,-2.168,-2.2477,-2.2221,-2.1933,-2.1732,-2.1393,-2.1104,-2.0891,-2.0539,-2.0351,-2.0351,-1.9987,-1.9798,-1.9798,-2.0245,-2.0868,-2.171,-2.2365,-2.3382,0.0,0.0,0.0,0.0,0.0,0.0,0.0,0.0,0.0,0.0,0.0,0.0,0.0,0.0,0.0,0.0,0.0,-0.0,-0.0,-0.0,-0.0,-0.0,-0.0,-0.0,-0.0,-0.0,-0.0,-0.0,-0.0,0.0,-0.0,-0.0,-0.0,-0.0,-0.0,-0.0682,-0.2167,-0.4108,-0.5095,-0.506,-0.5213,-0.5284,-0.5349,-0.5982,-0.692,-0.8027,-0.8613,-1.0009,-1.1826,-1.2389,-1.3235,-1.4264,-1.4815,-1.5167,-1.541,-1.541,-1.541,-1.541,-1.541,-1.541,-1.541,-1.541,-1.541,-1.5439,-1.5586,-1.5625,-1.5625,-1.5625,-1.5625,-1.5596,-1.5449,-1.6064,-1.6943,-1.7803,-1.8008,-1.8008,-1.8008,-1.8008,-1.793,-1.7646,-1.7598,-1.7441,-1.6953,-1.7031,-1.7217,-1.7402,-1.7529,-1.7909,-1.8718,-1.936,-2.0268,-2.1753,-2.2125,-2.2506,-2.3065,-2.2799,-2.251,-2.2322,-2.197,-2.1681,-2.1493,-2.1142,-2.0941,-2.0941,-2.0388,-2.0087,-2.0087,-2.0348,-2.0875,-2.1689,-2.2651,-2.3717,0.0,0.0,0.0,0.0,0.0,0.0,0.0,0.0,0.0,0.0,0.0,0.0,0.0,0.0,0.0,0.0,0.0,-0.0,-0.0,-0.0,-0.0,-0.0,-0.0,-0.0,-0.0,-0.0,-0.0,-0.0,-0.0,-0.0,-0.0,-0.0,-0.0,-0.0,-0.0,-0.0682,-0.2106,-0.3706,-0.4608,-0.4914,-0.5057,-0.5128,-0.5135,-0.5287,-0.6334,-0.7962,-0.7962,-0.9424,-1.171,-1.1772,-1.2749,-1.4145,-1.4213,-1.4688,-1.5352,-1.541,-1.541,-1.541,-1.541,-1.541,-1.541,-1.541,-1.541,-1.5488,-1.5918,-1.6105,-1.6105,-1.6105,-1.6105,-1.5947,-1.5537,-1.6064,-1.6934,-1.7793,-1.7988,-1.7998,-1.8008,-1.8008,-1.8008,-1.8008,-1.8008,-1.8008,-1.8008,-1.8008,-1.8008,-1.8008,-1.8008,-1.8327,-1.9177,-2.0074,-2.091,-2.1815,-2.258,-2.3078,-2.3078,-2.3078,-2.2912,-2.2372,-2.2334,-2.2096,-2.1556,-2.1518,-2.1506,-2.1506,-2.102,-2.0743,-2.0743,-2.0164,-2.0463,-2.1666,-2.1847,-2.3289,0.3566,0.0,0.0,0.0,0.0,0.0,0.0,0.0,0.0,0.0,0.0,0.0,0.0,0.0,0.0,0.0,0.0,0.0,-0.0,-0.0,-0.0,-0.0,-0.0,-0.0,-0.0,-0.0,-0.0,0.0,-0.0,-0.0,-0.0,-0.0,-0.0,-0.0,-0.0,-0.0169,-0.0622,-0.3196,-0.4559,-0.4585,-0.4847,-0.5033,-0.5131,-0.5176,-0.5895,-0.7111,-0.7697,-0.8737,-1.0085,-1.1267,-1.2074,-1.2565,-1.3726,-1.4332,-1.4628,-1.5177,-1.541,-1.541,-1.541,-1.541,-1.541,-1.541,-1.541,-1.543,-1.5557,-1.5586,-1.5586,-1.5586,-1.5586,-1.5635,-1.583,-1.6064,-1.6475,-1.7344,-1.7559,-1.7637,-1.7939,-1.8008,-1.8008,-1.8008,-1.8008,-1.8008,-1.8008,-1.8008,-1.8008,-1.8008,-1.8529,-1.9044,-1.9299,-2.0074,-2.091,-2.1815,-2.2125,-2.2445,-2.3078,-2.3078,-2.3015,-2.2865,-2.2912,-2.2836,-2.2686,-2.2297,-2.2083,-2.2083,-2.1543,-2.1255,-2.1255,-2.1144,-2.1546,-2.2428,-2.4369,-2.5912,0.0,0.0,0.0,0.0,0.0,0.0,0.0,0.3626,0.0,0.0,0.0,0.0,0.0,0.0,0.0,0.0,0.0,0.0,-0.0,-0.0,-0.0,-0.0,-0.0,-0.0,-0.0,-0.0,-0.0,-0.0,-0.0,-0.0,-0.0,-0.0,-0.0,-0.0,-0.0,-0.0,-0.0,-0.2336,-0.386,-0.4498,-0.4696,-0.4867,-0.4948,-0.5013,-0.5561,-0.6604,-0.7122,-0.8073,-0.9402,-1.0338,-1.1142,-1.1888,-1.281,-1.3597,-1.4273,-1.4756,-1.5108,-1.541,-1.541,-1.541,-1.541,-1.541,-1.541,-1.541,-1.541,-1.541,-1.541,-1.541,-1.541,-1.5508,-1.5947,-1.6125,-1.6351,-1.7168,-1.7383,-1.75,-1.792,-1.8008,-1.8008,-1.8008,-1.8008,-1.8008,-1.8008,-1.8008,-1.8008,-1.8008,-1.8462,-1.91,-2.0063,-2.0386,-2.091,-2.1815,-2.2187,-2.2567,-2.3078,-2.3078,-2.3078,-2.3078,-2.3078,-2.3078,-2.3078,-2.2824,-2.2661,-2.2661,-2.2121,-2.1832,-2.1832,-2.1639,-2.2194,-2.3474,-2.5575,-2.6935,0.0,0.0,0.0,0.0,0.0,0.0,0.4424,0.3902,0.3397,0.0,0.0,0.0,0.0,0.0,0.0,0.0,0.0,0.0,-0.0,-0.0,-0.0,-0.0,-0.0,-0.0,-0.0,-0.0,-0.0,-0.0,-0.0,-0.0,-0.0,-0.0,-0.0,-0.0,-0.0,-0.0,-0.0,-0.1282,-0.279,-0.4484,-0.4609,-0.4677,-0.4697,-0.4773,-0.5337,-0.6233,-0.6375,-0.7365,-0.8971,-0.9192,-1.0212,-1.171,-1.1772,-1.2749,-1.4085,-1.4154,-1.4688,-1.541,-1.541,-1.541,-1.541,-1.541,-1.541,-1.541,-1.541,-1.541,-1.541,-1.541,-1.541,-1.5498,-1.5889,-1.5986,-1.6211,-1.71,-1.7314,-1.7441,-1.791,-1.8008,-1.8008,-1.8008,-1.8008,-1.8008,-1.8008,-1.8008,-1.8008,-1.8008,-1.8076,-1.8844,-2.076,-2.0771,-2.091,-2.169,-2.2506,-2.3005,-2.3078,-2.3078,-2.3078,-2.3078,-2.3078,-2.3078,-2.3078,-2.3078,-2.3078,-2.3078,-2.2648,-2.2455,-2.2513,-2.2058,-2.2811,-2.4623,-2.6012,-2.6982,0.5289,0.5277,0.5371,0.498,0.0,0.0,0.3976,0.3794,0.3674,0.0,0.0,0.0,0.0,0.0,0.0,0.0,0.0,0.0,0.0,-0.0,-0.0,-0.0,-0.0,-0.0,-0.0,-0.0,-0.0,-0.0,-0.0,-0.0,-0.0,-0.0,-0.0,-0.0,-0.0,-0.0,-0.0,-0.0279,-0.1788,-0.4507,-0.4528,-0.4535,-0.4526,-0.4556,-0.4823,-0.5211,-0.6075,-0.6593,-0.7084,-0.867,-0.9913,-1.0926,-1.1531,-1.2389,-1.3304,-1.3965,-1.4688,-1.541,-1.541,-1.541,-1.541,-1.541,-1.541,-1.541,-1.541,-1.541,-1.541,-1.541,-1.541,-1.543,-1.5518,-1.5537,-1.5762,-1.665,-1.6855,-1.707,-1.7842,-1.8008,-1.8008,-1.8008,-1.8008,-1.8008,-1.8008,-1.8008,-1.8008,-1.8008,-1.8596,-1.8977,-1.8721,-1.9814,-2.0655,-2.0846,-2.1616,-2.2384,-2.3065,-2.3078,-2.3078,-2.3078,-2.3078,-2.3078,-2.3078,-2.3078,-2.3078,-2.3078,-2.3025,-2.3259,-2.389,-2.3931,-2.4381,-2.5273,-2.6701,-2.7458,0.0,0.0,0.5898,0.5752,0.0,0.0,0.0,0.3802,0.3346,0.2935,0.0,0.0,0.0,0.0,0.0,0.0,0.0,0.0,0.0,0.0,-0.0,-0.0,-0.0,-0.0,-0.0,-0.0,-0.0,-0.0,-0.0,-0.0,-0.0,-0.0,-0.0,-0.0,-0.0,-0.0,-0.0,-0.0,-0.0782,-0.224,-0.3021,-0.3495,-0.3778,-0.4245,-0.4612,-0.4809,-0.5359,-0.5851,-0.6517,-0.7939,-0.9081,-1.004,-1.0856,-1.1717,-1.2451,-1.287,-1.3537,-1.4273,-1.4688,-1.4805,-1.4805,-1.4805,-1.505,-1.5352,-1.4932,-1.505,-1.541,-1.541,-1.541,-1.541,-1.541,-1.541,-1.5635,-1.6523,-1.6665,-1.6963,-1.7822,-1.8008,-1.8008,-1.8008,-1.8008,-1.8008,-1.8008,-1.8008,-1.8008,-1.8008,-1.8395,-1.8721,-1.8844,-1.9497,-2.0139,-2.0526,-2.0974,-2.1616,-2.2445,-2.2506,-2.2689,-2.3078,-2.3078,-2.3078,-2.3078,-2.3078,-2.3078,-2.3078,-2.3078,-2.3305,-2.3708,-2.419,-2.4915,-2.596,-2.6721,-2.7393,0.0,0.0,0.0,0.0,0.0,0.5092,0.0,0.0,0.0,0.2942,0.0,0.0,0.0,0.0,0.0,0.0,0.0,0.0,0.0,0.0,0.0,-0.0,-0.0,-0.0,-0.0,-0.0,-0.0,-0.0,-0.0,-0.0,-0.0,-0.0,-0.0,-0.0,-0.0,-0.0,-0.0,-0.0,-0.0,-0.0,-0.1228,-0.2007,-0.245,-0.3858,-0.4545,-0.4653,-0.4677,-0.524,-0.6162,-0.7092,-0.7986,-0.8879,-1.0085,-1.1108,-1.1834,-1.1834,-1.2328,-1.307,-1.3726,-1.3974,-1.3974,-1.3974,-1.4392,-1.4815,-1.4154,-1.4451,-1.4932,-1.4932,-1.4932,-1.4932,-1.4932,-1.505,-1.5369,-1.6158,-1.6534,-1.6943,-1.7725,-1.7959,-1.8008,-1.8008,-1.8008,-1.8008,-1.8008,-1.8008,-1.8008,-1.8008,-1.8008,-1.8337,-1.9222,-1.9166,-1.9365,-2.0268,-2.0333,-2.0719,-2.1553,-2.1815,-2.2199,-2.2823,-2.3005,-2.3078,-2.3078,-2.3078,-2.3078,-2.3078,-2.3078,-2.3198,-2.3305,-2.4002,-2.5007,-2.6283,-2.6534,-2.7348,0.0,0.0,0.0,0.0,0.6907,0.0,0.0,0.0,0.4043,0.2827,0.0,0.0,0.0,0.0,0.0,0.0,0.0,0.0,0.0,0.0,0.0,-0.0,-0.0,-0.0,-0.0,-0.0,-0.0,-0.0,-0.0,-0.0,-0.0,-0.0,-0.0,-0.0,-0.0,-0.0,-0.0,-0.0,-0.0,-0.0,-0.0168,-0.028,-0.0447,-0.3246,-0.4497,-0.4511,-0.4636,-0.4769,-0.4994,-0.6068,-0.6647,-0.6998,-0.9554,-1.1108,-1.1834,-1.1834,-1.2328,-1.3009,-1.313,-1.313,-1.313,-1.313,-1.3191,-1.3252,-1.3191,-1.3191,-1.3243,-1.3243,-1.3243,-1.3243,-1.3243,-1.3786,-1.4441,-1.4958,-1.5927,-1.6865,-1.7353,-1.7744,-1.8008,-1.8008,-1.8008,-1.8008,-1.8008,-1.8008,-1.8008,-1.8008,-1.8008,-1.8076,-1.8212,-1.8134,-1.8462,-1.9365,-1.9431,-1.9814,-2.0655,-2.1428,-2.1939,-2.2002,-2.2702,-2.3078,-2.3078,-2.3078,-2.3078,-2.3078,-2.3078,-2.3424,-2.4176,-2.4234,-2.4738,-2.5563,-2.6761,-2.7754,0.0,0.0,0.0,0.0,0.0,0.0,0.4595,0.0,0.3374,0.0,0.0,0.0,0.0,0.0,0.0,0.0,0.2556,0.0,0.0,0.0,0.0,0.0,0.0,0.0,-0.0,-0.0,-0.0,-0.0,-0.0,-0.0,-0.0,-0.0,-0.0,-0.0,-0.0,-0.0,-0.0,-0.0,-0.0,-0.0,-0.0,-0.0,-0.0056,-0.2178,-0.3635,-0.4484,-0.4535,-0.4609,-0.4766,-0.5876,-0.6348,-0.6656,-0.8972,-1.0034,-1.0401,-1.0912,-1.1296,-1.1663,-1.2143,-1.2328,-1.2389,-1.2818,-1.2696,-1.2389,-1.2887,-1.3009,-1.3009,-1.3009,-1.3009,-1.3009,-1.3009,-1.3243,-1.3579,-1.4018,-1.5106,-1.6103,-1.6581,-1.735,-1.8008,-1.8008,-1.8008,-1.8008,-1.8008,-1.8008,-1.8008,-1.8008,-1.8008,-1.8008,-1.8008,-1.8008,-1.8134,-1.8529,-1.8977,-1.9628,-2.0526,-2.1428,-2.2125,-2.2567,-2.2884,-2.3078,-2.3078,-2.3078,-2.3078,-2.3078,-2.3078,-2.3245,-2.359,-2.406,-2.4867,-2.5941,-2.6938,-2.7969,0.7859,0.0,0.0,0.0,0.0,0.0,0.0,0.0,0.0,0.0,0.0,0.0,0.0,0.0,0.0,0.0,0.0,0.2486,0.0,0.0,0.0,0.0,0.0,0.0,0.0,-0.0,-0.0216,-0.0679,-0.0267,-0.0,-0.0,-0.0,-0.0,-0.0,-0.0,-0.0,-0.0,-0.0,-0.0,-0.0,-0.0,-0.0,-0.0056,-0.1116,-0.2679,-0.4484,-0.4473,-0.4528,-0.4697,-0.5486,-0.584,-0.6145,-0.7853,-0.8692,-0.9069,-1.0174,-1.0624,-1.0681,-1.1288,-1.1469,-1.1593,-1.2151,-1.1965,-1.1593,-1.2151,-1.2336,-1.2336,-1.2336,-1.2336,-1.2336,-1.2336,-1.252,-1.2784,-1.3131,-1.4388,-1.5624,-1.5948,-1.7062,-1.8008,-1.8008,-1.8008,-1.8008,-1.8008,-1.8008,-1.8008,-1.8008,-1.8008,-1.8008,-1.8008,-1.8008,-1.8008,-1.8008,-1.8596,-1.9177,-1.9814,-2.0719,-2.1616,-2.2702,-2.2763,-2.2884,-2.3078,-2.3078,-2.3078,-2.3078,-2.3078,-2.3185,-2.3424,-2.4002,-2.5022,-2.6352,-2.7214,-2.8372,0.0,0.0,0.0,0.6651,0.0,0.0,0.0,0.0,0.3637,0.0,0.0,0.0,0.0,0.0,0.0,0.0,0.0,0.0,0.0,0.0,0.0,0.0,0.0,0.0,0.0,-0.0,-0.0736,0.0,-0.0992,-0.0,-0.0,-0.0,-0.0,-0.0,-0.0,-0.0,-0.0,-0.0,-0.0,-0.0,-0.0,-0.0,-0.0,-0.0056,-0.1676,-0.4494,-0.4484,-0.4477,-0.4536,-0.469,-0.4845,-0.506,-0.6079,-0.714,-0.8221,-0.997,-1.0624,-1.0624,-1.0624,-1.0624,-1.0624,-1.0688,-1.0681,-1.0624,-1.0688,-1.0681,-1.0681,-1.0681,-1.0681,-1.0681,-1.0681,-1.1226,-1.1917,-1.2176,-1.393,-1.5559,-1.5882,-1.6994,-1.8008,-1.8008,-1.8008,-1.8008,-1.8008,-1.8008,-1.8008,-1.8008,-1.8008,-1.8008,-1.8008,-1.8008,-1.8008,-1.8008,-1.8008,-1.8076,-1.8076,-1.8844,-2.0139,-2.1815,-2.1939,-2.2322,-2.3078,-2.3078,-2.3078,-2.3078,-2.3078,-2.3484,-2.4234,-2.4292,-2.5063,-2.6496,-2.7713,-2.8992,0.0,0.0,0.6212,0.6023,0.0,0.0,0.0,0.0,0.0,0.0,0.0,0.0,0.0,0.0,0.0,0.0,0.0,0.0,0.0,0.0,0.0,0.0,0.0,0.0,0.0,0.0,0.0,0.0,-0.2297,0.0,-0.0092,-0.0,-0.0,-0.0,-0.0,-0.0,-0.0,-0.0,-0.0,-0.0,-0.0,-0.0,-0.0,-0.0,-0.0559,-0.1619,-0.3633,-0.4477,-0.4484,-0.4629,-0.4779,-0.4992,-0.6005,-0.7072,-0.8156,-0.9326,-1.011,-1.0624,-1.0624,-1.0624,-1.0624,-1.0624,-1.0624,-1.0624,-1.0624,-1.0624,-1.0624,-1.0624,-1.0624,-1.0624,-1.0624,-1.0807,-1.101,-1.1114,-1.3003,-1.4706,-1.4827,-1.6529,-1.8008,-1.8008,-1.8008,-1.8008,-1.8008,-1.8008,-1.8008,-1.8008,-1.8008,-1.8008,-1.8008,-1.8008,-1.8008,-1.8008,-1.8529,-1.8844,-1.8844,-2.0204,-2.129,-2.1877,-2.2384,-2.2823,-2.3078,-2.3078,-2.3078,-2.3078,-2.3078,-2.3245,-2.3484,-2.406,-2.5022,-2.6366,-2.7265,-2.8419,0.6192,0.5846,0.0,0.5565,0.4854,0.0,0.3707,0.0,0.0,0.0,0.0,0.0,0.0,0.0,0.0,0.0,0.0,0.0,0.0,0.0517,0.0,0.0,0.0,0.0,0.0,0.0,-0.1994,-0.2657,-0.3055,0.0,0.0,-0.0426,-0.0,-0.0,-0.0,-0.0,-0.0,-0.0,-0.0,-0.0,-0.0,-0.0,-0.0,-0.0,-0.0,-0.0112,-0.2063,-0.3519,-0.4487,-0.4579,-0.4735,-0.4989,-0.5936,-0.7007,-0.8091,-0.9005,-0.9849,-1.0624,-1.0624,-1.0624,-1.0624,-1.0624,-1.0624,-1.0624,-1.0624,-1.0624,-1.0624,-1.0624,-1.0624,-1.0624,-1.0624,-1.0624,-1.0651,-1.0688,-1.2312,-1.3858,-1.3913,-1.5573,-1.701,-1.701,-1.701,-1.701,-1.701,-1.701,-1.7226,-1.7872,-1.8008,-1.8008,-1.8008,-1.8008,-1.8008,-1.8008,-1.8529,-1.8977,-1.9299,-2.0333,-2.1112,-2.1428,-2.1928,-2.2372,-2.2628,-2.2689,-2.2823,-2.3065,-2.3078,-2.3245,-2.3543,-2.3767,-2.4727,-2.6381,-2.6591,-2.7644]},{"header":{"parameterUnit":"m.s-1","parameterCategory":1,"la1":30.6,"la2":29.2853,"lo1":-89.7004,"lo2":-87.6739,"dy":0.0162,"dx":0.0183,"nx":112,"ny":82,"refTime":"2024-08-01T12:00:00:Z","depth":0,"parameterNumber":3,"parameterNumberName":"V-component_of_WINDS"},"data":[0.0,0.0,0.0,0.0,0.0,0.0,0.0,0.0,0.0,0.0,0.0,0.0,0.0,0.0,0.0,0.0,0.0,0.0,0.0,0.0,0.0,0.0,0.0,0.0,0.0,0.0,0.0,0.0,0.0,0.0,0.0,0.0,0.0,0.0,0.0,0.0,0.0,0.0,0.0,0.0,0.0,0.0,0.0,0.0,0.0,0.0,0.0,0.0,0.0,0.0,0.0,0.0,0.0,0.0,0.0,0.0,0.0,0.0,0.0,0.0,0.0,0.0,0.0,0.0,0.0,0.0,0.0,0.0,0.0,0.0,0.0,0.0,0.0,0.0,0.0,0.0,0.0,0.0,0.0,0.0,0.0,0.0,0.0,0.0,0.0,0.0,0.0,0.0,0.0,0.0,0.0,-1.7187,-2.0403,-2.2322,-2.2278,-2.1803,-1.9773,-1.5625,0.0,0.0,0.0,0.0,0.0,0.0,0.0,0.0,0.0,0.0,0.0,0.0,0.0,0.0,0.0,0.0,0.0,0.0,0.0,0.0,0.0,0.0,0.0,0.0,0.0,0.0,0.0,0.0,0.0,0.0,0.0,0.0,0.0,0.0,0.0,0.0,0.0,0.0,0.0,0.0,0.0,0.0,0.0,0.0,0.0,0.0,0.0,0.0,0.0,0.0,0.0,0.0,0.0,0.0,0.0,0.0,0.0,0.0,0.0,0.0,0.0,0.0,0.0,0.0,0.0,0.0,0.0,0.0,0.0,0.0,0.0,0.0,0.0,0.0,0.0,0.0,0.0,0.0,0.0,0.0,0.0,0.0,0.0,0.0,0.0,0.0,0.0,0.0,0.0,0.0,0.0,0.0,0.0,0.0,0.0,0.0,0.0,0.0,0.0,0.0,0.0,0.0,0.0,0.0,-1.6229,-2.0566,-2.2473,-2.3343,-2.3076,-2.1889,-1.9712,-1.6361,0.0,0.0,0.0,0.0,0.0,0.0,0.0,0.0,0.0,0.0,0.0,0.0,0.0,0.0,0.0,0.0,0.0,0.0,0.0,0.0,0.0,0.0,0.0,0.0,0.0,0.0,0.0,0.0,0.0,0.0,0.0,0.0,0.0,0.0,0.0,0.0,0.0,0.0,0.0,0.0,0.0,0.0,0.0,0.0,0.0,0.0,0.0,0.0,0.0,0.0,0.0,0.0,0.0,0.0,0.0,0.0,0.0,0.0,0.0,0.0,0.0,0.0,0.0,0.0,0.0,0.0,0.0,0.0,0.0,0.0,0.0,0.0,0.0,0.0,0.0,0.0,0.0,0.0,0.0,0.0,0.0,0.0,0.0,0.0,0.0,0.0,0.0,0.0,0.0,0.0,0.0,0.0,0.0,0.0,0.0,0.0,0.0,0.0,0.0,0.0,0.0,0.0,0.0,-1.5497,-1.8018,-2.1437,-2.3105,-2.3774,-2.3236,-2.208,-1.9903,-1.6427,-1.5245,0.0,0.0,0.0,0.0,0.0,0.0,0.0,0.0,0.0,0.0,0.0,0.0,0.0,0.0,0.0,0.0,0.0,0.0,0.0,0.0,0.0,0.0,0.0,0.0,0.0,0.0,0.0,0.0,0.0,0.0,0.0,0.0,0.0,0.0,0.0,0.0,0.0,0.0,0.0,0.0,0.0,0.0,0.0,0.0,0.0,0.0,0.0,0.0,0.0,0.0,0.0,0.0,0.0,0.0,0.0,0.0,0.0,0.0,0.0,0.0,0.0,0.0,0.0,0.0,0.0,0.0,0.0,0.0,0.0,0.0,0.0,0.0,0.0,0.0,0.0,0.0,0.0,0.0,0.0,0.0,0.0,0.0,0.0,0.0,0.0,0.0,0.0,0.0,0.0,0.0,0.0,0.0,0.0,0.0,0.0,0.0,0.0,0.0,0.0,0.0,0.0,0.0,-1.7509,-1.9575,-2.1584,-2.3235,-2.3976,-2.3369,-2.1932,-1.9693,-1.6422,-1.4736,0.0,0.0,0.0,0.0,0.0,0.0,0.0,0.0,0.0,0.0,0.0,0.0,0.0,0.0,0.0,0.0,0.0,0.0,0.0,0.0,0.0,0.0,0.0,0.0,0.0,0.0,0.0,0.0,0.0,0.0,0.0,0.0,0.0,0.0,0.0,0.0,0.0,0.0,0.0,0.0,0.0,0.0,0.0,0.0,0.0,0.0,0.0,0.0,0.0,0.0,0.0,0.0,0.0,0.0,0.0,0.0,0.0,0.0,0.0,0.0,0.0,0.0,0.0,0.0,0.0,0.0,0.0,0.0,0.0,0.0,0.0,0.0,0.0,0.0,0.0,0.0,0.0,0.0,0.0,0.0,0.0,0.0,0.0,0.0,0.0,0.0,0.0,0.0,0.0,0.0,0.0,0.0,0.0,0.0,0.0,0.0,0.0,0.0,0.0,0.0,0.0,0.0,-1.8092,-2.0723,-2.1711,-2.3235,-2.4036,-2.3692,-2.1148,-1.8713,-1.6697,-1.3852,0.0,0.0,0.0,0.0,0.0,0.0,0.0,0.0,0.0,0.0,0.0,0.0,0.0,0.0,0.0,0.0,0.0,0.0,0.0,0.0,0.0,0.0,0.0,0.0,0.0,0.0,0.0,0.0,0.0,0.0,0.0,0.0,0.0,0.0,0.0,0.0,0.0,0.0,0.0,0.0,0.0,0.0,0.0,0.0,0.0,0.0,0.0,0.0,0.0,0.0,0.0,0.0,0.0,0.0,0.0,0.0,0.0,0.0,0.0,0.0,0.0,0.0,0.0,0.0,0.0,0.0,0.0,0.0,0.0,0.0,0.0,0.0,0.0,0.0,0.0,0.0,0.0,0.0,0.0,0.0,0.0,0.0,0.0,0.0,0.0,0.0,0.0,0.0,0.0,0.0,0.0,0.0,0.0,0.0,0.0,0.0,0.0,0.0,0.0,0.0,0.0,0.0,-1.7772,-2.0369,0.0,-2.3235,-2.3873,-2.3007,-2.1849,-1.9638,-1.6079,0.0,0.0,0.0,0.0,0.0,0.0,0.0,0.0,0.0,0.0,0.0,0.0,0.0,0.0,0.0,0.0,0.0,0.0,0.0,0.0,0.0,0.0,0.0,0.0,0.0,0.0,0.0,0.0,0.0,0.0,0.0,0.0,0.0,0.0,0.0,0.0,0.0,0.0,0.0,0.0,0.0,0.0,0.0,0.0,0.0,0.0,0.0,0.0,0.0,0.0,0.0,0.0,0.0,0.0,0.0,0.0,0.0,0.0,0.0,0.0,0.0,0.0,0.0,0.0,0.0,0.0,0.0,0.0,0.0,0.0,0.0,0.0,0.0,0.0,0.0,0.0,0.0,0.0,0.0,0.0,0.0,0.0,0.0,0.0,0.0,0.0,0.0,0.0,0.0,0.0,0.0,0.0,0.0,0.0,0.0,0.0,0.0,0.0,0.0,0.0,0.0,0.0,-1.467,-1.7979,-2.0625,0.0,-2.3235,-2.3803,-2.281,-2.1872,-1.9691,-1.5861,0.0,0.0,0.0,0.0,0.0,0.0,0.0,0.0,0.0,0.0,0.0,0.0,0.0,0.0,0.0,0.0,0.0,0.0,0.0,0.0,0.0,0.0,0.0,0.0,0.0,0.0,0.0,0.0,0.0,0.0,0.0,0.0,0.0,0.0,0.0,0.0,0.0,0.0,0.0,0.0,0.0,0.0,0.0,0.0,0.0,0.0,0.0,0.0,0.0,0.0,0.0,0.0,0.0,0.0,0.0,0.0,0.0,0.0,0.0,0.0,0.0,0.0,0.0,0.0,0.0,0.0,0.0,0.0,0.0,0.0,0.0,0.0,0.0,0.0,0.0,0.0,0.0,0.0,0.0,0.0,0.0,0.0,0.0,0.0,0.0,0.0,0.0,0.0,0.0,0.0,0.0,0.0,0.0,0.0,0.0,0.0,0.0,0.0,0.0,0.0,0.0,0.0,-1.4792,-1.8901,-2.1803,-2.1803,-2.3235,-2.3916,-2.3238,-2.0889,-1.8478,0.0,0.0,0.0,0.0,0.0,0.0,0.0,0.0,0.0,0.0,0.0,0.0,0.0,0.0,0.0,0.0,0.0,0.0,0.0,0.0,0.0,0.0,0.0,0.0,0.0,0.0,0.0,0.0,0.0,0.0,0.0,0.0,0.0,0.0,0.0,0.0,0.0,0.0,0.0,0.0,0.0,0.0,0.0,0.0,0.0,0.0,0.0,0.0,0.0,0.0,0.0,0.0,0.0,0.0,0.0,0.0,0.0,0.0,0.0,0.0,0.0,0.0,0.0,0.0,0.0,0.0,0.0,0.0,0.0,0.0,0.0,0.0,0.0,0.0,0.0,0.0,0.0,0.0,0.0,0.0,0.0,0.0,0.0,0.0,0.0,0.0,0.0,0.0,0.0,0.0,0.0,0.0,0.0,0.0,0.0,0.0,0.0,0.0,0.0,0.0,0.0,0.0,0.0,-1.4788,-1.889,-2.1803,-2.1803,-2.3235,-2.3695,-2.2458,-2.176,-1.9639,-1.5578,0.0,0.0,0.0,0.0,0.0,0.0,0.0,0.0,0.0,0.0,0.0,0.0,0.0,0.0,0.0,0.0,0.0,0.0,0.0,0.0,0.0,0.0,0.0,0.0,0.0,0.0,0.0,0.0,0.0,0.0,0.0,0.0,0.0,0.0,0.0,0.0,0.0,0.0,0.0,0.0,0.0,0.0,0.0,0.0,0.0,0.0,0.0,0.0,0.0,0.0,0.0,0.0,0.0,0.0,0.0,0.0,0.0,0.0,0.0,0.0,0.0,0.0,0.0,0.0,0.0,0.0,0.0,0.0,0.0,0.0,0.0,0.0,0.0,0.0,0.0,0.0,0.0,0.0,0.0,0.0,0.0,0.0,0.0,0.0,0.0,0.0,0.0,0.0,0.0,0.0,0.0,0.0,0.0,0.0,0.0,0.0,0.0,0.0,0.0,0.0,0.0,0.0,-1.4867,-1.8976,-2.1885,-2.1885,-2.3342,-2.3708,-2.2212,-2.2227,-2.0392,-1.5883,0.0,0.0,0.0,0.0,0.0,0.0,0.0,0.0,0.0,0.0,0.0,0.0,0.0,0.0,0.0,0.0,0.0,0.0,0.0,0.0,0.0,0.0,0.0,0.0,0.0,0.0,0.0,0.0,0.0,0.0,0.0,0.0,0.0,0.0,0.0,0.0,0.0,0.0,0.0,0.0,0.0,0.0,0.0,0.0,0.0,0.0,0.0,0.0,0.0,0.0,0.0,0.0,0.0,0.0,0.0,0.0,0.0,0.0,0.0,0.0,0.0,0.0,0.0,0.0,0.0,0.0,0.0,0.0,0.0,0.0,0.0,0.0,0.0,0.0,0.0,0.0,0.0,0.0,0.0,0.0,0.0,0.0,0.0,0.0,0.0,0.0,0.0,0.0,0.0,0.0,0.0,0.0,0.0,0.0,0.0,0.0,0.0,0.0,0.0,0.0,0.0,0.0,-1.5107,-1.9152,-2.2058,-2.2133,-2.3561,-2.3902,-2.2359,-2.2405,-2.0785,-1.6759,0.0,0.0,0.0,0.0,0.0,0.0,0.0,0.0,0.0,0.0,0.0,0.0,0.0,0.0,0.0,0.0,0.0,0.0,0.0,0.0,0.0,0.0,0.0,0.0,0.0,0.0,0.0,0.0,0.0,0.0,0.0,0.0,0.0,0.0,0.0,0.0,0.0,0.0,0.0,0.0,0.0,0.0,0.0,0.0,0.0,0.0,0.0,0.0,0.0,0.0,0.0,0.0,0.0,0.0,0.0,0.0,0.0,0.0,0.0,0.0,-1.414,0.0,0.0,0.0,0.0,0.0,0.0,0.0,0.0,0.0,0.0,0.0,0.0,0.0,0.0,0.0,0.0,0.0,0.0,0.0,0.0,0.0,0.0,0.0,0.0,0.0,0.0,0.0,0.0,0.0,0.0,0.0,0.0,0.0,0.0,0.0,0.0,0.0,0.0,0.0,0.0,0.0,-1.5869,-1.963,-2.2477,-2.3126,-2.411,-2.4124,-2.2562,-2.2475,-2.0785,-1.6759,-1.6136,0.0,0.0,0.0,0.0,0.0,0.0,0.0,0.0,0.0,0.0,0.0,0.0,0.0,0.0,0.0,0.0,0.0,0.0,0.0,0.0,0.0,0.0,0.0,0.0,0.0,0.0,0.0,0.0,0.0,0.0,0.0,0.0,0.0,0.0,0.0,0.0,0.0,0.0,0.0,0.0,0.0,0.0,0.0,0.0,0.0,0.0,0.0,0.0,0.0,0.0,0.0,0.0,0.0,0.0,0.0,0.0,0.0,0.0,0.0,0.0,-1.5618,0.0,0.0,0.0,0.0,0.0,0.0,0.0,0.0,0.0,0.0,0.0,0.0,0.0,0.0,0.0,0.0,0.0,0.0,0.0,0.0,0.0,0.0,0.0,0.0,0.0,0.0,0.0,0.0,0.0,0.0,0.0,0.0,0.0,0.0,0.0,0.0,0.0,0.0,0.0,0.0,-1.6752,-2.0139,-2.2716,-2.3544,-2.4397,-2.4252,-2.2639,-2.2592,-2.1222,-1.7901,-1.6859,0.0,0.0,0.0,0.0,0.0,0.0,0.0,0.0,0.0,0.0,0.0,0.0,0.0,0.0,0.0,0.0,0.0,0.0,0.0,0.0,0.0,0.0,0.0,0.0,0.0,0.0,0.0,0.0,0.0,0.0,0.0,0.0,0.0,0.0,0.0,0.0,0.0,0.0,0.0,0.0,0.0,0.0,0.0,0.0,0.0,0.0,0.0,0.0,0.0,0.0,0.0,0.0,0.0,-2.474,-2.3234,-2.0538,-1.9832,-2.0196,-2.1333,-1.9993,-1.9012,-1.8279,-1.7031,0.0,0.0,0.0,0.0,0.0,0.0,0.0,0.0,0.0,0.0,0.0,0.0,0.0,0.0,0.0,0.0,0.0,0.0,0.0,0.0,0.0,0.0,0.0,0.0,-2.0174,-2.0293,-1.6689,0.0,0.0,0.0,0.0,0.0,0.0,0.0,0.0,0.0,0.0,0.0,-1.795,-2.0858,-2.3114,-2.3965,-2.4664,-2.4454,-2.2904,-2.2786,-2.1782,-1.9377,-1.7791,-1.6413,0.0,0.0,0.0,0.0,0.0,0.0,0.0,0.0,0.0,0.0,0.0,0.0,0.0,0.0,0.0,0.0,0.0,0.0,0.0,0.0,0.0,0.0,0.0,0.0,0.0,0.0,0.0,0.0,0.0,0.0,0.0,0.0,-1.2121,-1.3154,0.0,0.0,0.0,0.0,0.0,0.0,0.0,0.0,0.0,0.0,0.0,0.0,0.0,-1.8887,-2.0738,-2.2267,-2.3633,-2.4806,-2.4444,-2.4155,-2.3929,-2.3599,-2.3566,-2.373,-2.3529,0.0,-2.0266,-1.9379,0.0,0.0,0.0,0.0,0.0,0.0,0.0,0.0,0.0,0.0,0.0,0.0,0.0,0.0,0.0,0.0,0.0,0.0,0.0,0.0,0.0,0.0,-2.2488,-2.1704,-2.1959,-2.2238,0.0,-1.94,-1.7153,-1.6027,-1.536,0.0,0.0,0.0,0.0,0.0,0.0,0.0,-1.9726,-2.2262,-2.4197,-2.5014,-2.5206,-2.4879,-2.3967,-2.3207,-2.2043,-2.0235,-1.9203,-1.7947,-1.6355,-1.509,0.0,0.0,0.0,0.0,0.0,0.0,0.0,0.0,0.0,0.0,0.0,0.0,0.0,0.0,0.0,0.0,0.0,0.0,0.0,0.0,0.0,0.0,0.0,0.0,0.0,0.0,0.0,0.0,0.0,-1.2121,-1.3892,-1.3914,-1.4833,-1.5115,0.0,0.0,0.0,0.0,0.0,0.0,0.0,0.0,0.0,-2.0064,-2.0356,-2.11,-2.2325,-2.3793,-2.4504,-2.4469,-2.5208,-2.5449,-2.528,-2.5459,-2.5548,-2.5548,-2.5548,-2.4709,-2.3203,-2.1572,-2.0249,-1.9188,0.0,0.0,0.0,0.0,-1.8831,-1.8827,-1.9958,-2.0224,-1.9954,-1.9147,0.0,0.0,0.0,0.0,0.0,0.0,0.0,0.0,0.0,0.0,-2.362,-2.3591,-2.3784,-2.3942,-2.3942,-2.2551,-2.0762,0.0,-1.8683,-1.7902,-1.5117,0.0,0.0,0.0,0.0,-1.9211,-2.1421,-2.3107,-2.4409,-2.5207,-2.5303,-2.4966,-2.4168,-2.3302,-2.2274,-2.1062,-1.9735,-1.8659,-1.7933,-1.6545,-1.4998,0.0,0.0,0.0,0.0,0.0,0.0,0.0,0.0,0.0,0.0,0.0,0.0,0.0,0.0,0.0,0.0,0.0,0.0,0.0,0.0,0.0,0.0,0.0,0.0,0.0,0.0,0.0,0.0,-1.4041,-1.5645,-1.5345,-1.7182,-1.7874,0.0,0.0,0.0,0.0,0.0,0.0,-1.9883,-2.0095,-2.0888,-2.2468,-2.305,-2.3518,-2.3923,-2.4405,-2.4506,-2.4213,-2.6234,-2.7013,-2.6631,-2.6612,-2.6612,-2.6612,-2.6612,-2.6264,-2.5566,-2.3651,-2.2256,-2.1266,-2.0722,-2.0375,-2.0307,-2.1062,-2.1197,-2.1189,-2.247,-2.2794,-2.2487,-2.1449,-2.0902,-2.0362,-1.8865,0.0,0.0,0.0,0.0,-2.1311,-2.2708,-2.3631,-2.4296,-2.4737,-2.4968,-2.5088,-2.5088,-2.4743,-2.3801,0.0,-2.1625,-2.085,-1.7474,0.0,0.0,0.0,0.0,-2.0745,-2.2862,-2.3882,-2.4639,-2.5245,-2.5303,-2.5063,-2.4447,-2.3629,-2.2754,-2.1889,-2.0446,-1.955,-1.9338,-1.792,-1.6564,-1.5324,0.0,0.0,0.0,0.0,0.0,0.0,0.0,0.0,0.0,0.0,0.0,0.0,0.0,0.0,0.0,0.0,0.0,0.0,0.0,0.0,0.0,0.0,0.0,0.0,0.0,0.0,0.0,0.0,0.0,-1.8733,-1.9698,0.0,0.0,0.0,0.0,-1.888,-2.0402,-2.1702,-2.2563,-2.3383,-2.4511,-2.5996,-2.6073,-2.6294,-2.6692,-2.506,-2.4208,-2.4236,-2.7377,-2.8876,-2.878,-2.7264,-2.6612,-2.6612,-2.6612,-2.6594,-2.6465,-2.5585,-2.4395,-2.3054,-2.2761,-2.2206,-2.1639,-2.2091,-2.218,-2.2219,-2.2927,-2.3374,-2.3613,-2.3563,-2.2756,-2.1814,-2.1771,-2.1316,0.0,0.0,-2.2576,-2.3512,-2.4225,-2.4672,-2.4941,-2.4979,-2.5141,-2.5274,-2.5274,-2.5303,-2.5043,0.0,-2.3283,-2.2419,-2.1369,0.0,-2.1249,-2.1254,-2.202,-2.2946,-2.3906,-2.4736,-2.5264,-2.5303,-2.5303,-2.5284,-2.5245,-2.4505,-2.3667,-2.2793,-2.1889,-2.1023,-2.0273,-1.9357,-1.8101,-1.6448,-1.4601,0.0,0.0,0.0,0.0,0.0,0.0,0.0,0.0,0.0,0.0,0.0,0.0,0.0,0.0,0.0,0.0,0.0,0.0,0.0,0.0,0.0,0.0,0.0,0.0,0.0,0.0,0.0,0.0,-2.0619,-2.2011,0.0,-2.1562,-2.1452,-2.1889,-2.297,-2.3631,-2.4593,-2.6004,-2.625,-2.6586,-2.7122,-2.7015,-2.6921,-2.6898,-2.647,-2.6095,-2.5761,-2.7963,-2.9008,-2.8979,-2.8415,-2.8132,-2.8132,-2.8132,-2.786,-2.7325,-2.6777,-2.5932,-2.4972,-2.4915,-2.4567,-2.4208,-2.4551,-2.4539,-2.4438,-2.5145,-2.5316,-2.5204,-2.4887,-2.4151,-2.3382,-2.3417,-2.3254,-2.3137,-2.3508,-2.3868,-2.4264,-2.47,-2.4924,-2.5034,-2.5163,-2.5253,-2.5303,-2.5303,-2.5322,-2.5226,-2.4928,-2.4659,-2.4033,-2.2645,-2.2832,-2.2995,-2.248,-2.3102,-2.3931,-2.4764,-2.512,-2.5303,-2.5303,-2.5303,-2.5303,-2.5303,-2.4043,-2.3129,-2.2812,-2.1504,-2.06,-2.0312,-1.938,-1.8348,-1.7233,-1.5424,-1.3544,0.0,0.0,0.0,0.0,0.0,0.0,0.0,0.0,0.0,0.0,0.0,0.0,0.0,0.0,0.0,0.0,0.0,0.0,0.0,0.0,0.0,0.0,0.0,0.0,0.0,0.0,-2.1422,-2.2008,-2.3886,-2.4755,-2.3766,-2.4214,-2.5013,-2.6103,-2.6168,-2.6678,-2.7832,-2.7773,-2.7784,-2.7987,-2.7875,-2.7789,-2.7736,-2.7998,-2.7859,-2.7423,-2.8489,-2.8989,-2.8994,-2.8994,-2.8994,-2.8994,-2.8863,-2.8505,-2.7971,-2.7576,-2.7048,-2.6401,-2.5885,-2.5535,-2.5322,-2.5464,-2.5367,-2.5242,-2.5967,-2.608,-2.5877,-2.5847,-2.5438,-2.5016,-2.5016,-2.5016,-2.5037,-2.5171,-2.5058,-2.497,-2.5267,-2.5171,-2.5046,-2.5253,-2.5303,-2.5303,-2.5303,-2.5303,-2.5303,-2.5303,-2.5341,-2.5005,-2.3899,-2.4159,-2.4322,-2.3823,-2.4178,-2.4716,-2.5264,-2.5303,-2.5303,-2.5303,-2.5303,-2.5303,-2.5303,-2.4024,-2.3109,-2.2812,-2.1485,-2.0546,-2.0197,-1.9337,-1.8461,-1.7589,-1.5741,-1.3967,-1.2252,0.0,0.0,0.0,0.0,0.0,0.0,0.0,0.0,0.0,0.0,0.0,0.0,0.0,0.0,0.0,0.0,0.0,0.0,0.0,0.0,0.0,0.0,0.0,-1.9223,-2.1327,-2.2919,-2.3095,-2.5293,-2.6442,-2.5561,-2.7008,-2.7988,-2.7928,-2.7928,-2.7948,-2.7986,-2.7986,-2.8245,-2.8812,-2.885,-2.902,-2.9412,-2.9468,-2.9323,-2.8994,-2.8994,-2.8994,-2.8994,-2.8994,-2.8994,-2.8952,-2.8565,-2.8376,-2.8368,-2.802,-2.7648,-2.7147,-2.5646,-2.5046,-2.5034,-2.4679,-2.4605,-2.4709,-2.5357,-2.5561,-2.5664,-2.6376,-2.6591,-2.6573,-2.6573,-2.6591,-2.6612,-2.6612,-2.6168,-2.5779,-2.5941,-2.5522,-2.5072,-2.5253,-2.5303,-2.5303,-2.5303,-2.5303,-2.5303,-2.5303,-2.5303,-2.5303,-2.5303,-2.5303,-2.5322,-2.539,-2.5341,0.0,-2.539,-2.5341,-2.5303,-2.5303,-2.5303,-2.5303,-2.5303,-2.4543,-2.3706,-2.2851,-2.1966,-2.1011,-2.0031,-1.9353,-1.8501,-1.7499,-1.5602,-1.3711,-1.1889,0.0,0.0,0.0,0.0,0.0,0.0,0.0,0.0,0.0,0.0,0.0,0.0,0.0,0.0,0.0,0.0,0.0,0.0,0.0,0.0,0.0,0.0,-2.1864,-2.1912,-2.3105,-2.4407,-2.5618,-2.6372,-2.6928,-2.7259,-2.7661,-2.817,-2.8717,-2.8775,-2.9044,-2.9679,-2.9717,-2.9691,-2.967,-2.9656,-2.9569,-2.9412,-2.9431,-2.9286,-2.8994,-2.8994,-2.8994,-2.8994,-2.8994,-2.8803,-2.8413,-2.841,-2.8264,-2.7992,-2.7619,-2.7378,-2.7251,-2.6835,-2.6495,-2.626,-2.6464,-2.6692,-2.6988,-2.7187,-2.6843,-2.641,-2.6613,-2.6446,-2.6168,-2.6168,-2.6362,-2.6612,-2.6612,-2.6471,-2.6299,-2.6059,-2.5861,-2.5649,-2.5367,-2.5303,-2.5303,-2.5303,-2.5303,-2.5303,-2.5303,-2.5303,-2.5303,-2.5303,-2.5303,-2.5303,-2.5322,-2.5303,0.0,-2.5322,-2.5303,-2.5322,-2.537,-2.5322,-2.5322,-2.537,-2.4005,-2.3071,-2.2812,-2.1427,-2.0436,-2.0012,-1.9164,-1.8087,-1.6798,-1.5722,-1.472,0.0,0.0,0.0,0.0,0.0,0.0,0.0,0.0,0.0,0.0,0.0,0.0,0.0,0.0,0.0,0.0,0.0,0.0,0.0,0.0,0.0,0.0,-2.2733,-2.4328,-2.5078,-2.5336,-2.5924,-2.7228,-2.7681,-2.805,-2.8472,-2.879,-2.9179,-2.9602,-2.964,-2.9871,-3.0359,-3.0299,-3.0122,-2.9877,-2.9796,-2.957,-2.9225,-2.9225,-2.9156,-2.8994,-2.8994,-2.8994,-2.8994,-2.8994,-2.8827,-2.8542,-2.8453,-2.821,-2.7869,-2.7487,-2.721,0.0,0.0,0.0,0.0,0.0,-2.721,-2.7409,-2.7589,-2.7338,-2.697,-2.7159,-2.7121,-2.7024,-2.7024,-2.7276,-2.7622,-2.7622,-2.7365,-2.7087,-2.7018,-2.6758,-2.6469,-2.6411,-2.639,-2.6294,-2.5928,-2.5851,-2.5736,-2.536,-2.5303,0.0,-2.5303,-2.5303,-2.5303,-2.5341,-2.5322,-2.5303,-2.5341,-2.5322,-2.5303,-2.5341,-2.5322,-2.5322,-2.5341,-2.412,0.0,0.0,0.0,-2.0279,-1.9287,-1.8627,0.0,0.0,0.0,0.0,0.0,0.0,0.0,0.0,-1.3321,-1.3168,0.0,0.0,0.0,0.0,0.0,0.0,0.0,0.0,0.0,0.0,0.0,0.0,0.0,0.0,0.0,0.0,-2.5232,-2.6552,-2.8122,-2.7697,-2.7489,-2.8249,-2.8967,-2.9393,-2.9356,-3.004,-3.0506,-3.0533,-3.0552,-3.059,-3.0679,0.0,0.0,0.0,0.0,-2.9545,-2.9274,-2.925,-2.925,-2.925,-2.9085,-2.9012,-2.9012,-2.8994,-2.9012,-2.8983,-2.8533,-2.8156,-2.7811,-2.7378,-2.7019,-2.6691,-2.6691,-2.6691,-2.6691,-2.6691,-2.6691,-2.6758,-2.7115,0.0,0.0,-2.7648,-2.8047,-2.8342,-2.8342,-2.8633,-2.8929,-2.8994,-2.8503,-2.8009,-2.8295,-2.7851,-2.7411,-2.7781,-2.7879,-2.7659,-2.6794,-2.6601,-2.6351,-2.5457,-2.5303,-2.5303,-2.5303,-2.5303,-2.5322,-2.539,-2.5341,-2.5322,-2.539,-2.5341,-2.5303,-2.5303,0.0,0.0,-2.5303,-2.4562,-2.4082,-2.4072,-2.2342,-2.0493,-1.8655,-1.8346,-1.777,-1.6774,-1.6964,-1.7241,-1.7679,-1.7781,-1.766,-1.7312,-1.5247,-1.4706,0.0,0.0,0.0,0.0,0.0,0.0,0.0,0.0,0.0,0.0,0.0,0.0,0.0,0.0,0.0,-2.4923,-2.6636,-2.8153,-2.9179,-2.9175,-2.9098,-2.9157,-2.9256,-2.956,-3.0186,-3.034,-3.0717,-3.141,-3.1448,-3.1737,-3.2372,-3.2158,-3.1922,-3.1732,-3.1458,-3.1214,-3.0925,-3.0944,-3.0944,-3.0907,0.0,0.0,-2.9009,-2.9007,-2.9009,-2.8946,-2.8282,-2.7765,-2.7378,-2.7004,-2.6791,-2.6691,-2.6691,-2.6691,-2.6691,-2.6691,-2.6691,-2.6725,-2.6791,-2.7019,-2.7272,-2.6987,-2.7409,-2.801,-2.801,-2.8237,0.0,-2.8905,-2.8906,-2.868,-2.8256,-2.8164,-2.8083,-2.7674,-2.7742,-2.7659,-2.6794,-2.6601,-2.6351,-2.5457,-2.5303,-2.5303,-2.5303,-2.5303,-2.5303,-2.5322,-2.5303,-2.5303,-2.5322,-2.5303,-2.5322,-2.537,-2.5322,-2.5322,-2.539,-2.4582,-2.4024,-2.3861,-2.2356,-2.1265,-2.0888,-2.0459,-2.0044,-1.9625,-1.9341,-1.9009,-1.8631,-1.8273,-1.7946,-1.7616,-1.7421,-1.702,0.0,0.0,0.0,0.0,0.0,0.0,0.0,0.0,0.0,0.0,0.0,-2.1138,-2.2943,0.0,-2.5857,-2.7224,-2.8285,-2.9258,-3.0137,-3.0193,-3.0108,-3.0009,-2.9978,-3.009,-3.0417,-3.0814,-3.1237,-3.1679,-3.2064,-3.2487,-3.2872,-3.2546,-3.2313,-3.2204,-3.1797,-3.1555,-3.1384,-3.1384,-3.1384,-3.1384,-3.0583,-2.9777,-2.9022,-2.9826,-2.9958,-2.9521,-2.899,-2.8417,-2.7777,-2.7044,-2.6691,-2.6691,-2.6691,-2.6691,-2.6691,-2.6691,-2.6691,-2.6691,-2.6691,-2.6841,-2.6971,-2.6758,-2.7115,-2.7636,-2.784,-2.8129,-2.8471,-2.8905,-2.8994,-2.8952,-2.879,-2.8838,-2.8874,-2.8764,-2.8848,-2.8746,-2.8014,-2.7852,-2.7467,-2.6197,-2.5947,-2.5813,-2.538,-2.5303,-2.5303,-2.5303,-2.5303,-2.5303,-2.5303,-2.5303,-2.5303,-2.5341,-2.5322,-2.5303,-2.5341,-2.4868,-2.4259,-2.3577,-2.2818,-2.2043,-2.1237,-2.0957,-2.0563,-1.9926,-1.9555,-1.9252,-1.9044,-1.8653,-1.841,-1.8291,-1.8456,-1.8115,0.0,0.0,0.0,0.0,0.0,0.0,0.0,0.0,-2.0247,-2.2133,-2.3077,-2.4243,-2.6431,-2.7058,-2.774,-2.927,-2.9705,-3.0098,-3.0801,-3.0782,-3.0672,-3.061,-3.0588,-3.0525,-3.0398,-3.1198,-3.1756,-3.1929,-3.2699,-3.3237,-3.341,-3.2997,-3.2732,-3.2675,-3.2281,-3.1992,-3.1861,-3.1918,-3.1918,-3.1861,-3.1868,-3.1187,-2.9977,-3.1268,-3.1389,-3.0538,-2.9879,-2.9183,-2.844,-2.7522,-2.7046,-2.6911,-2.6792,-2.6759,-2.6691,-2.6691,-2.6691,-2.6691,-2.6691,-2.6758,-2.6825,-2.6825,-2.7083,-2.747,-2.788,-2.8183,-2.8471,-2.8905,-2.8994,-2.9044,-2.9267,-2.9372,-2.9474,-2.9796,-2.9954,-2.9813,-2.9186,-2.9071,-2.8602,-2.6928,-2.6601,-2.6332,-2.5437,-2.5303,-2.5303,-2.5303,-2.5303,-2.5303,-2.5303,-2.5303,-2.5303,-2.5303,-2.5264,-2.5224,-2.5212,-2.5018,-2.4506,-2.3596,-2.3373,-2.2703,-2.1391,-2.1136,-2.0649,-1.9855,-1.9412,-1.9263,-1.9425,-1.9038,-1.8939,-1.9043,-1.9043,-1.8693,-1.5244,-1.573,0.0,-1.8385,-1.8996,-2.0255,0.0,0.0,-2.4977,-2.685,-2.7322,-2.7505,-2.7932,-2.8655,-2.9279,-2.9535,-3.0234,-3.0781,-3.0898,-3.0782,-3.0671,-3.0609,-3.0548,-3.0487,-3.0398,-3.1198,-3.2006,-3.2718,-3.3564,-3.4391,-3.518,-3.4936,-3.466,-3.443,-3.435,-3.4068,-3.3532,-3.3765,-3.3784,-3.3532,-3.3537,-3.3434,-3.3261,-3.3462,-3.3062,-3.2125,-3.0304,-2.9282,-2.8912,-2.8791,-2.8315,-2.7619,-2.7208,-2.6916,-2.6691,-2.6691,-2.6691,-2.6691,-2.6691,-2.6939,-2.7224,-2.7224,-2.7517,-2.7897,-2.8237,-2.8368,-2.8471,-2.8905,-2.8994,-2.9017,-2.904,-2.9225,-2.9412,-2.9454,-2.9748,-2.9785,-2.9011,-2.8969,-2.8602,-2.6928,-2.6601,-2.6332,-2.5437,-2.5303,-2.5303,-2.5303,-2.5303,-2.5303,-2.5303,-2.5303,-2.5303,-2.5303,-2.5141,-2.4993,-2.4874,-2.4666,-2.4505,-2.4381,-2.364,-2.3127,-2.2964,-2.2024,-2.1483,-2.1351,-2.0575,-2.0146,-2.0172,-1.9788,-1.9615,-1.9603,-1.9603,-1.9325,-1.9415,0.0,0.0,0.0,-2.357,-2.4577,-2.6612,-2.6829,-2.6986,-2.836,-2.8732,-2.8973,-2.9509,-2.9983,-3.0317,0.0,-3.0664,-3.0898,-3.0898,-3.074,-3.0626,-3.0606,-3.0506,-3.0417,-3.0398,-3.1198,-3.2025,-3.2833,-3.3699,-3.4584,-3.5449,-3.5258,-3.5053,-3.4944,-3.4774,-3.4486,-3.4043,-3.4147,-3.4068,-3.3807,-3.3797,-3.3805,-3.3805,-3.3799,-3.3248,-3.2172,-3.0542,-2.953,-2.9011,-2.9011,-2.8789,-2.8448,-2.7898,-2.7544,-2.7266,-2.6569,-2.6487,-2.6691,-2.6691,-2.6808,-2.6971,-2.6971,-2.7224,-2.7619,-2.7992,-2.8264,-2.8471,-2.8905,-2.8994,-2.8994,-2.8994,-2.9089,-2.9222,-2.9372,-2.9532,-2.9619,-2.9516,-2.9555,-2.9174,-2.7638,-2.7351,-2.6928,-2.5534,-2.5303,-2.5303,-2.5303,-2.5303,-2.5303,-2.5303,-2.5303,-2.5264,-2.5141,-2.4981,-2.4809,-2.4639,-2.4561,-2.4373,-2.4041,-2.3678,-2.3323,-2.2923,-2.2235,-2.1698,-2.1244,-2.0601,-2.0177,-1.9929,-1.9782,-1.953,-1.9244,-1.8893,-1.865,-2.2246,0.0,0.0,-2.6001,-2.6862,-2.7766,-2.7969,-2.8198,-2.8581,-2.9329,-2.9629,-2.9901,-3.0516,-3.0788,-3.0898,-3.0898,-3.1094,-3.115,-3.0888,-3.0921,-3.0851,-3.0598,-3.0467,-3.0398,-3.0398,-3.1198,-3.2025,-3.2833,-3.3699,-3.4584,-3.5449,-3.5304,-3.519,-3.5105,-3.4981,-3.4695,-3.42,-3.4292,-3.4165,-3.3807,-3.3807,-3.3807,-3.3762,-3.3309,-3.2613,-3.1812,-3.0813,-3.0091,-2.96,-2.96,-2.9482,-2.9242,-2.8487,-2.8158,-2.7973,-2.6574,-2.6322,-2.6691,-2.6691,-2.6691,-2.6725,-2.6841,-2.7051,-2.7378,-2.788,-2.821,-2.8471,-2.8905,-2.8994,-2.8994,-2.8994,-2.8994,-2.9044,-2.9246,-2.9351,-2.9474,-2.9763,-2.9877,-2.955,-2.8281,-2.7896,-2.7305,-2.5817,-2.5367,-2.5214,-2.5214,-2.5182,-2.5171,-2.5214,-2.5182,-2.5084,-2.4885,-2.4785,-2.4639,-2.4426,-2.432,-2.4117,-2.3714,-2.3522,-2.3165,-2.2548,-2.2068,-2.1486,-2.0829,-2.0348,-1.9929,-1.9479,-1.9479,-1.9207,-1.865,-1.8302,-1.8027,0.0,0.0,-2.5752,-2.5958,-2.7385,-2.8804,-2.901,-2.9706,-3.034,-3.0448,-3.0518,-3.0588,-3.0675,-3.0801,-3.0898,-3.0898,-3.1601,-3.1811,-3.0848,-3.1374,-3.1518,-3.0617,-3.0448,-3.0398,0.0,-3.1198,-3.2025,-3.2833,-3.3699,-3.4584,-3.5449,-3.5493,-3.5369,-3.5105,-3.5335,-3.5086,-3.42,-3.4529,-3.4394,-3.3807,-3.3807,-3.3807,-3.3743,-3.2045,-3.1271,-3.1248,-3.1181,-3.114,-3.1123,-3.1123,-3.0717,-2.9943,-2.8802,-2.8624,-2.873,-2.6893,-2.6405,-2.6691,-2.6691,-2.6691,-2.6741,-2.7147,-2.7303,-2.7439,-2.8166,-2.8394,-2.8471,-2.8905,-2.8994,-2.8994,-2.8994,-2.8994,-2.9017,-2.9017,-2.9203,-2.9412,-2.9433,-2.957,-2.9449,-2.8563,-2.7907,-2.7235,-2.6327,-2.5532,-2.501,-2.501,-2.4891,-2.4869,-2.4998,-2.491,-2.4746,-2.4545,-2.4512,-2.4445,-2.4228,-2.3917,-2.3714,-2.3692,-2.3093,-2.2548,-2.2152,-2.1428,-2.0829,-2.0348,-1.9909,-1.9442,-1.893,-1.893,-1.865,-1.8145,-1.8106,-1.7827,0.0,0.0,-2.7947,-2.8715,-2.9391,-3.0023,-3.0686,-3.0602,-3.0244,-2.9752,-2.9667,-2.9533,-2.9067,-2.9045,-2.9297,-2.9883,-3.0742,-3.1184,-3.0769,-3.1888,-3.221,-3.0691,-3.0948,0.0,0.0,0.0,0.0,-3.2795,-3.316,-3.3968,-3.543,-3.5493,-3.5446,-3.5369,-3.5446,-3.527,-3.4813,-3.4734,-3.4486,-3.4068,-3.3876,-3.3806,-3.3741,-3.1986,-3.1185,-3.1198,-3.1218,-3.119,-3.119,-3.119,-3.0824,-3.0153,-2.9362,-2.9095,-2.9025,-2.7978,-2.7863,-2.8061,-2.7046,-2.6691,-2.6725,-2.6873,-2.7083,-2.7378,-2.7908,-2.8237,-2.8471,-2.8905,-2.8994,-2.8994,-2.8994,-2.8994,-2.8994,-2.8994,-2.9067,-2.9181,-2.9372,-2.9454,-2.9289,-2.855,-2.8237,-2.7661,-2.6303,-2.5844,-2.548,-2.4945,-2.4828,-2.4818,-2.4869,-2.4712,-2.4594,-2.4512,-2.4174,-2.3941,-2.3858,-2.3566,-2.3259,-2.3045,-2.2822,-2.2415,-2.1786,-2.1259,-2.0797,-2.0314,-1.9558,-1.908,-1.8893,-1.8535,-1.8302,-1.8106,-1.7747,-1.7463,0.0,-2.8579,-2.9983,-3.1027,-3.1083,-3.1006,-3.1564,-3.0775,-2.9802,-2.9298,-2.8961,-2.8637,-2.8217,-2.8165,-2.8488,-2.9394,-3.0566,-3.1309,-3.1148,-3.2579,-3.3077,-3.1545,-3.1814,-3.191,0.0,0.0,0.0,-3.2814,-3.3179,-3.3987,-3.543,-3.5493,-3.5493,-3.5493,-3.5417,-3.5223,-3.4963,-3.4655,-3.4375,-3.4068,-3.3876,-3.3626,-3.3306,-3.1855,-3.1184,-3.119,-3.119,-3.119,-3.119,-3.0975,-3.0658,-3.0208,-2.9406,-2.9311,-2.9469,-2.8603,-2.8747,-2.9161,-2.7621,-2.7097,-2.7046,-2.6776,-2.6873,-2.7147,-2.756,-2.7936,-2.829,-2.87,-2.8905,-2.8994,-2.8994,-2.8994,-2.8994,-2.8994,-2.8994,-2.9062,-2.9203,-2.9246,-2.9142,-2.8707,-2.8446,-2.7957,-2.6926,-2.6268,-2.5595,-2.4722,-2.4594,-2.4607,-2.4685,-2.4528,-2.4393,-2.4393,-2.3979,-2.3692,-2.3692,-2.3282,-2.2923,-2.2721,-2.2625,-2.2203,-2.143,-2.115,-2.0698,-2.0089,-1.9485,-1.9006,-1.8612,-1.8263,-1.7907,-1.7504,-1.7146,-1.6993,-2.9565,-3.0758,-3.1718,-3.2731,-3.2333,-3.1698,-3.1698,-3.0352,-2.9083,-2.9029,-2.8405,-2.7868,0.0,0.0,-2.8299,-2.9235,-3.0898,-3.202,-3.1916,-3.3402,-3.4103,0.0,0.0,0.0,0.0,0.0,0.0,-3.2968,0.0,-3.4584,-3.5449,-3.5493,-3.5493,-3.5493,-3.5239,-3.4981,-3.4714,-3.4379,-3.4068,-3.3807,-3.3807,-3.3361,-3.255,-3.1628,-3.1237,-3.123,-3.119,-3.119,-3.1151,-3.0559,-3.0293,-3.0123,-2.9012,-2.9225,-3.0084,-2.8828,-2.9108,-2.9956,-2.845,-2.7857,-2.7671,-2.6979,-2.6725,-2.6791,-2.7178,-2.756,-2.7982,-2.8316,-2.8682,-2.8994,-2.8994,-2.8994,-2.8994,-2.8994,-2.8994,-2.8994,-2.8994,-2.8994,-2.8994,-2.8994,-2.8498,-2.8087,-2.8087,-2.6767,-2.5412,-2.4412,-2.4263,-2.4321,-2.4479,-2.4321,-2.419,-2.419,-2.3896,-2.3671,-2.3671,-2.3069,-2.2669,-2.2669,-2.2409,-2.1886,-2.1039,-2.0959,-2.0581,-1.9726,-1.969,-1.9132,-1.8106,-1.8066,-1.7504,-1.6522,-1.6522,-1.6522,-2.9947,-3.1282,-3.2737,-3.3641,-3.2776,-3.1698,-3.1698,-3.0352,-2.8582,-2.6745,-2.6207,-2.5505,-2.3679,0.0,0.0,-2.6406,-2.8547,0.0,-3.166,-3.3287,0.0,0.0,0.0,-3.3603,-3.2968,-3.3487,0.0,0.0,-3.4064,-3.4584,-3.5449,-3.5493,-3.5493,-3.5493,-3.5239,-3.507,-3.4999,-3.4564,-3.4167,-3.3807,-3.3807,-3.3678,-3.3417,-3.188,-3.1446,-3.1832,-3.1419,-3.119,-3.119,-3.1015,-3.0435,-2.9585,-2.9271,-2.9361,-2.9613,-2.9243,-2.9887,-3.0784,-2.9854,-2.8772,-2.7755,-2.7588,-2.7148,-2.6791,-2.7178,-2.756,-2.7982,-2.8316,-2.8682,-2.8994,-2.8994,-2.8994,-2.8994,-2.8994,-2.8994,-2.8994,-2.8994,-2.8994,-2.8994,-2.8994,-2.8382,-2.7877,-2.7877,-2.7048,-2.6068,-2.5219,-2.509,-2.4908,-2.4358,-2.4228,-2.419,-2.419,-2.3671,-2.3323,-2.3323,-2.2747,-2.2398,-2.2398,-2.2015,-2.1538,-2.1023,-2.0649,-2.0227,-1.9726,-1.9332,-1.8765,-1.8106,-1.7706,-1.7146,-1.6522,-1.6522,-1.6522,-3.1684,-3.2954,-3.4064,-3.416,-3.3199,-3.1929,-3.0814,-2.9236,-2.7294,-2.4803,-2.4274,0.0,-2.1554,0.0,0.0,0.0,0.0,0.0,-3.1576,-3.3237,-3.4237,0.0,-3.4468,0.0,-3.4083,-3.4487,-3.4776,0.0,-3.4776,-3.4988,-3.5468,-3.5493,-3.5493,-3.5493,-3.5239,-3.5,-3.4792,-3.4358,-3.4035,-3.3807,-3.3807,-3.3789,-3.3762,-3.2519,-3.1996,-3.1946,0.0,-3.1351,-3.1151,-3.0617,-3.0038,-2.9361,-2.881,-2.895,-2.9406,-2.9406,-3.0166,-3.114,-3.0734,-2.9803,-2.8772,-2.8433,-2.7824,-2.7216,-2.7467,-2.7563,-2.7707,-2.8075,-2.8438,-2.8773,-2.8952,-2.8994,-2.8994,-2.8994,-2.8994,-2.8994,-2.8994,-2.8994,-2.8994,-2.8994,-2.865,-2.8209,-2.786,-2.742,-2.6722,-2.5586,-2.5403,-2.5127,-2.43,-2.419,-2.4151,-2.3996,-2.3522,-2.3141,-2.2996,-2.2571,-2.2209,-2.2003,-2.1764,-2.1337,-2.0715,-2.0449,-2.0124,-1.9726,-1.9169,-1.865,-1.8106,-1.7544,-1.7034,-1.6522,-1.6522,-1.6522,-3.373,-3.4834,-3.5295,-3.441,-3.3449,-3.2064,-2.9525,-2.7544,-2.5553,-2.3083,0.0,0.0,-2.043,0.0,-2.3784,-2.406,0.0,-2.9521,-3.1359,-3.2968,-3.4295,-3.5218,-3.543,-3.5493,-3.5493,-3.5493,-3.5493,-3.5493,-3.5493,-3.5493,-3.5493,-3.5493,-3.5493,-3.5446,-3.519,-3.4831,-3.4335,-3.3972,-3.3807,-3.3807,-3.3807,-3.3799,-3.3767,-3.3262,-3.2606,-3.188,-3.1825,-3.1565,-3.1112,-3.0081,-2.9585,-2.9406,-2.8352,-2.8575,-2.954,-2.954,-3.0143,-3.1072,-3.1157,-3.0717,-2.9989,-2.9347,-2.8535,-2.7789,-2.7789,-2.757,-2.7378,-2.7783,-2.8129,-2.8496,-2.8905,-2.8994,-2.8994,-2.8994,-2.8994,-2.8994,-2.8994,-2.8994,-2.8994,-2.8994,-2.8994,-2.8796,-2.8081,-2.7952,-2.7402,-2.5807,-2.5568,-2.5217,-2.4261,-2.4113,-2.4016,-2.3735,-2.3369,-2.3021,-2.2721,-2.2409,-2.2032,-2.1628,-2.1491,-2.1102,-2.0348,-2.0246,-2.0019,-1.9603,-1.9132,-1.8612,-1.7987,-1.7544,-1.7034,-1.6522,-1.6522,-1.6522,-3.393,-3.4834,-3.5295,-3.441,-3.3045,-3.1237,-2.8679,-2.6246,0.0,0.0,0.0,-1.9461,-1.8525,-1.9821,0.0,-2.2919,0.0,0.0,0.0,0.0,-3.2718,0.0,0.0,0.0,0.0,0.0,0.0,0.0,0.0,-3.5493,-3.5493,-3.5493,-3.5383,-3.519,-3.5021,-3.4612,-3.3915,-3.3817,-3.3807,-3.3807,-3.3807,-3.3798,-3.3781,-3.3241,-3.2764,-3.235,-3.1951,0.0,-3.119,-3.0975,-3.0601,-3.0123,-2.9892,-2.9978,-3.0123,-3.0123,-3.0194,-3.0378,-3.0987,-3.0717,-3.0091,-2.9956,-2.8958,-2.7789,-2.7789,-2.757,-2.7378,-2.7783,-2.8129,-2.8496,-2.8905,-2.8994,-2.8994,-2.8994,-2.8994,-2.8994,-2.8994,-2.8994,-2.8994,-2.8994,-2.8994,-2.8957,-2.8833,-2.8796,-2.8264,-2.6631,-2.6392,-2.5758,-2.3997,-2.3795,-2.3756,-2.3714,-2.3141,-2.2772,-2.2695,-2.2091,-2.1688,-2.1628,-2.0927,-2.0483,-2.0314,-1.9965,-1.9551,-1.9043,-1.8968,-1.8419,-1.7422,-1.7353,-1.7034,-1.6522,-1.6522,-1.6522,-3.3556,-3.44,-3.4576,-3.3576,-3.2486,-3.0794,-2.7332,0.0,0.0,0.0,0.0,-1.8003,-1.6778,0.0,0.0,0.0,0.0,0.0,0.0,0.0,0.0,0.0,0.0,0.0,0.0,0.0,0.0,0.0,0.0,-3.5493,-3.5493,-3.5493,-3.5446,-3.5304,-3.5034,-3.4831,-3.4692,-3.411,-3.3799,-3.3807,-3.3807,-3.3807,-3.3788,-3.3306,-3.2898,-3.2484,-3.1986,-3.1565,-3.119,-3.0878,-3.0559,-3.0251,-2.9935,-3.0021,-3.0293,-3.0293,-3.0209,-3.0159,-3.0497,-3.0142,-2.9533,-2.9533,-2.9025,-2.8349,-2.7943,-2.742,-2.7051,-2.747,-2.7851,-2.821,-2.859,-2.8839,-2.8994,-2.8994,-2.8994,-2.8994,-2.8994,-2.8994,-2.8994,-2.8994,-2.8994,-2.8994,-2.8994,-2.8994,-2.8613,-2.7402,-2.7218,-2.6527,-2.4567,-2.4154,-2.3832,-2.3242,-2.2898,-2.2521,-2.2158,-2.1803,-2.143,-2.0959,-2.0534,-2.0227,-2.0,-1.9818,-1.9442,-1.8893,-1.8612,-1.8106,-1.7312,-1.7034,-1.6752,-1.6522,-1.6522,-1.6522,-3.2959,-3.3704,-3.3599,-3.2504,-3.1661,-3.0054,-2.6187,-2.3735,0.0,0.0,0.0,-1.6837,-1.5759,0.0,0.0,0.0,0.0,0.0,0.0,0.0,0.0,0.0,0.0,0.0,0.0,0.0,0.0,0.0,0.0,-3.5493,-3.5493,-3.5493,-3.5493,-3.5493,-3.52,-3.517,-3.5514,-3.4364,-3.3827,-3.3913,-3.3834,-3.3807,-3.3807,-3.3465,-3.3045,-3.2484,-3.2092,-3.1677,-3.1151,-3.0699,-3.0477,-3.0435,-2.9995,-3.0081,-3.0477,-3.0477,-3.0229,-2.9888,-3.0057,-2.9499,-2.8738,-2.8738,-2.8738,-2.8619,-2.801,-2.7283,-2.6808,-2.7303,-2.7666,-2.801,-2.8438,-2.8773,-2.8994,-2.8994,-2.8994,-2.8994,-2.8994,-2.8994,-2.8994,-2.8994,-2.8994,-2.8994,-2.8994,-2.8994,-2.8741,-2.7915,-2.7743,-2.7018,-2.527,-2.474,-2.4094,-2.2962,-2.2712,-2.2368,-2.1807,-2.1598,-2.1165,-2.0483,-2.028,-2.0035,-1.9711,-1.969,-1.9406,-1.8727,-1.8302,-1.7787,-1.7105,-1.671,-1.6522,-1.6522,-1.6522,-1.6522,-3.2301,-3.2714,-3.2539,-3.163,-3.0238,-2.8421,-2.5868,0.0,0.0,0.0,-1.6484,-1.5624,-1.6258,-1.6692,0.0,0.0,0.0,0.0,0.0,0.0,0.0,0.0,0.0,0.0,0.0,0.0,0.0,0.0,0.0,-3.5493,-3.5493,-3.5493,-3.5493,-3.5493,-3.5449,-3.5448,-3.5488,-3.4358,-3.3966,-3.4344,-3.3965,-3.3807,-3.3807,-3.3762,-3.3284,-3.2484,-3.2451,-3.195,0.0,-3.1151,-3.1112,-3.1112,-3.1055,-3.1055,-3.1112,-3.1112,-3.0256,-2.9194,-2.9871,-2.9144,-2.7891,-2.7891,-2.7891,-2.7891,-2.7806,-2.7283,-2.6873,-2.7619,-2.7869,-2.8065,-2.8767,-2.8952,-2.8994,-2.8994,-2.8994,-2.8994,-2.8994,-2.8994,-2.8994,-2.8994,-2.8994,-2.8994,-2.8994,-2.8994,-2.8741,-2.7915,-2.7505,-2.6831,-2.561,-2.5145,-2.4522,-2.3447,-2.2756,-2.2293,-2.2237,-2.1524,-2.1023,-2.0926,-2.0174,-1.9747,-1.969,-1.969,-1.9207,-1.8185,-1.8145,-1.7585,-1.6552,-1.6522,-1.6522,-1.6522,-1.6522,-1.6522,-3.0443,-3.1293,-3.1695,-3.1189,-2.9908,-2.8185,-2.5849,0.0,0.0,-1.8061,-1.6369,-1.5311,-1.565,-1.6162,-1.703,0.0,-1.9597,-2.1171,0.0,0.0,0.0,0.0,0.0,0.0,0.0,0.0,0.0,0.0,-3.5526,-3.5493,-3.5493,-3.5493,-3.5493,-3.5493,-3.5513,-3.5484,-3.5503,-3.462,-3.4229,-3.4386,-3.4009,-3.3807,-3.3788,-3.355,-3.3273,-3.2872,-3.2332,-3.1861,0.0,-3.1291,-3.119,-3.119,-3.119,-3.119,-3.114,-3.07,-2.9888,-2.8958,-2.8789,-2.8027,-2.7148,-2.7148,-2.7148,-2.7148,-2.7148,-2.6928,-2.6825,-2.7378,-2.7707,-2.7982,-2.8255,-2.8507,-2.8682,-2.8929,-2.8994,-2.8994,-2.8994,-2.8994,-2.8994,-2.8994,-2.8994,-2.8994,-2.8994,-2.8994,-2.8906,-2.8576,-2.8185,-2.7536,-2.6411,-2.5967,-2.5304,-2.4181,-2.3393,-2.268,-2.1932,-2.1354,-2.0894,-2.0583,-2.005,-1.969,-1.969,-1.969,-1.9207,-1.8145,-1.8106,-1.7585,-1.6522,-1.6522,-1.6522,-1.6522,-1.6522,-1.6522,-2.8572,-2.9474,-3.0026,-2.9844,-2.8888,-2.7374,0.0,0.0,-1.9735,-1.7753,-1.6195,-1.5189,-1.5189,-1.5727,-1.6513,0.0,-1.8546,-2.0119,-2.2929,0.0,0.0,0.0,0.0,0.0,0.0,0.0,0.0,0.0,-3.5565,-3.5526,-3.5493,-3.5493,-3.5493,-3.5493,-3.5493,-3.5494,-3.549,-3.4868,-3.4542,-3.4469,-3.4099,-3.3876,-3.3788,-3.3522,-3.3302,-3.3154,-3.25,-3.2057,0.0,-3.1524,-3.1346,-3.1173,-3.0954,-3.0869,-3.0784,-3.0057,-2.9296,-2.8552,-2.801,-2.7334,-2.6691,-2.6691,-2.6691,-2.6691,-2.6691,-2.6691,-2.6808,-2.7317,-2.7851,-2.8201,-2.8075,-2.8316,-2.8658,-2.8929,-2.8994,-2.8994,-2.8994,-2.8994,-2.8994,-2.8994,-2.8994,-2.8994,-2.8994,-2.8905,-2.8839,-2.8839,-2.8394,-2.7806,-2.7042,-2.6596,-2.5973,-2.4913,-2.4357,-2.3479,-2.2038,-2.1374,-2.0797,-2.0348,-1.9909,-1.969,-1.969,-1.969,-1.9207,-1.8145,-1.8106,-1.7585,-1.6522,-1.6522,-1.6522,-1.6522,-1.6522,-1.648,-2.6881,-2.7223,-2.7242,-2.7242,-2.6623,-2.5485,0.0,-2.1523,-1.9581,-1.7042,-1.5811,-1.5189,-1.5189,-1.5253,-1.5855,-1.7523,-1.8593,-2.0334,-2.3625,0.0,0.0,0.0,0.0,0.0,0.0,0.0,0.0,0.0,-3.5603,0.0,-3.5493,-3.5493,-3.5493,-3.5493,-3.5493,-3.5493,-3.5493,-3.5108,-3.483,-3.4694,-3.4357,-3.4068,-3.3807,-3.3807,-3.3578,-3.3214,-3.3184,-3.2663,0.0,-3.1877,-3.1617,-3.1123,-3.0395,-3.0125,-3.0023,-2.9262,-2.8501,-2.7806,-2.7789,-2.7334,-2.6691,-2.6691,-2.6691,-2.6691,-2.6691,-2.6691,-2.6873,-2.7648,-2.843,-2.8905,-2.8515,-2.8682,-2.8994,-2.8994,-2.8994,-2.8994,-2.8994,-2.8994,-2.8994,-2.8994,-2.8994,-2.8994,-2.8994,-2.8658,-2.842,-2.842,-2.7776,-2.7303,-2.7286,-2.6954,-2.6404,-2.5676,-2.5592,-2.479,-2.2845,-2.1633,-2.0797,-2.0348,-1.9909,-1.969,-1.969,-1.969,-1.9207,-1.8145,-1.8106,-1.7585,-1.6522,-1.6522,-1.6522,-1.6522,-1.6522,-1.6414,-2.3916,-2.4384,-2.4682,-2.4138,-2.3796,-2.3163,-2.1472,-2.0215,-1.8857,-1.6907,-1.5811,-1.5189,-1.5189,-1.5214,-1.5984,-1.8254,-1.8869,0.0,0.0,0.0,0.0,0.0,0.0,0.0,0.0,0.0,0.0,-3.5864,-3.5709,-3.56,-3.5639,-3.5558,-3.5493,-3.5493,-3.5493,-3.5493,-3.5493,-3.5184,-3.5032,-3.4963,-3.4467,-3.4171,-3.4068,-3.3876,-3.3734,-3.3578,-3.3302,-3.284,-3.2282,-3.195,-3.1291,-3.0429,-3.0192,-2.9786,-2.9245,-2.8467,-2.8027,-2.774,-2.7232,-2.6894,-2.6691,-2.6691,-2.6691,-2.6691,-2.6691,-2.6906,-2.7255,-2.8029,-2.8047,-2.7992,-2.8633,-2.8533,-2.8378,-2.8881,-2.8994,-2.8994,-2.8994,-2.8994,-2.8994,-2.8994,-2.8773,-2.859,-2.859,-2.829,-2.8047,-2.8047,-2.7619,-2.7303,-2.7303,-2.6971,-2.6607,-2.637,-2.5564,-2.4398,-2.283,-2.2118,-2.1355,-2.0379,-1.9909,-1.969,-1.969,-1.969,-1.9207,-1.8145,-1.8106,-1.7585,-1.6522,-1.6522,-1.6722,-1.7112,-1.7112,-1.6781,0.0,-2.1931,-2.2178,-2.1673,-2.1559,-2.1164,-1.9665,-1.8888,-1.803,-1.6369,-1.558,-1.5189,-1.5189,-1.5189,-1.592,-1.815,-1.8792,0.0,0.0,0.0,0.0,0.0,0.0,0.0,0.0,0.0,0.0,-3.5996,-3.586,-3.5768,-3.5807,-3.5731,-3.5641,-3.5493,-3.5493,-3.5493,-3.5493,-3.532,-3.5207,-3.5088,-3.4615,-3.4334,-3.4176,-3.391,-3.3807,-3.3807,-3.3522,-3.3057,0.0,-3.2161,-3.1282,-3.0074,-2.9786,-2.9211,-2.845,-2.7672,-2.7402,-2.7334,-2.686,-2.6691,-2.6691,-2.6691,-2.6691,-2.6725,-2.6873,-2.7083,-2.7409,-2.7862,-2.7844,-2.789,-2.8608,-2.8558,-2.843,-2.8881,-2.8994,-2.8994,-2.8994,-2.8994,-2.897,-2.8797,-2.8565,-2.8368,-2.8237,-2.7908,-2.7678,-2.7678,-2.7317,-2.7083,-2.7083,-2.6841,-2.6691,-2.6691,-2.5829,-2.4705,-2.339,-2.2609,-2.1804,-2.0901,-2.0609,-2.0438,-2.0438,-2.0438,-2.0029,-1.9162,-1.8905,-1.8368,-1.7465,-1.727,-1.7338,-1.7689,-1.7689,-1.7231,0.0,-1.9611,-1.9659,-1.9659,-1.9716,-1.9354,-1.786,-1.7561,0.0,-1.5541,-1.5189,-1.5228,-1.5368,-1.5324,-1.5907,-1.7753,0.0,0.0,0.0,0.0,0.0,0.0,0.0,0.0,0.0,0.0,-3.5863,-3.5995,-3.5996,-3.6005,-3.6008,-3.5998,-3.5849,-3.5545,-3.5526,-3.5493,-3.5493,-3.5493,-3.5369,-3.5122,-3.4851,-3.4529,-3.4242,-3.391,-3.3807,0.0,-3.3807,-3.3314,-3.255,-3.2517,-3.1586,-3.0061,-2.9367,-2.8552,-2.7705,-2.7029,-2.6742,-2.6691,-2.6691,-2.6691,-2.6691,-2.6691,-2.6691,-2.6791,-2.7147,-2.7272,-2.7272,-2.7334,-2.7787,-2.8298,-2.8368,-2.8633,-2.8881,-2.8905,-2.8929,-2.8929,-2.8929,-2.8929,-2.8815,-2.8446,-2.8324,-2.8219,-2.7926,-2.753,-2.7272,-2.7272,-2.6939,-2.6691,-2.6691,-2.6691,-2.6691,-2.6691,-2.6262,-2.5501,-2.4381,-2.3105,-2.2187,-2.1734,-2.1695,-2.1695,-2.1695,-2.1695,-2.144,-2.0905,-2.0217,-1.9595,-1.9027,-1.8448,-1.8229,-1.8267,-1.8267,-1.7724,-1.4922,0.0,-1.6335,-1.6335,-1.684,-1.7039,0.0,-1.6292,-1.6484,0.0,0.0,-1.5599,-1.6888,-1.6599,-1.7388,0.0,0.0,0.0,0.0,0.0,0.0,0.0,0.0,0.0,0.0,0.0,-3.596,-3.5996,-3.5996,-3.5995,-3.6009,-3.5996,-3.595,-3.588,-3.568,-3.5565,-3.5493,-3.5493,-3.5479,-3.5398,-3.4926,-3.4653,-3.4551,-3.4037,-3.3807,-3.3807,-3.3807,-3.3522,-3.3014,-3.2648,-3.1723,-3.0523,-3.002,-2.9025,-2.7772,-2.7621,-2.7182,-2.6691,-2.6691,-2.6691,-2.6691,-2.6691,-2.6691,-2.6725,-2.6808,-2.6841,-2.6971,-2.7607,-2.7439,-2.7238,-2.7851,-2.7851,-2.7794,-2.8093,-2.8147,-2.8147,-2.8147,-2.8147,-2.812,-2.8037,-2.7747,-2.7512,-2.7439,-2.7115,-2.6841,-2.6841,-2.6758,-2.6691,-2.6691,-2.6691,-2.6691,-2.6691,-2.5892,-2.5271,-2.4981,-2.3833,-2.2716,-2.1764,-2.1695,-2.1695,-2.1695,-2.1695,-2.144,-2.0905,-1.9828,-1.9008,-1.8414,-1.8286,-1.8417,-1.8832,-1.8832,-1.8328,-1.2536,-1.4234,-1.5888,-1.6253,-1.6696,-1.6926,-1.6445,0.0,0.0,0.0,0.0,0.0,-1.6907,0.0,0.0,0.0,0.0,0.0,0.0,0.0,0.0,0.0,0.0,0.0,0.0,0.0,-3.5996,-3.5996,-3.5996,-3.5996,-3.5996,-3.5996,-3.5962,-3.5923,-3.5737,-3.5601,-3.5545,-3.5526,-3.5493,-3.5493,-3.4963,-3.4694,-3.4674,-3.408,-3.3807,-3.3807,-3.3807,-3.3578,-3.3154,-3.2681,-3.1774,-3.0681,-3.0245,-2.9381,-2.8315,-2.796,-2.7571,-2.7165,-2.681,-2.6691,-2.6691,-2.6691,-2.6691,-2.6691,-2.6691,-2.6691,-2.6841,-2.7439,-2.7303,-2.7115,-2.7754,-2.7754,-2.7619,-2.784,-2.7897,-2.7897,-2.7897,-2.7897,-2.784,-2.7648,-2.7439,-2.7241,-2.7051,-2.6841,-2.6691,-2.6691,-2.6691,-2.6691,-2.6691,-2.6691,-2.6691,-2.6691,-2.6016,-2.5449,-2.5221,-2.4367,-2.3508,-2.2634,-2.2562,-2.2562,-2.2562,-2.2562,-2.2313,-2.173,-2.0789,-2.002,-1.9371,-1.9079,-1.9095,-1.9384,-1.9384,-1.8726,-1.1637,-1.4272,-1.6792,-1.7215,-1.7606,-1.7856,-1.7741,0.0,0.0,0.0,0.0,0.0,0.0,0.0,0.0,0.0,0.0,0.0,0.0,0.0,0.0,0.0,0.0,0.0,0.0,-3.5996,-3.5996,-3.5996,-3.5996,-3.5996,-3.5996,-3.5996,-3.5957,-3.582,-3.5763,-3.5697,-3.5622,-3.5545,-3.5493,-3.5493,-3.4999,-3.4734,-3.4674,-3.4111,-3.3842,-3.3807,-3.3807,0.0,-3.3273,-3.2809,-3.2011,-3.1045,-3.0546,-2.9972,-2.9242,-2.8352,-2.7944,-2.781,-2.6979,-2.6691,-2.6691,-2.6691,-2.6691,-2.6691,-2.6691,-2.6691,-2.6791,-2.7115,-2.721,-2.7303,-2.7619,-2.7725,-2.7725,-2.7725,-2.7725,-2.7725,-2.7725,-2.7725,-2.7636,-2.7255,-2.721,-2.7083,-2.6758,-2.6691,-2.6691,-2.6691,-2.6691,-2.6691,-2.6691,-2.6691,-2.6691,-2.6691,-2.6297,-2.5762,-2.5259,-2.4712,-2.4184,-2.3638,-2.3595,-2.3595,-2.3595,-2.3595,-2.3334,-2.2694,-2.2146,-2.1486,-2.0795,-2.0245,-1.9901,-1.9798,-1.9683,-1.8874,-1.3786,-1.6042,-1.7196,-1.5907,-1.7215,-1.8607,0.0,0.0,0.0,0.0,0.0,0.0,0.0,0.0,0.0,0.0,0.0,0.0,0.0,0.0,0.0,0.0,0.0,0.0,-3.5996,-3.5996,-3.5996,-3.5996,-3.5996,-3.5996,-3.5996,-3.5996,-3.5996,-3.5976,-3.5899,-3.5814,-3.568,-3.5565,-3.5493,-3.5493,-3.519,-3.4926,-3.4674,-3.4311,-3.4018,-3.3807,0.0,-3.3762,-3.368,-3.3273,-3.2973,-3.2724,-3.1882,-3.1324,-3.0858,-2.9349,-2.8647,-2.8246,-2.708,-2.6691,-2.6691,-2.6691,-2.6691,-2.6691,-2.6691,-2.6691,-2.6725,-2.6774,-2.6791,-2.6825,-2.6873,-2.6873,-2.6873,-2.6873,-2.6873,-2.6873,-2.6873,-2.6873,-2.6873,-2.6808,-2.6791,-2.6791,-2.6725,-2.6691,-2.6691,-2.6691,-2.6691,-2.6691,-2.6691,-2.6691,-2.6691,-2.6691,-2.6297,-2.5762,-2.5259,-2.4712,-2.4184,-2.3638,-2.3595,-2.3595,-2.3595,-2.3595,-2.3334,-2.2694,-2.2603,-2.1988,-2.0795,-2.0696,-2.0346,-1.9798,-1.915,-1.8394,-1.2017,-1.4368,-1.6272,-1.5984,-1.8504,-2.0954,0.0,0.0,0.0,0.0,0.0,0.0,0.0,0.0,0.0,0.0,0.0,0.0,0.0,0.0,0.0,0.0,0.0,-3.5889,-3.5995,-3.5996,-3.5234,-3.3379,-3.3242,-3.3516,-3.4121,-3.416,-3.4512,-3.5273,-3.5222,-3.5363,-3.5708,-3.5598,-3.5545,-3.5493,-3.5223,-3.4963,-3.4694,-3.4357,-3.4068,-3.3807,0.0,-3.3807,-3.3762,-3.3361,-3.3214,-3.3136,-3.2433,-3.1951,-3.1393,-2.9655,-2.8389,-2.7433,-2.691,-2.6691,-2.6691,-2.6691,-2.6691,-2.6691,-2.6691,-2.6691,-2.6691,-2.6691,-2.6691,-2.6691,-2.6691,-2.6691,-2.6691,-2.6691,-2.6691,-2.6691,-2.6691,-2.6691,-2.6691,-2.6691,-2.6691,-2.6691,-2.6691,-2.6691,-2.6691,-2.6691,-2.6691,-2.6691,-2.6691,-2.6691,-2.6691,-2.6691,-2.6505,-2.6175,-2.5689,-2.5144,-2.4471,-2.3638,-2.3595,-2.3595,-2.3595,-2.3595,-2.3465,-2.3187,-2.2889,-2.2221,-2.1293,-2.0979,-2.0446,-1.9798,-1.9044,-1.8286,-1.0825,-1.3055,-1.5503,-1.6772,0.0,0.0,0.0,0.0,0.0,0.0,0.0,0.0,0.0,0.0,0.0,0.0,0.0,0.0,0.0,0.0,0.0,0.0,0.0,-3.5076,-3.4823,-3.4805,-3.3711,-3.1094,-3.0898,-3.1289,-3.2168,-3.2578,-3.3281,-3.4355,-3.4355,-3.4576,-3.5107,-3.5063,-3.5084,-3.5199,-3.4983,-3.4617,-3.4109,-3.4049,-3.382,-3.3532,-3.3715,-3.3807,-3.378,-3.3465,-3.3332,-3.3284,-3.2549,-3.1688,-3.0693,-2.9382,-2.7946,-2.6691,-2.6691,-2.6691,-2.6691,-2.6691,-2.6691,-2.6691,-2.6691,-2.6691,-2.6691,-2.6691,-2.6691,-2.6691,-2.6691,-2.6691,-2.6691,-2.6691,-2.6691,-2.6691,-2.6691,-2.6691,-2.6691,-2.6691,-2.6691,-2.6691,-2.6691,-2.6691,-2.6691,-2.6691,-2.6691,-2.6691,-2.6691,-2.6691,-2.6691,-2.6691,-2.6691,-2.647,-2.5852,-2.5221,-2.4471,-2.3638,-2.3595,-2.3595,-2.3595,-2.3595,-2.3595,-2.3595,-2.3143,-2.2529,-2.1697,-2.1259,-2.0584,-1.9798,-1.8874,-1.8124,-1.2978,-1.4401,-1.5772,-1.8203,0.0,0.0,0.0,0.0,0.0,0.0,0.0,0.0,0.0,0.0,0.0,0.0,0.0,0.0,0.0,0.0,0.0,0.0,-3.2517,-3.2967,-3.1426,-3.1269,-3.1152,-3.0918,-3.0898,-3.0937,-3.1016,-3.25,-3.3398,-3.3496,-3.3496,-3.3445,-3.3387,-3.3392,-3.3692,-3.4295,-3.4263,-3.3597,-3.2392,-3.3127,-3.3168,-3.2742,-3.3476,-3.3807,-3.3807,-3.3762,-3.3762,-3.3607,-3.2097,-3.0103,-2.8133,-2.8421,-2.7755,-2.6691,-2.6691,-2.6691,-2.6691,-2.6691,-2.6691,-2.6691,-2.6691,-2.6691,-2.6691,-2.6691,-2.6691,-2.6691,-2.6691,-2.6691,-2.6691,-2.6691,-2.6691,-2.6691,-2.6691,-2.6691,-2.6691,-2.6691,-2.6691,-2.6691,-2.6691,-2.6691,-2.6691,-2.6691,-2.6691,-2.6691,-2.6691,-2.6691,-2.6691,-2.6691,-2.6691,-2.6315,-2.5335,-2.4307,-2.3681,-2.3595,-2.3595,-2.3595,-2.3595,-2.3595,-2.3595,-2.3595,-2.3551,-2.2935,-2.1697,-2.1663,-2.0988,-1.9747,-1.8328,-1.7633,-1.1286,-1.3324,-1.5651,-1.7535,0.0,0.0,0.0,0.0,0.0,0.0,0.0,0.0,0.0,0.0,0.0,0.0,0.0,0.0,0.0,0.0,0.0,-3.0937,-3.1465,-3.1601,-3.0957,-3.0898,-3.0898,-3.0898,-3.0898,-3.0898,-3.0898,-3.1504,-3.209,-3.2637,-3.2656,-3.2821,-3.3192,-3.3199,-3.3005,-3.2641,-3.3141,-3.2966,-3.2204,-3.2524,-3.2353,-3.1861,-3.2173,-3.2302,-3.2339,-3.2852,-3.2761,-3.2214,-3.1082,-2.9674,-2.8234,-2.81,-2.7504,-2.6691,-2.6691,-2.6691,-2.6691,-2.6691,-2.6691,-2.6691,-2.6691,-2.6691,-2.6691,-2.6691,-2.6691,-2.6691,-2.6691,-2.6691,-2.6691,-2.6691,-2.6691,-2.6691,-2.6691,-2.6691,-2.6691,-2.6691,-2.6691,-2.6691,-2.6691,-2.6691,-2.6691,-2.6691,-2.6691,-2.6691,-2.6691,-2.6691,-2.6691,-2.6691,-2.6436,-2.5997,-2.5259,-2.4511,-2.3964,-2.3638,-2.3595,-2.3595,-2.3595,-2.3595,-2.3595,-2.3595,-2.3231,-2.262,-2.1697,-2.1342,-2.067,-1.9798,-1.8768,-1.8058,-1.0925,-1.3169,-1.5835,0.0,0.0,0.0,0.0,0.0,0.0,0.0,0.0,0.0,0.0,0.0,0.0,0.0,0.0,0.0,0.0,0.0,-3.0898,-3.0898,-3.0898,-3.0898,-3.0898,-3.0898,-3.0898,-3.0898,-3.0898,-3.0898,-3.0898,-3.0898,-3.1172,-3.1777,-3.1797,-3.1981,-3.2388,-3.2387,-3.2004,-3.1295,-3.1852,-3.1905,-3.1519,-3.1712,-3.1534,-3.1162,-3.1323,-3.1384,-3.1439,-3.199,-3.1605,-3.0603,-2.9917,-2.8966,-2.7889,-2.7555,-2.7131,-2.6691,-2.6691,-2.6691,-2.6691,-2.6691,-2.6691,-2.6691,-2.6691,-2.6691,-2.6691,-2.6691,-2.6691,-2.6691,-2.6691,-2.6691,-2.6691,-2.6691,-2.6691,-2.6691,-2.6691,-2.6691,-2.6691,-2.6691,-2.6691,-2.6691,-2.6691,-2.6691,-2.6691,-2.6691,-2.6691,-2.6691,-2.6691,-2.6691,-2.6691,-2.6691,-2.6139,-2.5615,-2.5221,-2.4552,-2.3991,-2.3638,-2.3595,-2.3595,-2.3595,-2.3595,-2.3595,-2.3595,-2.3187,-2.2575,-2.1697,-2.1293,-2.0633,-1.9798,-1.9044,-1.8447,-1.268,-1.4418,0.0,0.0,0.0,0.0,0.0,0.0,0.0,0.0,0.0,0.0,0.0,0.0,0.0,0.0,0.0,0.0,0.0,-3.0898,-3.0898,-3.0898,-3.0898,-3.0898,-3.0898,-3.0898,-3.0898,-3.0898,-3.0898,-3.0898,-3.0898,-3.0898,-3.0898,-3.0898,-3.0898,-3.0808,-3.0606,-3.0608,-3.0525,-3.0398,-3.0398,-3.0254,-3.0018,-3.0631,-3.0771,-3.0599,-3.1162,-3.1366,-3.1366,-3.1366,-3.045,-2.906,-2.8652,-2.7753,-2.6691,-2.6691,-2.6691,-2.6691,-2.6691,-2.6691,-2.6691,-2.6691,-2.6691,-2.6691,-2.6691,-2.6691,-2.6691,-2.6691,-2.6691,-2.6691,-2.6691,-2.6691,-2.6691,-2.6691,-2.6691,-2.6691,-2.6691,-2.6691,-2.6691,-2.6691,-2.6691,-2.6691,-2.6691,-2.6691,-2.6691,-2.6691,-2.6691,-2.6691,-2.6691,-2.6691,-2.6691,-2.6691,-2.5783,-2.5221,-2.5182,-2.4184,-2.3595,-2.3595,-2.3595,-2.3595,-2.3595,-2.3595,-2.3595,-2.3595,-2.3595,-2.298,-2.1697,-2.1697,-2.1037,-1.9798,-1.9032,-1.8715,-1.1986,0.0,0.0,0.0,0.0,0.0,0.0,0.0,0.0,0.0,0.0,0.0,0.0,0.0,0.0,0.0,0.0,0.0,0.0,-3.0898,-3.0898,-3.0898,-3.0898,-3.0898,-3.0898,-3.0898,-3.0898,-3.0898,-3.0898,-3.0898,-3.0898,-3.0898,-3.0898,-3.0898,-3.0898,-3.0808,-3.0606,-3.0608,-3.0525,-3.0398,-3.0398,-3.0188,-2.9799,-2.9976,-2.985,-2.948,-2.9627,-2.9714,-2.969,-2.9416,-2.906,-2.86,-2.7935,-2.7257,-2.6691,-2.6691,-2.6691,-2.6691,-2.6691,-2.6691,-2.6691,-2.6691,-2.6691,-2.6691,-2.6691,-2.6691,-2.6691,-2.6691,-2.6691,-2.6691,-2.6691,-2.6691,-2.6691,-2.6691,-2.6691,-2.6691,-2.6691,-2.6691,-2.6691,-2.6691,-2.6691,-2.6691,-2.6691,-2.6691,-2.6691,-2.6691,-2.6691,-2.6691,-2.6691,-2.6691,-2.659,-2.6227,-2.5598,-2.5067,-2.4672,-2.3991,-2.3595,-2.3595,-2.3595,-2.3595,-2.3595,-2.3595,-2.3595,-2.3595,-2.3187,-2.2529,-2.1697,-2.1293,-2.0633,-1.9798,-1.9579,-1.8927,-1.4297,0.0,0.0,0.0,0.0,0.0,0.0,0.0,0.0,0.0,0.0,0.0,0.0,0.0,0.0,0.0,0.0,0.0,-3.0898,-3.0898,-3.0898,-3.0898,-3.0898,-3.0898,-3.0898,-3.0898,-3.0898,-3.0898,-3.0898,-3.0898,-3.0898,-3.0898,-3.0898,-3.0898,-3.0898,-3.0816,-3.0641,-3.0597,-3.0544,-3.0448,-3.0398,-3.0202,-2.9813,-2.9748,-2.9551,-2.9272,-2.9089,-2.8905,-2.8725,-2.8342,-2.8116,-2.7976,-2.7319,-2.6906,-2.6691,-2.6691,-2.6691,-2.6691,-2.6691,-2.6691,-2.6691,-2.6691,-2.6691,-2.6691,-2.6691,-2.6691,-2.6691,-2.6691,-2.6691,-2.6691,-2.6691,-2.6691,-2.6691,-2.6691,-2.6691,-2.6691,-2.6691,-2.6691,-2.6691,-2.6691,-2.6691,-2.6691,-2.6691,-2.6691,-2.6691,-2.6691,-2.6691,-2.6691,-2.6691,-2.6691,-2.6505,-2.6049,-2.554,-2.4973,-2.443,-2.3921,-2.3595,-2.3595,-2.3595,-2.3595,-2.3595,-2.3595,-2.3595,-2.3595,-2.3246,-2.262,-2.1697,-2.1342,-2.067,-1.9798,-1.9798,-1.9307,0.0,0.0,0.0,0.0,0.0,0.0,0.0,0.0,0.0,0.0,0.0,0.0,0.0,0.0,0.0,0.0,0.0,-3.0898,-3.0898,-3.0898,-3.0898,-3.0898,-3.0898,-3.0898,-3.0898,-3.0898,-3.0898,-3.0898,-3.0898,-3.0898,-3.0898,-3.0898,-3.0898,-3.0898,-3.0898,-3.084,-3.0703,-3.063,-3.0568,-3.0506,-3.0417,-3.0267,-3.0028,-2.9813,-2.9713,-2.9643,-2.9185,-2.8749,-2.8342,-2.8037,-2.7619,-2.721,-2.6841,-2.6691,-2.6691,-2.6691,-2.6691,-2.6691,-2.6691,-2.6691,-2.6691,-2.6691,-2.6691,-2.6691,-2.6691,-2.6691,-2.6691,-2.6691,-2.6691,-2.6691,-2.6691,-2.6691,-2.6691,-2.6691,-2.6691,-2.6691,-2.6691,-2.6691,-2.6691,-2.6691,-2.6691,-2.6691,-2.6691,-2.6691,-2.6691,-2.6691,-2.6691,-2.6691,-2.6691,-2.6657,-2.6436,-2.5961,-2.5449,-2.491,-2.4389,-2.3879,-2.3595,-2.3595,-2.3595,-2.3595,-2.3595,-2.3595,-2.3595,-2.3595,-2.3595,-2.298,-2.1805,-2.1744,-2.1086,-1.9901,-1.985,-1.9747,0.0,0.0,0.0,0.0,0.0,0.0,0.0,0.0,0.0,0.0,0.0,0.0,0.0,0.0,0.0,0.0,0.0,-3.0898,-3.0898,-3.0898,-3.0898,-3.0898,-3.0898,-3.0898,-3.0898,-3.0898,-3.0898,-3.0898,-3.0898,-3.0898,-3.0898,-3.0898,-3.0898,-3.0898,-3.0898,-3.084,-3.0703,-3.0624,-3.0557,-3.0506,-3.0417,-3.0367,-3.0311,-3.0047,-2.9763,-2.9454,-2.9156,-2.8626,-2.7992,-2.7926,-2.7487,-2.6808,-2.6725,-2.6691,-2.6691,-2.6691,-2.6691,-2.6691,-2.6691,-2.6691,-2.6691,-2.6691,-2.6691,-2.6691,-2.6691,-2.6691,-2.6691,-2.6691,-2.6691,-2.6691,-2.6691,-2.6691,-2.6691,-2.6691,-2.6691,-2.6691,-2.6691,-2.6691,-2.6691,-2.6691,-2.6691,-2.6691,-2.6691,-2.6691,-2.6691,-2.6691,-2.6691,-2.6691,-2.6691,-2.6367,-2.5961,-2.5411,-2.4894,-2.4348,-2.3837,-2.3681,-2.3595,-2.3595,-2.3595,-2.3595,-2.3595,-2.3595,-2.3595,-2.3595,-2.3595,-2.3231,-2.2498,-2.1946,-2.1342,-2.0547,-2.0055,-1.9475,0.0,0.0,0.0,0.0,0.0,0.0,0.0,0.0,0.0,0.0,0.0,0.0,0.0,0.0,0.0,0.0,-3.0625,-3.0742,-3.0332,-3.0273,-3.0273,-3.0273,-2.9902,-2.998,-3.082,-3.0898,-3.0898,-3.0898,-3.0898,-3.0898,-3.0898,-3.0898,-3.0898,-3.0898,-3.0898,-3.0876,-3.0794,-3.0662,-3.0587,-3.0544,-3.0448,-3.0398,-3.0398,-3.0018,-2.9696,-2.9392,-2.9112,-2.8601,-2.7897,-2.7897,-2.7426,-2.6691,-2.6691,-2.6691,-2.6691,-2.6691,-2.6691,-2.6691,-2.6691,-2.6691,-2.6691,-2.6691,-2.6691,-2.6691,-2.6691,-2.6691,-2.6691,-2.6691,-2.6691,-2.6691,-2.6691,-2.6691,-2.6691,-2.6691,-2.6691,-2.6691,-2.6691,-2.6691,-2.6691,-2.6691,-2.6691,-2.6691,-2.6691,-2.6691,-2.6691,-2.6691,-2.6691,-2.6691,-2.6691,-2.6297,-2.5799,-2.5259,-2.4712,-2.4184,-2.3638,-2.3595,-2.3595,-2.3595,-2.3595,-2.3595,-2.3595,-2.3595,-2.3595,-2.3595,-2.3595,-2.3128,-2.2193,-2.2193,-2.1534,-2.0295,-2.0295,-1.9876,0.0,0.0,0.0,0.0,0.0,0.0,0.0,0.0,0.0,0.0,0.0,0.0,0.0,0.0,0.0,0.0,-2.998,-3.0195,-2.9473,-2.9375,-2.9375,-2.9375,-2.873,-2.8867,-3.0312,-3.0723,-3.0898,-3.0898,-3.0898,-3.0762,-3.0469,-3.0742,-3.082,-3.0684,-3.082,-3.0905,-3.0898,-3.0703,-3.0607,-3.0602,-3.0467,-3.0398,-3.0379,-2.9912,-2.9607,-2.9434,-2.9134,-2.8601,-2.7897,-2.7897,-2.7426,-2.6691,-2.6691,-2.6691,-2.6691,-2.6691,-2.6691,-2.6691,-2.6691,-2.6691,-2.6691,-2.6691,-2.6691,-2.6691,-2.6691,-2.6691,-2.6691,-2.6691,-2.6691,-2.6691,-2.6691,-2.6691,-2.6691,-2.6691,-2.6793,-2.686,-2.6725,-2.6691,-2.6691,-2.6691,-2.6691,-2.6691,-2.6691,-2.6691,-2.6691,-2.6691,-2.6691,-2.6691,-2.6691,-2.6297,-2.5799,-2.5259,-2.4712,-2.4184,-2.3638,-2.3595,-2.3595,-2.3595,-2.3595,-2.3595,-2.3595,-2.3595,-2.3595,-2.3595,-2.3595,-2.3069,-2.2025,-2.2498,-2.1819,-2.0131,-2.0597,-2.0446,0.0,0.0,0.0,0.0,0.0,0.0,0.0,0.0,0.0,0.0,0.0,0.0,0.0,0.0,0.0,0.0,-2.8574,-2.8613,-2.8496,-2.8476,-2.8476,-2.8476,-2.8379,-2.8398,-2.8613,-3.0019,-3.0898,-3.0898,-3.0898,-3.0234,-2.873,-3.0078,-3.0547,-2.9805,-3.0508,-3.0905,-3.0898,-3.0703,-3.0607,-3.0602,-3.0467,-3.0398,-3.0379,-2.9912,-2.9678,-2.9625,-2.9185,-2.8601,-2.7897,-2.7897,-2.7426,-2.6691,-2.6691,-2.6691,-2.6691,-2.6691,-2.6691,-2.6691,-2.6691,-2.6691,-2.6691,-2.6691,-2.6691,-2.6691,-2.6691,-2.6691,-2.6691,-2.6691,-2.6691,-2.6691,-2.6691,-2.6691,-2.6691,-2.6691,-2.7199,-2.7503,-2.6843,-2.6691,-2.6691,-2.6691,-2.6691,-2.6691,-2.6691,-2.6691,-2.6691,-2.6691,-2.6691,-2.6691,-2.6691,-2.6297,-2.5799,-2.5259,-2.4712,-2.4184,-2.3638,-2.3595,-2.3595,-2.3595,-2.3595,-2.3595,-2.3595,-2.3595,-2.3595,-2.3595,-2.3595,-2.3508,-2.3363,-2.292,-2.2253,-2.1424,-2.1028,-2.0446,0.0,0.0,0.0,0.0,0.0,0.0,0.0,0.0,0.0,0.0,0.0,0.0,0.0,0.0,0.0,0.0,-2.7988,-2.8125,-2.7637,-2.7578,-2.7578,-2.7578,-2.7148,-2.7226,-2.8203,-2.8105,-2.8398,-2.9375,-2.8535,-2.8086,-2.8281,-2.9023,-2.9277,-2.8887,-2.9238,-2.9675,-3.0172,-2.9977,-3.0075,-3.0487,-3.0417,-3.0398,-3.0379,-2.9912,-2.9696,-2.9678,-2.9206,-2.8601,-2.7897,-2.7897,-2.7426,-2.6691,-2.6691,-2.6691,-2.6691,-2.6691,-2.6691,-2.6691,-2.6691,-2.6691,-2.6691,-2.6691,-2.6691,-2.6691,-2.6691,-2.6691,-2.6691,-2.6691,-2.6691,-2.6691,-2.6691,-2.7012,-2.7215,-2.6793,-2.7604,-2.845,-2.8383,-2.8163,-2.7841,-2.7402,-2.7334,-2.7199,-2.6776,-2.6691,-2.6691,-2.6691,-2.7046,-2.7334,-2.7334,-2.6953,-2.6645,-2.6407,-2.5579,-2.4971,-2.4717,-2.4388,-2.4178,-2.4178,-2.3819,-2.3595,-2.3595,-2.3595,-2.3595,-2.3595,-2.3595,-2.3421,-2.3113,-2.3157,-2.2529,-2.121,-2.1245,-2.0756,0.0,0.0,0.0,0.0,0.0,0.0,0.0,0.0,0.0,0.0,0.0,0.0,0.0,0.0,0.0,0.0,-2.7226,-2.7402,-2.6758,-2.668,-2.668,-2.668,-2.6094,-2.6211,-2.7519,-2.6465,-2.623,-2.7539,-2.6426,-2.6269,-2.7578,-2.8066,-2.8203,-2.7988,-2.8184,-2.8619,-2.9252,-2.9285,-2.9668,-3.0398,-3.0398,-3.0398,-3.0398,-2.9958,-2.9765,-2.9678,-2.9206,-2.8601,-2.7897,-2.7897,-2.7426,-2.6691,-2.6691,-2.6691,-2.6691,-2.6691,-2.6691,-2.6691,-2.6691,-2.6691,-2.6691,-2.6691,-2.6691,-2.6725,-2.6911,-2.6979,-2.6979,-2.6979,-2.6979,-2.6945,-2.6742,-2.7249,-2.7637,-2.7114,-2.8146,-2.9313,-2.9502,-2.9265,-2.8805,-2.823,-2.8112,-2.7892,-2.7199,-2.7182,-2.7232,-2.7097,-2.7672,-2.8041,-2.7916,-2.7673,-2.7377,-2.7084,-2.6332,-2.574,-2.56,-2.5151,-2.4761,-2.4597,-2.4148,-2.3789,-2.361,-2.3595,-2.3595,-2.3595,-2.3595,-2.3377,-2.292,-2.3377,-2.2711,-2.1028,-2.1677,-2.1277,0.0,0.0,0.0,0.0,0.0,0.0,0.0,0.0,0.0,0.0,0.0,0.0,0.0,0.0,0.0,0.0,-2.5801,-2.582,-2.5762,-2.5762,-2.5762,-2.5762,-2.5723,-2.5742,-2.582,-2.5742,-2.5742,-2.582,-2.5742,-2.5742,-2.582,-2.7402,-2.793,-2.709,-2.7871,-2.8327,-2.8371,-2.8985,-2.9667,-3.0398,-3.0398,-3.0398,-3.0398,-3.0122,-2.9877,-2.9678,-2.9206,-2.8601,-2.7897,-2.7897,-2.7426,-2.6691,-2.6691,-2.6691,-2.6691,-2.6691,-2.6691,-2.6691,-2.6691,-2.6691,-2.6691,-2.6691,-2.6691,-2.6826,-2.7554,-2.7722,-2.7722,-2.7722,-2.7722,-2.7588,-2.6877,-2.7249,-2.7772,-2.7739,-2.8941,-2.9871,-2.9161,-2.9045,-2.9011,-2.896,-2.8924,-2.8755,-2.823,-2.8535,-2.8704,-2.8197,-2.8586,-2.8706,-2.8163,-2.8079,-2.764,-2.6554,-2.6377,-2.6168,-2.5646,-2.557,-2.53,-2.4627,-2.4552,-2.4283,-2.3625,-2.3595,-2.3595,-2.3595,-2.3595,-2.3595,-2.3551,-2.3595,-2.2935,-2.1663,-2.2346,-2.1911,0.0,0.0,0.0,0.0,0.0,0.0,0.0,0.0,0.0,0.0,0.0,0.0,0.0,0.0,0.0,0.0,0.0,-2.5703,-2.5703,-2.5703,-2.5703,-2.5703,-2.5703,-2.5703,-2.5703,-2.5703,-2.5703,-2.5703,-2.5703,-2.5703,-2.5703,-2.6289,-2.6484,-2.6172,-2.6465,-2.6864,-2.7337,-2.8628,-2.9387,-2.9563,-3.014,-3.0398,-3.0398,-3.0122,-2.9893,-2.9678,-2.9394,-2.8855,-2.821,-2.801,-2.756,-2.7051,-2.6808,-2.6691,-2.6691,-2.6691,-2.6691,-2.6691,-2.6691,-2.6691,-2.6691,-2.6691,-2.6691,-2.6742,-2.7012,-2.7097,-2.7097,-2.7097,-2.7097,-2.7029,-2.6759,-2.7621,-2.8805,-2.977,-3.0395,-3.0734,-3.0463,-3.0395,-3.026,-2.9803,-2.9702,-2.9397,-2.8383,-2.8636,-2.9025,-2.9144,-2.9465,-2.9479,-2.8867,-2.9239,-2.9043,-2.786,-2.7736,-2.7501,-2.6905,-2.6482,-2.6138,-2.5899,-2.5495,-2.5151,-2.4896,-2.4477,-2.4253,-2.4253,-2.3819,-2.3595,-2.3595,-2.3187,-2.2575,-2.171,-2.1882,-2.1519,0.0,0.0,0.0,0.0,0.0,0.0,0.0,0.0,0.0,0.0,0.0,0.0,0.0,0.0,0.0,0.0,0.0,-2.5703,-2.5703,-2.5703,-2.5703,-2.5703,-2.5703,-2.5703,-2.5703,-2.5703,-2.5703,-2.5703,-2.5703,0.0,-2.5703,-2.5703,-2.5703,-2.5703,-2.5703,-2.6046,-2.6787,-2.7902,-2.8533,-2.8698,-2.9563,-2.9967,-2.9956,-3.0075,-2.9973,-2.9696,-2.9551,-2.9067,-2.8376,-2.8156,-2.7747,-2.7255,-2.7004,-2.6808,-2.6691,-2.6691,-2.6691,-2.6691,-2.6691,-2.6691,-2.6691,-2.6691,-2.6691,-2.6742,-2.6996,-2.7063,-2.7063,-2.7063,-2.7063,-2.7012,-2.6759,-2.7824,-2.9347,-3.0835,-3.119,-3.119,-3.119,-3.119,-3.1055,-3.0565,-3.048,-3.0209,-2.9364,-2.9499,-2.982,-3.0142,-3.0362,-3.0253,-2.9666,-2.9812,-2.9629,-2.8606,-2.8319,-2.8042,-2.761,-2.7171,-2.6826,-2.6602,-2.6183,-2.5839,-2.5615,-2.5196,-2.4956,-2.4956,-2.4298,-2.3939,-2.3939,-2.3304,-2.2781,-2.2362,-2.2259,-2.202,0.0,0.0,0.0,0.0,0.0,0.0,0.0,0.0,0.0,0.0,0.0,0.0,0.0,0.0,0.0,0.0,0.0,-2.5703,-2.5703,-2.5703,-2.5703,-2.5703,-2.5703,-2.5703,-2.5703,-2.5703,-2.5703,-2.5703,-2.5703,-2.5703,-2.5703,-2.5703,-2.5703,-2.5703,-2.5703,-2.6046,-2.6753,-2.6796,-2.7171,-2.7871,-2.8679,-2.9083,-2.9121,-2.9987,-3.0122,-2.9713,-2.9713,-2.9221,-2.8446,-2.842,-2.7974,-2.7317,-2.7303,-2.7051,-2.6725,-2.6691,-2.6691,-2.6691,-2.6691,-2.6691,-2.6691,-2.6691,-2.6691,-2.6826,-2.7571,-2.7755,-2.7755,-2.7755,-2.7755,-2.7621,-2.6911,-2.7824,-2.933,-3.0818,-3.1157,-3.1173,-3.119,-3.119,-3.119,-3.119,-3.119,-3.119,-3.119,-3.119,-3.119,-3.119,-3.119,-3.0958,-3.0393,-2.9761,-2.918,-2.8559,-2.8008,-2.7625,-2.7625,-2.7625,-2.7305,-2.6662,-2.6617,-2.6333,-2.5689,-2.5644,-2.563,-2.563,-2.494,-2.4612,-2.4612,-2.3925,-2.3644,-2.3645,-2.3531,-2.3391,-0.9864,0.0,0.0,0.0,0.0,0.0,0.0,0.0,0.0,0.0,0.0,0.0,0.0,0.0,0.0,0.0,0.0,0.0,-2.5703,-2.5703,-2.5703,-2.5703,-2.5703,-2.5703,-2.5703,-2.5703,-2.5703,0.0,-2.5703,-2.5703,-2.5703,-2.5703,-2.5703,-2.5703,-2.5703,-2.5761,-2.593,-2.6507,-2.6882,-2.7036,-2.7843,-2.8544,-2.9102,-2.9352,-2.9634,-2.9908,-2.9763,-2.9495,-2.9082,-2.8603,-2.8272,-2.8057,-2.753,-2.7241,-2.7083,-2.6825,-2.6691,-2.6691,-2.6691,-2.6691,-2.6691,-2.6691,-2.6691,-2.6725,-2.6945,-2.6996,-2.6996,-2.6996,-2.6996,-2.708,-2.7418,-2.7824,-2.8535,-3.004,-3.0412,-3.0548,-3.1072,-3.119,-3.119,-3.119,-3.119,-3.119,-3.119,-3.119,-3.119,-3.119,-3.0838,-3.0477,-3.0293,-2.9761,-2.918,-2.8559,-2.8319,-2.8091,-2.7625,-2.7625,-2.755,-2.737,-2.7305,-2.7215,-2.7036,-2.6572,-2.6318,-2.6318,-2.5674,-2.533,-2.533,-2.4217,-2.3411,-2.2923,-2.2724,-2.2825,0.0,0.0,0.0,0.0,0.0,0.0,0.0,-1.4817,0.0,0.0,0.0,0.0,0.0,0.0,0.0,0.0,0.0,0.0,-2.5625,-2.5703,-2.5703,-2.5703,-2.5703,-2.5703,-2.5703,-2.5703,-2.5703,-2.5703,-2.5703,-2.5703,-2.5703,-2.5703,-2.5703,-2.5703,-2.5703,-2.5664,-2.5605,-2.6048,-2.6221,-2.6179,-2.6977,-2.7601,-2.8063,-2.8429,-2.8943,-2.9484,-2.9383,-2.9359,-2.9372,-2.8993,-2.8652,-2.835,-2.7946,-2.7572,-2.7272,-2.7036,-2.6841,-2.6691,-2.6691,-2.6691,-2.6691,-2.6691,-2.6691,-2.6691,-2.6691,-2.6691,-2.6691,-2.6691,-2.6691,-2.686,-2.7621,-2.7789,-2.8178,-2.9736,-3.0108,-3.0311,-3.1038,-3.119,-3.119,-3.119,-3.119,-3.119,-3.119,-3.119,-3.119,-3.119,-3.0878,-3.0418,-2.9745,-2.9524,-2.918,-2.8559,-2.8271,-2.7993,-2.7625,-2.7625,-2.7625,-2.7625,-2.7625,-2.7625,-2.7625,-2.72,-2.7006,-2.7006,-2.6363,-2.6019,-2.6019,-2.5003,-2.4115,-2.3372,-2.3231,-2.3107,0.0,0.0,0.0,0.0,0.0,0.0,-1.5819,-1.5089,-1.457,0.0,0.0,0.0,0.0,0.0,0.0,0.0,0.0,0.0,-2.5527,-2.5703,-2.5703,-2.5703,-2.5703,-2.5703,-2.5703,-2.5703,-2.5703,-2.5703,-2.5703,-2.5703,-2.5703,-2.5703,-2.5703,-2.5703,-2.5703,-2.5664,-2.5605,-2.5534,-2.5473,-2.5428,-2.614,-2.6524,-2.664,-2.742,-2.8111,-2.8706,-2.8755,-2.9001,-2.9343,-2.9377,-2.9038,-2.8446,-2.842,-2.7974,-2.7348,-2.7334,-2.7051,-2.6691,-2.6691,-2.6691,-2.6691,-2.6691,-2.6691,-2.6691,-2.6691,-2.6691,-2.6691,-2.6691,-2.6691,-2.6843,-2.752,-2.7689,-2.8078,-2.9617,-2.9989,-3.0209,-3.1021,-3.119,-3.119,-3.119,-3.119,-3.119,-3.119,-3.119,-3.119,-3.119,-3.1151,-3.0601,-2.9239,-2.9255,-2.918,-2.8654,-2.8042,-2.766,-2.7625,-2.7625,-2.7625,-2.7625,-2.7625,-2.7625,-2.7625,-2.7625,-2.7625,-2.7625,-2.6991,-2.6643,-2.6594,-2.5827,-2.5112,-2.4515,-2.4256,-2.3767,-1.4433,-1.4499,-1.4756,-1.3776,0.0,0.0,-1.2611,-1.2911,-1.3594,0.0,0.0,0.0,0.0,0.0,0.0,0.0,0.0,0.0,0.0,-2.5703,-2.5703,-2.5703,-2.5703,-2.5703,-2.5703,-2.5703,-2.5703,-2.5703,-2.5703,-2.5703,-2.5703,-2.5703,-2.5703,-2.5703,-2.5703,-2.5684,-2.5684,-2.5604,-2.5563,-2.5563,-2.5678,-2.6053,-2.6689,-2.6862,-2.7351,-2.8115,-2.858,-2.8846,-2.895,-2.927,-2.9203,-2.8839,-2.854,-2.8156,-2.7736,-2.7409,-2.7051,-2.6691,-2.6691,-2.6691,-2.6691,-2.6691,-2.6691,-2.6691,-2.6691,-2.6691,-2.6691,-2.6691,-2.6691,-2.6725,-2.6877,-2.6911,-2.73,-2.8839,-2.9194,-2.9567,-3.0903,-3.119,-3.119,-3.119,-3.119,-3.119,-3.119,-3.119,-3.119,-3.119,-3.0797,-3.0518,-3.0699,-2.9935,-2.9361,-2.9225,-2.8685,-2.814,-2.761,-2.7625,-2.7625,-2.7625,-2.7625,-2.7625,-2.7625,-2.7625,-2.7625,-2.7625,-2.744,-2.7113,-2.6533,-2.5218,-2.481,-2.5163,-2.3936,-2.3245,0.0,0.0,-1.6206,-1.5802,0.0,0.0,0.0,-1.3944,-1.3296,-1.2712,0.0,0.0,0.0,0.0,0.0,0.0,0.0,0.0,0.0,0.0,-2.5703,-2.5703,-2.5703,-2.5703,-2.5703,-2.5703,-2.5703,-2.5703,-2.5703,-2.5703,-2.5703,-2.5703,-2.5703,-2.5703,-2.5703,-2.5703,-2.5703,-2.5625,-2.5593,-2.5605,-2.5525,-2.5681,-2.6056,-2.6063,-2.6496,-2.7274,-2.757,-2.8128,-2.8803,-2.887,-2.9022,-2.916,-2.8845,-2.8464,-2.8129,-2.7918,-2.7601,-2.7272,-2.7051,-2.6987,-2.6987,-2.6987,-2.6873,-2.6725,-2.6939,-2.6873,-2.6691,-2.6691,-2.6691,-2.6691,-2.6691,-2.6691,-2.708,-2.8619,-2.9011,-2.9381,-3.0869,-3.119,-3.119,-3.119,-3.119,-3.119,-3.119,-3.119,-3.119,-3.119,-3.0918,-3.0699,-3.0601,-3.0166,-2.9717,-2.9451,-2.9134,-2.8685,-2.8091,-2.8042,-2.7894,-2.7625,-2.7625,-2.7625,-2.7625,-2.7625,-2.7625,-2.7625,-2.7625,-2.7408,-2.7034,-2.594,-2.5244,-2.4851,-2.406,-2.3292,0.0,0.0,0.0,0.0,0.0,-1.6027,0.0,0.0,0.0,-1.2871,0.0,0.0,0.0,0.0,0.0,0.0,0.0,0.0,0.0,0.0,0.0,-2.3672,-2.4316,-2.4844,-2.5195,-2.4727,-2.4746,-2.5625,-2.5254,-2.5176,-2.5664,-2.5703,-2.5703,-2.5703,-2.5703,-2.5703,-2.5703,-2.5644,-2.5625,-2.5625,-2.5556,-2.5507,-2.5449,-2.5432,-2.5774,-2.639,-2.6524,-2.7275,-2.8382,-2.8446,-2.8796,-2.9269,-2.9082,-2.8749,-2.8394,-2.8394,-2.8183,-2.7869,-2.753,-2.7426,-2.7426,-2.7426,-2.721,-2.7004,-2.7334,-2.7178,-2.6939,-2.6939,-2.6939,-2.6939,-2.6939,-2.6873,-2.7165,-2.8558,-2.8929,-2.9347,-3.07,-3.1106,-3.119,-3.119,-3.119,-3.119,-3.119,-3.119,-3.119,-3.119,-3.119,-3.0975,-3.0318,-3.0377,-3.0251,-2.9629,-2.9585,-2.9316,-2.8732,-2.8559,-2.8286,-2.781,-2.766,-2.7625,-2.7625,-2.7625,-2.7625,-2.7625,-2.7625,-2.7524,-2.7408,-2.6774,-2.5783,-2.4509,-2.4208,-2.3255,0.0,0.0,0.0,0.0,-1.8977,0.0,0.0,0.0,-1.5356,-1.3157,0.0,0.0,0.0,0.0,0.0,0.0,0.0,0.0,0.0,0.0,0.0,-1.6387,-1.9297,-2.1797,-2.332,-2.1172,-2.1348,-2.5391,-2.3613,-2.332,-2.5586,-2.5703,-2.5703,-2.5703,-2.5703,-2.5703,-2.5703,-2.5684,-2.5684,-2.5684,-2.5683,-2.5643,-2.5582,-2.5517,-2.5505,-2.5582,-2.6294,-2.6706,-2.6943,-2.8242,-2.8793,-2.8871,-2.8973,-2.8749,-2.8394,-2.8394,-2.8183,-2.7897,-2.784,-2.784,-2.784,-2.784,-2.7811,-2.7783,-2.7811,-2.7811,-2.7765,-2.7765,-2.7765,-2.7765,-2.7765,-2.75,-2.7448,-2.828,-2.8733,-2.9211,-3.0057,-3.0734,-3.119,-3.119,-3.119,-3.119,-3.119,-3.119,-3.119,-3.119,-3.119,-3.1151,-3.1072,-3.1095,-3.0878,-3.0251,-3.0208,-2.9935,-2.9361,-2.8826,-2.8463,-2.8415,-2.791,-2.7625,-2.7625,-2.7625,-2.7625,-2.7625,-2.7625,-2.7306,-2.6616,-2.6563,-2.6068,-2.5231,-2.3781,-2.2676,0.0,0.0,0.0,0.0,0.0,0.0,-1.9324,0.0,-1.5376,0.0,0.0,0.0,0.0,0.0,0.0,0.0,-1.1296,0.0,0.0,0.0,0.0,0.0,0.0,0.0,-2.1426,-2.0605,-2.1074,-2.3965,-2.2305,-2.2266,-2.4805,-2.4941,-2.5176,-2.5684,-2.5703,-2.5703,-2.5703,-2.5703,-2.5703,-2.5703,-2.5703,-2.5664,-2.5605,-2.5532,-2.5464,-2.5428,-2.5717,-2.614,-2.6687,-2.7644,-2.8341,-2.8831,-2.9118,-2.9141,-2.8971,-2.8803,-2.8676,-2.8507,-2.8264,-2.8183,-2.8156,-2.7964,-2.802,-2.8156,-2.7954,-2.7897,-2.7897,-2.7897,-2.7897,-2.7897,-2.7897,-2.7765,-2.7841,-2.8583,-2.9018,-2.9505,-3.0223,-3.0823,-3.119,-3.119,-3.119,-3.119,-3.119,-3.119,-3.119,-3.119,-3.119,-3.119,-3.119,-3.119,-3.1095,-3.0838,-3.0518,-3.0081,-2.9451,-2.8826,-2.8319,-2.7993,-2.776,-2.7625,-2.7625,-2.7625,-2.7625,-2.7625,-2.7625,-2.7458,-2.7137,-2.6721,-2.5863,-2.4617,-2.3521,-2.2348,-2.2039,0.0,0.0,0.0,0.0,0.0,0.0,0.0,0.0,0.0,0.0,0.0,0.0,0.0,0.0,0.0,0.0,-1.1452,0.0,0.0,0.0,0.0,0.0,0.0,0.0,-1.9375,-1.9803,-2.2216,-2.0389,-2.0605,-2.3867,-2.4062,-2.457,-2.5664,-2.5703,-2.5703,-2.5703,-2.5703,-2.5703,-2.5703,-2.5703,-2.5664,-2.5625,-2.5562,-2.5485,-2.5428,-2.537,-2.5678,-2.6303,-2.6967,-2.7772,-2.8605,-2.9055,-2.9345,-2.9435,-2.9134,-2.8994,-2.8952,-2.8658,-2.8565,-2.8515,-2.8281,-2.836,-2.8515,-2.8281,-2.8201,-2.8201,-2.8201,-2.8201,-2.8201,-2.8201,-2.812,-2.8215,-2.898,-2.9337,-2.9695,-3.0474,-3.0939,-3.119,-3.119,-3.119,-3.119,-3.119,-3.119,-3.119,-3.119,-3.119,-3.119,-3.119,-3.119,-3.119,-3.119,-3.0797,-3.0393,-2.9935,-2.9316,-2.8685,-2.791,-2.786,-2.776,-2.7625,-2.7625,-2.7625,-2.7625,-2.7625,-2.7509,-2.7306,-2.6774,-2.5686,-2.4147,-2.3141,-2.177,0.0,0.0,0.0,-2.4605,0.0,0.0,0.0,0.0,-1.5597,0.0,0.0,0.0,0.0,0.0,0.0,0.0,0.0,0.0,0.0,0.0,0.0,0.0,0.0,0.0,0.0,-1.6289,-1.6057,0.0,-1.7472,-1.7773,-2.2871,-2.3203,-2.3984,-2.5644,-2.5703,-2.5703,-2.5703,-2.5703,-2.5703,-2.5703,-2.5703,-2.5703,-2.5684,-2.5625,-2.557,-2.5486,-2.5428,-2.539,-2.5399,-2.6264,-2.7129,-2.7984,-2.8599,-2.9178,-2.9643,-2.9163,-2.8994,-2.8994,-2.8994,-2.8994,-2.8994,-2.897,-2.8952,-2.8994,-2.897,-2.8952,-2.8952,-2.8952,-2.8952,-2.8952,-2.8952,-2.8682,-2.8593,-2.9394,-2.9536,-2.9729,-3.0508,-3.0976,-3.119,-3.119,-3.119,-3.119,-3.119,-3.119,-3.119,-3.119,-3.119,-3.119,-3.119,-3.119,-3.119,-3.119,-3.119,-3.1151,-3.1151,-3.0601,-2.9717,-2.8559,-2.8463,-2.8189,-2.7625,-2.7625,-2.7625,-2.7625,-2.7625,-2.7255,-2.6563,-2.651,-2.5728,-2.4279,-2.2541,-2.0871,0.0,0.0,-2.4236,-2.4384,0.0,0.0,0.0,0.0,0.0,0.0,0.0,0.0,0.0,0.0,0.0,0.0,0.0,0.0,0.0,0.0,0.0,0.0,0.0,0.0,0.0,0.0,0.0,0.0,-1.6876,0.0,-2.1191,-2.248,-2.3652,-2.4805,-2.5391,-2.5703,-2.5703,-2.5703,-2.5703,-2.5703,-2.5703,-2.5703,-2.5703,-2.5625,-2.5599,-2.5554,-2.5445,-2.539,-2.5428,-2.6255,-2.7101,-2.7956,-2.8555,-2.9175,-2.9661,-2.9355,-2.9156,-2.8994,-2.8994,-2.8994,-2.8994,-2.8994,-2.8994,-2.8994,-2.8994,-2.8994,-2.8994,-2.8994,-2.8994,-2.8994,-2.8994,-2.8905,-2.887,-2.9144,-2.9551,-2.9986,-3.0232,-3.0762,-3.119,-3.119,-3.119,-3.119,-3.119,-3.119,-3.119,-3.119,-3.119,-3.119,-3.119,-3.119,-3.119,-3.119,-3.0838,-3.0601,-3.0601,-2.9673,-2.8904,-2.8511,-2.814,-2.781,-2.7625,-2.7625,-2.7625,-2.7625,-2.7625,-2.7458,-2.7255,-2.6721,-2.5686,-2.416,-2.3081,-2.1708,-2.4604,-2.4588,0.0,-2.4593,-2.167,0.0,-1.5741,0.0,0.0,0.0,0.0,0.0,0.0,0.0,0.0,0.0,0.0,0.0,0.0,-1.1844,0.0,0.0,0.0,0.0,0.0,0.0,-1.465,-1.6091,-1.5901,0.0,0.0,-2.1675,-2.3184,-2.4355,-2.5254,-2.5703,-2.5703,-2.5703,-2.5703,-2.5703,-2.5703,-2.5703,-2.5703,-2.5664,-2.5625,-2.5605,-2.5503,-2.5441,-2.5447,-2.5967,-2.6851,-2.7937,-2.823,-2.8909,-2.9678,-2.9455,-2.9225,-2.8994,-2.8994,-2.8994,-2.8994,-2.8994,-2.8994,-2.8994,-2.8994,-2.8994,-2.8994,-2.8994,-2.8994,-2.8994,-2.8994,-2.8994,-2.9067,-2.9365,-2.9909,-3.0409,-3.0706,-3.1235,-3.1657,-3.1657,-3.1657,-3.1657,-3.1657,-3.1657,-3.1562,-3.1269,-3.119,-3.119,-3.119,-3.119,-3.119,-3.119,-3.0838,-3.0518,-3.0293,-2.9585,-2.9058,-2.8826,-2.8448,-2.8125,-2.7944,-2.7894,-2.781,-2.761,-2.7625,-2.7458,-2.7203,-2.6982,-2.5943,-2.4173,-2.3942,-2.2687]}]]